[[{"header":{"parameterUnit":"m.s-1","parameterCategory":1,"la1":30.6,"la2":29.2853,"lo1":-89.7004,"lo2":-87.6739,"dy":0.0162,"dx":0.0183,"nx":112,"ny":82,"refTime":"2024-06-18T12:00:00:Z","depth":0,"parameterNumber":2,"parameterNumberName":"U-component_of_WINDS"},"data":[0.0,0.0,0.0,0.0,0.0,0.0,0.0,0.0,0.0,0.0,0.0,0.0,0.0,0.0,0.0,0.0,0.0,0.0,0.0,0.0,0.0,0.0,0.0,0.0,0.0,0.0,0.0,0.0,0.0,0.0,0.0,0.0,0.0,0.0,0.0,0.0,0.0,0.0,0.0,0.0,0.0,0.0,0.0,0.0,0.0,0.0,0.0,0.0,0.0,0.0,0.0,0.0,0.0,0.0,0.0,0.0,0.0,0.0,0.0,0.0,0.0,0.0,0.0,0.0,0.0,0.0,0.0,0.0,0.0,0.0,0.0,0.0,0.0,0.0,0.0,0.0,0.0,0.0,0.0,0.0,0.0,0.0,0.0,0.0,0.0,0.0,0.0,0.0,0.0,0.0,1.4407,1.5296,1.6347,1.6815,1.6415,1.6151,1.5296,1.3614,0.0,0.0,0.0,0.0,0.0,0.0,0.0,0.0,0.0,0.0,0.0,0.0,0.0,0.0,0.0,0.0,0.0,0.0,0.0,0.0,0.0,0.0,0.0,0.0,0.0,0.0,0.0,0.0,0.0,0.0,0.0,0.0,0.0,0.0,0.0,0.0,0.0,0.0,0.0,0.0,0.0,0.0,0.0,0.0,0.0,0.0,0.0,0.0,0.0,0.0,0.0,0.0,0.0,0.0,0.0,0.0,0.0,0.0,0.0,0.0,0.0,0.0,0.0,0.0,0.0,0.0,0.0,0.0,0.0,0.0,0.0,0.0,0.0,0.0,0.0,0.0,0.0,0.0,0.0,0.0,0.0,0.0,0.0,0.0,0.0,0.0,0.0,0.0,0.0,0.0,0.0,0.0,0.0,0.0,0.0,0.0,0.0,0.0,0.0,0.0,0.0,0.0,0.0,0.0,1.4645,1.6157,1.6714,1.6897,1.6648,1.6033,1.5208,1.4084,0.0,0.0,0.0,0.0,0.0,0.0,0.0,0.0,0.0,0.0,0.0,0.0,0.0,0.0,0.0,0.0,0.0,0.0,0.0,0.0,0.0,0.0,0.0,0.0,0.0,0.0,0.0,0.0,0.0,0.0,0.0,0.0,0.0,0.0,0.0,0.0,0.0,0.0,0.0,0.0,0.0,0.0,0.0,0.0,0.0,0.0,0.0,0.0,0.0,0.0,0.0,0.0,0.0,0.0,0.0,0.0,0.0,0.0,0.0,0.0,0.0,0.0,0.0,0.0,0.0,0.0,0.0,0.0,0.0,0.0,0.0,0.0,0.0,0.0,0.0,0.0,0.0,0.0,0.0,0.0,0.0,0.0,0.0,0.0,0.0,0.0,0.0,0.0,0.0,0.0,0.0,0.0,0.0,0.0,0.0,0.0,0.0,0.0,0.0,0.0,0.0,0.0,0.0,1.4692,1.5364,1.6849,1.706,1.6998,1.6716,1.6019,1.5107,1.4021,1.3173,0.0,0.0,0.0,0.0,0.0,0.0,0.0,0.0,0.0,0.0,0.0,0.0,0.0,0.0,0.0,0.0,0.0,0.0,0.0,0.0,0.0,0.0,0.0,0.0,0.0,0.0,0.0,0.0,0.0,0.0,0.0,0.0,0.0,0.0,0.0,0.0,0.0,0.0,0.0,0.0,0.0,0.0,0.0,0.0,0.0,0.0,0.0,0.0,0.0,0.0,0.0,0.0,0.0,0.0,0.0,0.0,0.0,0.0,0.0,0.0,0.0,0.0,0.0,0.0,0.0,0.0,0.0,0.0,0.0,0.0,0.0,0.0,0.0,0.0,0.0,0.0,0.0,0.0,0.0,0.0,0.0,0.0,0.0,0.0,0.0,0.0,0.0,0.0,0.0,0.0,0.0,0.0,0.0,0.0,0.0,0.0,0.0,0.0,0.0,0.0,0.0,0.0,1.5798,1.6191,1.7256,1.7263,1.7073,1.6723,1.5884,1.4924,1.3862,1.2868,0.0,0.0,0.0,0.0,0.0,0.0,0.0,0.0,0.0,0.0,0.0,0.0,0.0,0.0,0.0,0.0,0.0,0.0,0.0,0.0,0.0,0.0,0.0,0.0,0.0,0.0,0.0,0.0,0.0,0.0,0.0,0.0,0.0,0.0,0.0,0.0,0.0,0.0,0.0,0.0,0.0,0.0,0.0,0.0,0.0,0.0,0.0,0.0,0.0,0.0,0.0,0.0,0.0,0.0,0.0,0.0,0.0,0.0,0.0,0.0,0.0,0.0,0.0,0.0,0.0,0.0,0.0,0.0,0.0,0.0,0.0,0.0,0.0,0.0,0.0,0.0,0.0,0.0,0.0,0.0,0.0,0.0,0.0,0.0,0.0,0.0,0.0,0.0,0.0,0.0,0.0,0.0,0.0,0.0,0.0,0.0,0.0,0.0,0.0,0.0,0.0,0.0,1.6117,1.6958,1.7182,1.7202,1.7073,1.6723,1.5506,1.4484,1.3835,1.2442,0.0,0.0,0.0,0.0,0.0,0.0,0.0,0.0,0.0,0.0,0.0,0.0,0.0,0.0,0.0,0.0,0.0,0.0,0.0,0.0,0.0,0.0,0.0,0.0,0.0,0.0,0.0,0.0,0.0,0.0,0.0,0.0,0.0,0.0,0.0,0.0,0.0,0.0,0.0,0.0,0.0,0.0,0.0,0.0,0.0,0.0,0.0,0.0,0.0,0.0,0.0,0.0,0.0,0.0,0.0,0.0,0.0,0.0,0.0,0.0,0.0,0.0,0.0,0.0,0.0,0.0,0.0,0.0,0.0,0.0,0.0,0.0,0.0,0.0,0.0,0.0,0.0,0.0,0.0,0.0,0.0,0.0,0.0,0.0,0.0,0.0,0.0,0.0,0.0,0.0,0.0,0.0,0.0,0.0,0.0,0.0,0.0,0.0,0.0,0.0,0.0,0.0,1.6015,1.6795,1.7412,1.7392,1.7175,1.673,1.581,1.4802,1.3734,0.0,0.0,0.0,0.0,0.0,0.0,0.0,0.0,0.0,0.0,0.0,0.0,0.0,0.0,0.0,0.0,0.0,0.0,0.0,0.0,0.0,0.0,0.0,0.0,0.0,0.0,0.0,0.0,0.0,0.0,0.0,0.0,0.0,0.0,0.0,0.0,0.0,0.0,0.0,0.0,0.0,0.0,0.0,0.0,0.0,0.0,0.0,0.0,0.0,0.0,0.0,0.0,0.0,0.0,0.0,0.0,0.0,0.0,0.0,0.0,0.0,0.0,0.0,0.0,0.0,0.0,0.0,0.0,0.0,0.0,0.0,0.0,0.0,0.0,0.0,0.0,0.0,0.0,0.0,0.0,0.0,0.0,0.0,0.0,0.0,0.0,0.0,0.0,0.0,0.0,0.0,0.0,0.0,0.0,0.0,0.0,0.0,0.0,0.0,0.0,0.0,0.0,1.5242,1.6144,1.6897,1.746,1.7433,1.7183,1.6736,1.5844,1.4816,1.366,0.0,0.0,0.0,0.0,0.0,0.0,0.0,0.0,0.0,0.0,0.0,0.0,0.0,0.0,0.0,0.0,0.0,0.0,0.0,0.0,0.0,0.0,0.0,0.0,0.0,0.0,0.0,0.0,0.0,0.0,0.0,0.0,0.0,0.0,0.0,0.0,0.0,0.0,0.0,0.0,0.0,0.0,0.0,0.0,0.0,0.0,0.0,0.0,0.0,0.0,0.0,0.0,0.0,0.0,0.0,0.0,0.0,0.0,0.0,0.0,0.0,0.0,0.0,0.0,0.0,0.0,0.0,0.0,0.0,0.0,0.0,0.0,0.0,0.0,0.0,0.0,0.0,0.0,0.0,0.0,0.0,0.0,0.0,0.0,0.0,0.0,0.0,0.0,0.0,0.0,0.0,0.0,0.0,0.0,0.0,0.0,0.0,0.0,0.0,0.0,0.0,0.0,1.5303,1.6592,1.7419,1.7426,1.7419,1.7183,1.6736,1.5472,1.4383,0.0,0.0,0.0,0.0,0.0,0.0,0.0,0.0,0.0,0.0,0.0,0.0,0.0,0.0,0.0,0.0,0.0,0.0,0.0,0.0,0.0,0.0,0.0,0.0,0.0,0.0,0.0,0.0,0.0,0.0,0.0,0.0,0.0,0.0,0.0,0.0,0.0,0.0,0.0,0.0,0.0,0.0,0.0,0.0,0.0,0.0,0.0,0.0,0.0,0.0,0.0,0.0,0.0,0.0,0.0,0.0,0.0,0.0,0.0,0.0,0.0,0.0,0.0,0.0,0.0,0.0,0.0,0.0,0.0,0.0,0.0,0.0,0.0,0.0,0.0,0.0,0.0,0.0,0.0,0.0,0.0,0.0,0.0,0.0,0.0,0.0,0.0,0.0,0.0,0.0,0.0,0.0,0.0,0.0,0.0,0.0,0.0,0.0,0.0,0.0,0.0,0.0,0.0,1.5643,1.6714,1.75,1.7704,1.7548,1.7283,1.6944,1.5918,1.4829,1.366,0.0,0.0,0.0,0.0,0.0,0.0,0.0,0.0,0.0,0.0,0.0,0.0,0.0,0.0,0.0,0.0,0.0,0.0,0.0,0.0,0.0,0.0,0.0,0.0,0.0,0.0,0.0,0.0,0.0,0.0,0.0,0.0,0.0,0.0,0.0,0.0,0.0,0.0,0.0,0.0,0.0,0.0,0.0,0.0,0.0,0.0,0.0,0.0,0.0,0.0,0.0,0.0,0.0,0.0,0.0,0.0,0.0,0.0,0.0,0.0,0.0,0.0,0.0,0.0,0.0,0.0,0.0,0.0,0.0,0.0,0.0,0.0,0.0,0.0,0.0,0.0,0.0,0.0,0.0,0.0,0.0,0.0,0.0,0.0,0.0,0.0,0.0,0.0,0.0,0.0,0.0,0.0,0.0,0.0,0.0,0.0,0.0,0.0,0.0,0.0,0.0,0.0,1.5854,1.6809,1.7534,1.7881,1.765,1.7392,1.7087,1.6354,1.5309,1.4018,0.0,0.0,0.0,0.0,0.0,0.0,0.0,0.0,0.0,0.0,0.0,0.0,0.0,0.0,0.0,0.0,0.0,0.0,0.0,0.0,0.0,0.0,0.0,0.0,0.0,0.0,0.0,0.0,0.0,0.0,0.0,0.0,0.0,0.0,0.0,0.0,0.0,0.0,0.0,0.0,0.0,0.0,0.0,0.0,0.0,0.0,0.0,0.0,0.0,0.0,0.0,0.0,0.0,0.0,0.0,0.0,0.0,0.0,0.0,0.0,0.0,0.0,0.0,0.0,0.0,0.0,0.0,0.0,0.0,0.0,0.0,0.0,0.0,0.0,0.0,0.0,0.0,0.0,0.0,0.0,0.0,0.0,0.0,0.0,0.0,0.0,0.0,0.0,0.0,0.0,0.0,0.0,0.0,0.0,0.0,0.0,0.0,0.0,0.0,0.0,0.0,0.0,1.5954,1.689,1.7561,1.788,1.7758,1.748,1.7256,1.668,1.5825,1.4645,0.0,0.0,0.0,0.0,0.0,0.0,0.0,0.0,0.0,0.0,0.0,0.0,0.0,0.0,0.0,0.0,0.0,0.0,0.0,0.0,0.0,0.0,0.0,0.0,0.0,0.0,0.0,0.0,0.0,0.0,0.0,0.0,0.0,0.0,0.0,0.0,0.0,0.0,0.0,0.0,0.0,0.0,0.0,0.0,0.0,0.0,0.0,0.0,0.0,0.0,0.0,0.0,0.0,0.0,0.0,0.0,0.0,0.0,0.0,0.0,1.4652,1.4041,0.0,0.0,0.0,0.0,0.0,0.0,0.0,0.0,0.0,0.0,0.0,0.0,0.0,0.0,0.0,0.0,0.0,0.0,0.0,0.0,0.0,0.0,0.0,0.0,0.0,0.0,0.0,0.0,0.0,0.0,0.0,0.0,0.0,0.0,0.0,0.0,0.0,0.0,0.0,0.0,1.6123,1.7046,1.7758,1.8179,1.7825,1.7568,1.75,1.6838,1.6062,1.5099,1.417,0.0,0.0,0.0,0.0,0.0,0.0,0.0,0.0,0.0,0.0,0.0,0.0,0.0,0.0,0.0,0.0,0.0,0.0,0.0,0.0,0.0,0.0,0.0,0.0,0.0,0.0,0.0,0.0,0.0,0.0,0.0,0.0,0.0,0.0,0.0,0.0,0.0,0.0,0.0,0.0,0.0,0.0,0.0,0.0,0.0,0.0,0.0,0.0,0.0,0.0,0.0,0.0,0.0,0.0,0.0,0.0,0.0,0.0,0.0,1.6198,1.5479,0.0,0.0,0.0,0.0,0.0,0.0,0.0,0.0,0.0,0.0,0.0,0.0,0.0,0.0,0.0,0.0,0.0,0.0,0.0,0.0,0.0,0.0,0.0,0.0,0.0,0.0,0.0,0.0,0.0,0.0,0.0,0.0,0.0,0.0,0.0,0.0,0.0,0.0,0.0,0.0,1.6317,1.7128,1.7771,1.8267,1.7982,1.7717,1.7595,1.7169,1.6598,1.5778,1.4943,0.0,0.0,0.0,0.0,0.0,0.0,0.0,0.0,0.0,0.0,0.0,0.0,0.0,0.0,0.0,0.0,0.0,0.0,0.0,0.0,0.0,0.0,0.0,0.0,0.0,0.0,0.0,0.0,0.0,0.0,0.0,0.0,0.0,0.0,0.0,0.0,0.0,0.0,0.0,0.0,0.0,0.0,0.0,0.0,0.0,0.0,0.0,0.0,0.0,0.0,0.0,0.0,0.0,1.8057,1.8247,1.8938,1.8321,1.8443,1.9094,1.8004,1.7277,1.6865,1.6042,0.0,0.0,0.0,0.0,0.0,0.0,0.0,0.0,0.0,0.0,0.0,0.0,0.0,0.0,0.0,0.0,0.0,0.0,0.0,0.0,0.0,0.0,1.6466,1.6781,1.7066,1.6802,1.5167,0.0,0.0,0.0,0.0,0.0,0.0,0.0,0.0,0.0,0.0,0.0,1.6615,1.7325,1.7859,1.8287,1.8077,1.7846,1.7649,1.7494,1.7175,1.6503,1.5784,1.5011,0.0,0.0,0.0,0.0,0.0,0.0,0.0,0.0,0.0,0.0,0.0,0.0,0.0,0.0,0.0,0.0,0.0,0.0,0.0,0.0,0.0,0.0,0.0,0.0,0.0,0.0,0.0,0.0,0.0,0.0,0.0,0.0,1.5242,1.5629,0.0,0.0,0.0,0.0,0.0,0.0,0.0,0.0,0.0,0.0,0.0,0.0,0.0,1.8674,1.9128,1.9535,1.9834,2.0031,2.0349,2.056,2.0668,2.058,2.0594,2.0682,2.0383,0.0,1.786,1.7087,0.0,0.0,0.0,0.0,0.0,0.0,0.0,0.0,0.0,0.0,0.0,0.0,0.0,0.0,0.0,0.0,0.0,0.0,0.0,0.0,0.0,0.0,1.8199,1.819,1.8244,1.8213,1.7846,1.6354,1.5018,1.4799,1.419,1.3632,0.0,0.0,0.0,0.0,0.0,0.0,1.7012,1.7772,1.8247,1.8265,1.8158,1.8002,1.7846,1.7704,1.7412,1.71,1.6503,1.5934,1.5377,1.4468,0.0,0.0,0.0,0.0,0.0,0.0,0.0,0.0,0.0,0.0,0.0,0.0,0.0,0.0,0.0,0.0,0.0,0.0,0.0,0.0,0.0,0.0,0.0,0.0,0.0,0.0,0.0,0.0,0.0,1.5343,1.6056,1.6103,1.6279,1.554,0.0,0.0,0.0,0.0,0.0,0.0,0.0,0.0,0.0,1.641,1.878,1.9225,1.7447,1.7682,1.6803,1.4796,1.5,1.5162,1.5215,1.5153,1.5129,1.5182,1.5024,1.4436,1.3952,1.6904,1.7704,1.7085,0.0,0.0,0.0,0.0,1.6781,1.6811,1.7514,1.7487,1.7134,1.6931,0.0,0.0,0.0,0.0,0.0,0.0,0.0,1.6951,1.7575,1.8199,1.8762,1.9183,1.9217,1.9169,1.9183,1.8213,1.708,1.6259,1.5832,1.5316,1.4363,1.4272,0.0,0.0,0.0,1.6619,1.7358,1.8023,1.8386,1.8386,1.8233,1.8057,1.8002,1.786,1.7636,1.7338,1.6998,1.6564,1.6035,1.5411,1.4785,0.0,0.0,0.0,0.0,0.0,0.0,0.0,0.0,0.0,0.0,0.0,0.0,0.0,0.0,0.0,0.0,0.0,0.0,0.0,0.0,0.0,0.0,0.0,0.0,0.0,0.0,0.0,0.0,1.4375,1.4406,1.4376,1.4649,1.377,0.0,0.0,0.0,0.0,0.0,0.0,0.8355,1.118,1.3143,1.3876,1.6859,1.7208,1.4748,1.4798,1.3466,1.0683,1.0663,1.0752,1.0801,1.0752,1.0726,1.0789,1.0592,1.0457,1.0733,1.4867,1.6203,1.5645,1.5139,1.4919,1.4862,1.5389,1.5494,1.5484,1.6367,1.6397,1.6017,1.5686,1.5223,1.4694,1.3957,0.0,0.0,0.0,0.0,1.6248,1.6043,1.6274,1.69,1.8353,1.8595,1.8796,1.9784,1.961,1.8918,1.7724,1.7311,1.6781,1.558,1.5425,0.0,1.5581,1.6415,1.7249,1.7805,1.8355,1.864,1.8599,1.8355,1.8179,1.8091,1.7989,1.7792,1.7446,1.7338,1.7032,1.6558,1.6205,1.5676,1.493,0.0,0.0,0.0,0.0,0.0,0.0,0.0,0.0,0.0,0.0,0.0,0.0,0.0,0.0,0.0,0.0,0.0,0.0,0.0,0.0,0.0,0.0,0.0,0.0,0.0,0.0,0.0,0.0,0.0,0.9085,0.9006,0.0,0.0,0.0,0.0,0.7951,0.8378,0.8825,0.9285,0.9889,1.0402,1.0903,1.1266,1.1415,1.1431,1.1432,1.1334,1.119,1.1192,1.1158,1.1168,1.1158,1.1158,1.1158,1.0931,1.0822,1.0644,1.0115,0.9802,0.9578,0.9117,0.8931,0.8941,0.9084,0.9212,0.9398,0.9615,0.9538,0.9435,0.9876,0.9511,0.8898,0.8739,1.0563,0.0,0.0,1.0996,1.3163,1.0504,1.0027,1.1107,1.4618,1.5398,1.6348,1.9598,2.0173,1.982,1.904,1.8199,1.7494,1.7324,0.0,1.675,1.7236,1.7589,1.8078,1.8677,1.8871,1.8918,1.882,1.8599,1.8389,1.8111,1.8091,1.7948,1.7595,1.744,1.7331,1.7154,1.672,1.6334,1.6008,1.4997,0.0,0.0,0.0,0.0,0.0,0.0,0.0,0.0,0.0,0.0,0.0,0.0,0.0,0.0,0.0,0.0,0.0,0.0,0.0,0.0,0.0,0.0,0.0,0.0,0.0,0.0,0.0,0.0,0.87,0.89,0.0,0.5856,0.5541,0.4782,0.3005,0.2978,0.3147,0.3313,0.5868,0.7396,0.7569,1.0054,0.8936,0.3886,0.3895,0.132,-0.3798,-0.3791,-0.3787,-0.3787,-0.3787,-0.2394,0.0144,0.0072,0.1495,0.3782,0.3489,0.5836,0.9676,0.9535,0.9436,0.934,0.9491,0.9569,0.9658,0.9809,0.9773,0.9651,0.9635,0.9384,0.906,0.9002,0.9714,1.032,0.9295,1.0076,1.0958,1.0072,0.9995,1.0458,1.1753,1.2019,1.2405,1.362,1.3728,1.3609,1.331,1.6329,1.8742,1.8111,1.8023,1.8002,1.788,1.8355,1.883,1.9149,1.9325,1.9359,1.9203,1.8884,1.8599,1.8389,1.8111,1.7812,1.7467,1.7358,1.7209,1.706,1.6904,1.6632,1.6239,1.5764,1.5038,0.0,0.0,0.0,0.0,0.0,0.0,0.0,0.0,0.0,0.0,0.0,0.0,0.0,0.0,0.0,0.0,0.0,0.0,0.0,0.0,0.0,0.0,0.0,0.0,0.0,0.6148,0.5869,0.5745,0.6066,0.5309,0.3026,0.2775,0.2029,0.0137,0.0,0.0,0.0,0.2463,0.3831,0.3857,0.6369,0.5143,-0.0075,-0.1498,-0.4781,-1.0055,-1.1418,-1.2136,-1.2136,-1.2136,-0.9863,-0.598,-0.598,-0.369,0.0,0.0,0.263,0.6637,0.664,0.6567,0.6497,0.6609,0.6605,0.6663,0.6777,0.6743,0.6626,0.6438,0.633,0.6239,0.6224,0.7028,0.7651,0.6634,0.7228,0.7901,0.6946,0.6789,0.7135,0.8288,0.8544,0.8862,1.0076,1.0237,1.02,1.02,1.4403,1.7453,1.5675,1.6473,1.6891,1.5442,1.5638,1.6004,1.6132,1.7239,1.794,1.775,1.853,1.8864,1.8552,1.8213,1.786,1.7467,1.7304,1.7127,1.6985,1.6883,1.6686,1.6388,1.5174,1.4035,1.3087,0.0,0.0,0.0,0.0,0.0,0.0,0.0,0.0,0.0,0.0,0.0,0.0,0.0,0.0,0.0,0.0,0.0,0.0,0.0,0.0,0.0,0.0,0.0,0.1829,0.1198,-0.0197,-0.0195,-0.0068,0.0,0.0,0.0,0.0,0.0,0.0,0.0,0.0,0.0,0.0,0.0,0.0,-0.0077,-0.0154,-0.4034,-0.6047,-0.627,-1.0212,-1.2069,-1.2069,-1.2069,-0.9892,-0.602,-0.602,-0.3723,0.0,0.0,0.0,0.0,0.0,0.0,0.0,0.0,0.0,0.0,0.0,0.0,0.0,0.0,0.0,0.0,0.0,0.2232,0.4075,0.0893,0.2295,0.4018,0.0837,0.0,0.0838,0.4185,0.4955,0.5851,0.9247,0.9948,0.9948,0.9948,1.2362,1.3359,1.0189,1.2231,1.3301,1.0117,0.9635,0.0,0.9799,1.261,1.4503,1.4384,1.7211,1.8833,1.8247,1.8111,1.7837,1.7349,1.7083,1.6856,1.6729,1.6435,1.623,1.623,1.2957,1.1047,1.0602,0.0,0.0,0.0,0.0,0.0,0.0,0.0,0.0,0.0,0.0,0.0,0.0,0.0,0.0,0.0,0.0,0.0,0.0,0.0,0.0,0.0,-1.0069,-1.0132,-0.7524,-0.5468,-0.4184,-0.4231,-0.1712,0.0,0.0,0.0,0.0,0.0,0.0,0.0,0.0,0.0,0.0,0.0,0.0,-0.14,-0.4311,-0.5467,-0.7511,-1.0475,-1.1568,-1.2124,-1.2069,-1.2069,-0.9846,-0.5986,-0.5986,-0.3748,0.0,0.0,0.0,0.0,0.0,0.0,0.0,0.0,0.0,0.0,0.0,0.0,0.0,0.0,0.0,0.0,0.0,0.0643,0.1157,0.0257,0.0643,0.1157,0.0258,0.0,0.0258,0.116,0.1418,0.1676,0.2641,0.2835,0.2835,0.2835,0.5506,0.8203,0.9733,1.0713,1.1019,1.0031,0.9916,0.9939,1.0136,1.0841,1.1293,1.1326,1.1878,1.2197,1.1903,1.1667,1.1381,1.115,1.0995,1.0874,1.0864,1.0747,1.0717,1.068,0.9348,0.8575,0.0,0.0,0.0,0.0,0.0,0.0,0.0,0.0,0.0,0.0,0.0,0.0,0.0,0.0,0.0,0.0,0.0,0.0,0.0,0.0,0.0,0.0,-1.4519,-1.5953,-1.6101,-1.1595,-0.7719,-0.6001,-0.3818,-0.186,-0.015,0.0,0.0,0.0,0.0,0.0,0.0,0.0,0.0,0.0,0.0,-0.1098,-0.349,-0.5121,-0.7189,-0.9588,-1.1317,-1.2102,-1.21,-1.21,-0.9835,-0.6004,-0.6004,-0.3682,0.0,0.0,0.0,0.0,0.0,0.0,0.0,0.0,0.0,0.0,0.0,0.0,0.0,0.0,0.0,0.0,0.0,0.0,0.0,0.0,0.0,0.0,0.0,0.0,0.0,0.0,0.0,0.0,0.0,0.0,0.0,0.0,0.1612,0.0,0.5502,0.7029,0.7476,0.6009,0.5816,0.5822,0.5975,0.7109,0.7912,0.7949,0.9044,0.9637,0.9424,0.9143,0.0,0.0,0.0,0.8446,0.8286,0.8296,0.0,0.0,0.0,0.0,0.0,0.4787,0.0,0.0,0.6334,0.6285,0.0,0.0,0.0,0.0,0.0,0.0,0.0,0.0,0.0,0.0,0.0,0.0,0.0,0.0,0.0,0.0,-2.0025,-2.2498,-2.2995,-1.7387,-1.1492,-0.7038,-0.6198,-0.4445,-0.0382,0.0,0.0,0.0,0.0,0.0,0.0,0.0,0.0,0.0,0.0,0.0,0.0,-0.3508,-0.5362,-0.5357,-0.9022,-1.0727,-1.0726,-1.0726,-0.8743,-0.534,-0.534,-0.3317,0.0,0.0,0.0,0.0,0.0,0.0,0.0,0.0,0.0,0.0,0.0,0.0,0.0,0.0,0.0,0.0,0.0,0.0,0.0,0.0,0.0,0.0,0.0,0.0,0.0,0.0,0.0,0.0,0.0,0.0,0.0,0.0,0.0,0.0,0.0,0.2512,0.3476,0.0452,0.0,0.0,0.0,0.2641,0.4492,0.4338,0.7062,0.0,0.8378,0.8226,0.8101,0.7915,0.7677,0.7414,0.7126,0.7078,0.7109,0.7103,0.4751,0.3607,0.3745,0.1241,0.0,0.012,0.4502,0.4203,0.0,0.0,0.0,0.0,0.0,0.0,0.0,0.0,0.0,0.0,0.0,0.0,0.0,0.0,0.0,-1.9944,-2.1776,-2.2995,-2.3255,-2.2414,-1.8988,-1.1493,-0.7906,-0.4398,-0.0385,0.0,0.0,0.0,0.0,0.0,0.0,0.0,0.0,0.0,0.0,0.0,0.0,-0.0784,-0.1173,-0.1167,-0.1942,0.0,-0.2368,-0.2368,-0.189,-0.1189,-0.1189,-0.0738,0.0,0.0,0.0,0.0,0.0,0.0,0.0,0.0,0.0,0.0,0.0,0.0,0.0,0.0,0.0,0.0,0.0,0.0,0.0,0.0,0.0,0.0,0.0,0.0,0.0,0.0,0.0,0.0,0.0,0.0,0.0,0.0,0.0,0.0,0.0,0.0516,0.0774,0.0129,0.0,0.0,0.0,0.0581,0.0967,0.0965,0.1535,0.1903,0.1819,0.1781,0.1748,0.1721,0.1688,0.1605,0.153,0.1549,0.1555,0.1548,0.1048,0.0766,0.0829,0.0241,0.0,0.0,0.0971,0.0907,0.0,0.0,0.0,0.0,0.0,0.0,0.0,0.0,0.0,0.0,0.0,-0.9418,-1.2784,0.0,-1.816,-2.1654,-2.2728,-2.3327,-2.3626,-2.3924,-2.1805,-1.5658,-1.1498,-0.7604,-0.3571,-0.1255,0.0,0.0,0.0,0.0,0.0,0.0,0.0,0.0,0.0,0.0,0.0,0.0,0.0,0.0,0.0,0.0,0.0,0.0,0.0,0.0,0.0,0.0,0.0,0.0,0.0,0.0,0.0,0.0,0.0,0.0,0.0,0.0,0.0,0.0,0.0,0.0,0.0,0.0,0.0,0.0,0.0,0.0,0.0,0.0,0.0,0.0,0.0,0.0,0.0,0.0,0.0,0.0,0.0,0.0,0.0,0.0,0.0,0.0,0.0,0.0,0.0,0.0,0.0,0.0,0.0,0.0,0.0,0.0,0.0,0.0,0.0,0.0,0.0,0.0,0.0,0.0,0.0,0.0,0.0,0.0,0.0,0.0,0.0,0.0,0.0,0.0,0.0,0.0,0.0,0.0,0.0,0.0,0.0,-1.0384,-1.0367,-1.0886,-1.1751,-1.3374,-1.6509,-1.79,-1.9559,-2.2588,-2.3347,-2.3553,-2.3856,-2.4053,-2.2916,-1.9684,-1.5909,-1.1878,-0.7885,-0.4409,-0.2455,-0.2457,-0.1673,-0.1203,-0.1292,-0.0484,0.0,0.0,0.0,0.0,0.0,0.0,0.0,0.0,0.0,0.0,0.0,0.0,0.0,0.0,0.0,0.0,0.0,0.0,0.0,0.0,0.0,0.0,0.0,0.0,0.0,0.0,0.0,0.0,0.0,0.0,0.0,0.0,0.0,0.0,0.0,0.0,0.0,0.0,0.0,0.0,0.0,0.0,0.0,0.0,0.0,0.0,0.0,0.0,0.0,0.0,0.0,0.0,0.0,0.0,0.0,0.0,0.0,0.0,0.0,0.0,0.0,0.0,0.0,0.0,0.0,0.0,0.0,0.0,0.0,0.0,0.0,0.0,0.0,0.0,0.0,0.0,0.0,0.0,0.0,0.0,-0.386,-0.6278,-0.9505,-1.2851,-1.1887,-1.0918,0.0,-1.2901,-1.1142,-1.131,-1.4172,-1.6836,-1.7266,-2.0315,-2.2881,-2.3323,-2.3646,-2.3856,-2.389,-2.4141,-2.4099,-2.3653,-2.0203,-1.6186,-1.2026,-1.1285,-1.1143,-1.1282,-0.7726,-0.5608,-0.575,-0.209,0.0,0.0,0.0,0.0,0.0,0.0,0.0,0.0,0.0,0.0,0.0,0.0,0.0,0.0,0.0,0.0,0.0,0.0,0.0,0.0,0.0,0.0,0.0,0.0,0.0,0.0,0.0,0.0,0.0,0.0,0.0,0.0,0.0,0.0,0.0,0.0,0.0,0.0,0.0,0.0,0.0,0.0,0.0,0.0,0.0,0.0,0.0,0.0,0.0,0.0,0.0,0.0,0.0,0.0,0.0,0.0,0.0,0.0,0.0,0.0,0.0,0.0,0.0,0.0,0.0,0.0,0.0,0.0,0.0,0.0,0.0,0.0,0.0,0.0,0.0,0.0,0.0,0.0,0.0,0.0,-0.9277,-1.1049,-1.3036,-1.6245,-1.6656,-1.6735,-1.8254,-1.7931,-1.744,-1.7819,-1.9414,-2.0716,-2.0876,-2.2395,-2.3646,-2.3749,-2.3877,-2.3965,-2.4141,-2.4189,-2.4155,-2.3978,-2.2622,-2.0195,-1.6323,-1.374,-1.2423,-1.2579,-1.0886,-0.9897,-1.0024,-0.8331,-0.7367,-0.7357,-0.5046,-0.3754,-0.3797,-0.1267,0.0,0.0,-0.251,-0.368,-0.375,-0.6104,-0.5785,-0.3512,-0.3484,-0.2132,0.0,0.0,0.0,0.0,0.0,0.0,0.0,0.0,0.0,0.0,0.0,0.0,0.0,0.0,0.0,0.0,0.0,0.0,0.0,0.0,0.0,0.0,0.0,0.0,0.0,0.0,0.0,0.0,0.0,0.0,0.0,0.0,0.0,0.0,0.0,0.0,0.0,0.0,0.0,0.0,0.0,0.0,0.0,0.0,0.0,0.0,0.0,0.0,0.0,0.0,0.0,0.0,0.0,0.0,0.0,0.0,0.0,0.0,0.0,0.0,0.0,0.0,0.0,0.0,-1.3983,-1.5356,-1.632,-1.8814,-2.0187,-2.1001,-2.1157,-2.1597,-2.2113,-2.2588,-2.292,-2.3205,-2.3343,-2.3612,-2.3822,-2.4087,-2.4033,-2.4033,-2.4188,-2.4121,-2.3924,-2.37,-2.3836,-2.2894,-2.0277,-1.7391,-1.5754,-1.5952,-1.487,-1.421,-1.4312,-1.3255,-1.2718,-1.2684,-0.9856,-0.8238,-0.8234,-0.507,-0.3476,-0.3449,-0.6578,-0.7986,-0.8136,-1.0965,-1.062,-0.7648,-0.7637,-0.5967,-0.3284,-0.3207,-0.3205,-0.3205,-0.3199,-0.2526,-0.1571,-0.1623,-0.0913,0.0,0.0,0.0,0.0,0.0,0.0,0.0,0.0,0.0,0.0,0.0,0.0,0.0,0.0,0.0,0.0,0.0,0.0,0.0,0.0,0.0,0.0,0.0,0.0,0.0,0.0,0.0,0.0,0.0,0.0,0.0,0.0,0.0,0.0,0.0,0.0,0.0,0.0,0.0,0.0,0.0,0.0,0.0,0.0,0.0,0.0,0.0,0.0,0.0,0.0,0.0,0.0,0.0,0.0,0.0,-1.6937,-1.8289,-1.9098,-2.0178,-2.0902,-2.1517,-2.2092,-2.2534,-2.2798,-2.2961,-2.3167,-2.3363,-2.3377,-2.368,-2.3944,-2.41,-2.4121,-2.4121,-2.4121,-2.3877,-2.37,-2.368,-2.3558,-2.3519,-2.3742,-2.4003,-2.4309,-2.4602,-2.0906,-1.8653,-1.8768,-1.495,-1.2684,-1.2675,-1.2762,-1.2728,-1.2491,-1.2409,-1.2263,-1.2118,-1.2274,-1.2274,-1.2274,-1.2275,-1.2161,-1.1869,-1.1724,-1.1573,-1.1419,-1.128,-1.1244,-1.1244,-1.125,-0.896,-0.563,-0.5591,-0.3237,0.0,0.0,0.0,0.0,0.0,0.0,0.0,0.0,0.0,0.0,0.0,0.0,0.0,0.0,0.0,0.0,0.0,0.0,0.0,0.0,0.0,0.0,0.0,0.0,0.0,0.0,0.0,0.0,0.0,0.0,0.0,0.0,0.0,0.0,0.0,0.0,0.0,0.0,0.0,0.0,0.0,0.0,0.0,0.0,0.0,0.0,0.0,0.0,0.0,0.0,0.0,0.0,0.0,0.0,0.0,-1.847,-1.9447,-2.0227,-2.1068,-2.174,-2.2289,-2.269,-2.294,-2.3063,-2.3008,-2.3083,-2.313,-2.3029,-2.3239,-2.3558,-2.391,-2.3965,-2.4033,-2.4243,-2.41,-2.3822,-2.3415,-2.3503,-2.3558,-2.3449,-2.3856,-2.4284,-2.4684,-2.3449,-2.2748,-2.3063,-2.1903,-2.1217,-2.133,-1.8673,-1.7191,-1.7013,-1.4161,-1.2658,-1.2512,-1.5313,-1.8092,-2.0658,-2.0483,-1.8837,-1.6046,-1.5941,-1.4262,-1.1643,-1.162,-1.1609,-1.1609,-1.1582,-1.0783,-0.9541,-0.9518,-0.7053,-0.3354,-0.0897,0.0,0.0,0.0,0.0,0.0,0.0,0.0,0.0,0.0,0.0,0.0,0.0,0.0,0.0,0.0,0.0,0.0,0.0,0.0,0.0,0.0,0.0,0.0,0.0,0.0,0.0,0.0,0.0,0.0,0.0,0.0,0.0,0.0,0.0,0.0,0.0,0.0,0.0,0.0,0.0,0.0,0.0,0.0,0.0,0.0,0.0,0.0,0.0,0.0,0.0,0.0,0.0,0.0,-1.9535,-2.0232,-2.098,-2.1848,-2.2391,-2.2784,-2.3029,-2.3117,-2.3083,-2.2886,-2.2764,-2.2642,-2.2479,-2.2622,-2.294,-2.3558,-2.37,-2.3877,-2.4222,-2.4121,-2.3836,-2.3503,-2.349,-2.3483,-2.3395,-2.3592,-2.3924,-2.4372,-2.4562,-2.4772,-2.5057,-2.5321,-2.5518,-2.5606,-2.3006,-2.1603,-2.1465,-1.857,-1.7121,-1.7033,-1.9685,-2.2331,-2.4704,-2.4616,-2.3012,-2.0147,-2.0026,-1.8372,-1.5793,-1.5756,-1.5733,-1.5733,-1.5733,-1.4847,-1.3561,-1.3457,-1.1028,-0.7139,-0.332,-0.1101,0.0,0.0,0.0,0.0,0.0,0.0,0.0,0.0,0.0,0.0,0.0,0.0,0.0,0.0,0.0,0.0,0.0,0.0,0.0,0.0,0.0,0.0,0.0,0.0,0.0,0.0,0.0,0.0,0.0,0.0,0.0,0.0,0.0,0.0,0.0,0.0,0.0,0.0,0.0,0.0,0.0,0.0,0.0,0.0,0.0,0.0,0.0,0.0,0.0,0.0,0.0,0.0,-2.0246,-2.0933,-2.153,-2.2534,-2.2907,-2.3063,-2.3185,-2.3097,-2.2886,-2.2644,-2.2269,-2.2004,-2.1828,-2.1828,-2.2147,-2.3029,-2.3275,-2.3607,-2.4188,-2.3999,-2.3788,-2.389,-2.3537,-2.3395,-2.368,-2.3571,-2.3607,-2.41,-2.4528,-2.4772,-2.4813,-2.5213,-2.5464,-2.5464,-2.5606,-2.5606,-2.5522,-2.5301,-2.5159,-2.5023,-2.5023,-2.486,-2.4582,-2.4562,-2.4317,-2.389,-2.3754,-2.3592,-2.3363,-2.3293,-2.3219,-2.3219,-2.3219,-2.0956,-1.7657,-1.7547,-1.503,-1.1189,-0.7437,-0.3589,-0.0274,-0.0068,0.0,0.0,0.0,0.0,0.0,0.0,0.0,0.0,0.0,0.0,0.0,0.0,0.0,0.0,0.0,0.0,0.0,0.0,0.0,0.0,0.0,0.0,0.0,0.0,0.0,0.0,0.0,0.0,0.0,0.0,0.0,0.0,0.0,0.0,0.0,0.0,0.0,0.0,0.0,0.0,0.0,0.0,0.0,0.0,0.0,0.0,0.0,0.0,0.0,0.0,-2.098,-2.1774,-2.2479,-2.2852,-2.3063,-2.3151,-2.3083,-2.2852,-2.259,-2.2004,-2.1564,-2.1143,-2.0648,-2.1197,-2.1862,-2.2323,-2.3171,-2.391,-2.4222,-2.444,-2.4406,-2.41,-2.4155,-2.4155,-2.4012,-2.4066,-2.4209,-2.444,-2.4351,-2.4528,-2.5091,-2.5233,-2.5342,-2.5464,-2.5498,-2.5443,-2.5287,-2.5145,-2.5057,-2.5023,-2.4894,-2.4813,-2.4724,-2.4507,-2.4277,-2.4053,-2.3788,-2.3592,-2.3363,-2.3293,-2.3219,-2.3219,-2.3219,-2.2558,-2.1565,-2.1526,-1.8995,-1.5421,-1.4453,-0.9717,-0.3701,-0.0886,0.0,0.0,0.0,0.0,0.0,0.0,0.0,0.0,0.0,0.0,0.0,0.0,0.0,0.0,0.0,0.0,0.0,0.0,0.0,0.0,0.0,0.0,0.0,0.0,0.0,0.0,0.0,0.0,0.0,0.0,0.0,0.0,0.0,0.0,0.0,0.0,0.0,0.0,0.0,0.0,0.0,0.0,0.0,0.0,0.0,0.0,0.0,0.0,0.0,0.0,-2.1726,-2.2391,-2.292,-2.3063,-2.3063,-2.292,-2.252,-2.2235,-2.1794,-2.0878,-2.0539,-2.0227,-1.9624,-2.0315,-2.1143,-2.1638,-2.2778,-2.3802,-2.4365,-2.465,-2.4738,-2.4616,-2.4636,-2.4636,-2.4528,-2.4473,-2.4562,-2.4826,-2.4582,-2.4629,-2.5111,-2.5199,-2.5267,-2.5355,-2.5355,-2.5287,-2.5145,-2.5057,-2.5023,-2.5023,-2.4935,-2.4826,-2.4684,-2.4453,-2.4189,-2.391,-2.368,-2.3483,-2.3347,-2.3259,-2.3219,-2.3219,-2.3219,-2.3171,-2.3083,-2.2961,-2.1508,-1.9308,-1.749,-1.4014,-0.9509,-0.4167,-0.2447,-0.2094,-0.0472,0.0,0.0,0.0,0.0,0.0,0.0,0.0,0.0,0.0,0.0,0.0,0.0,0.0,0.0,0.0,0.0,0.0,0.0,0.0,0.0,0.0,0.0,0.0,0.0,0.0,0.0,0.0,0.0,0.0,0.0,0.0,0.0,0.0,0.0,0.0,0.0,0.0,0.0,0.0,0.0,0.0,0.0,0.0,0.0,0.0,0.0,0.0,-2.2432,-2.2818,-2.3063,-2.3171,-2.2974,-2.2554,-2.1781,-2.1441,-2.0861,-1.961,-1.9413,-1.9371,-1.88,-1.94,-2.0261,-2.1034,-2.2269,-2.347,-2.4419,-2.4704,-2.4914,-2.5233,-2.5036,-2.4935,-2.507,-2.4826,-2.4826,-2.5233,-2.4982,-2.488,-2.5036,-2.5145,-2.5199,-2.5199,-2.5199,-2.5145,-2.5023,-2.5023,-2.5003,-2.4982,-2.4969,-2.4806,-2.4528,-2.4365,-2.4066,-2.37,-2.3524,-2.3309,-2.3259,-2.3219,-2.3219,-2.3219,-2.3219,-2.3205,-2.3171,-2.2907,-2.2784,-2.2295,-1.8711,-1.7357,-1.599,-0.8692,-0.5863,-0.4805,-0.1685,-0.0406,0.0,0.0,0.0,0.0,0.0,0.0,0.0,0.0,0.0,0.0,0.0,0.0,0.0,0.0,0.0,0.0,0.0,0.0,0.0,0.0,0.0,0.0,0.0,0.0,0.0,0.0,0.0,0.0,0.0,0.0,0.0,0.0,0.0,0.0,0.0,0.0,0.0,0.0,0.0,0.0,0.0,0.0,0.0,0.0,0.0,0.0,-2.2832,-2.3063,-2.3171,-2.3063,-2.2818,-2.2426,-2.1496,-2.0892,-2.0207,-1.9094,-1.8708,-1.8443,-1.8147,-1.885,-1.9834,-2.0702,-2.1936,-2.3117,-2.4385,-2.4704,-2.4948,-2.5376,-2.5376,-2.5355,-2.5389,-2.5213,-2.5199,-2.541,-2.5145,-2.5036,-2.5179,-2.5111,-2.5057,-2.5057,-2.5057,-2.5036,-2.5023,-2.5023,-2.4948,-2.4826,-2.4704,-2.4548,-2.431,-2.41,-2.3931,-2.3843,-2.3571,-2.3363,-2.3323,-2.3273,-2.3219,-2.3219,-2.3219,-2.3151,-2.3042,-2.2995,-2.2818,-2.2518,-2.1816,-2.1327,-1.9756,-1.2382,-0.7876,-0.5312,-0.4635,-0.2356,0.0,0.0,0.0,0.0,0.0,0.0,0.0,0.0,0.0,0.0,0.0,0.0,0.0,0.0,0.0,0.0,0.0,0.0,0.0,0.0,0.0,0.0,0.0,0.0,0.0,0.0,0.0,0.0,0.0,0.0,0.0,0.0,0.0,0.0,0.0,0.0,0.0,0.0,0.0,0.0,0.0,0.0,0.0,0.0,0.0,0.0,-2.3042,-2.3171,-2.3185,-2.3042,-2.2554,-2.1882,-2.0756,-2.0064,-1.9291,-1.8091,-1.7914,-1.7805,-1.7473,-1.8247,-1.9183,-1.9854,-2.0899,-2.2181,-2.3768,-2.4175,-2.4636,-2.5477,-2.564,-2.5694,-2.5694,-2.5552,-2.5498,-2.5566,-2.5301,-2.5159,-2.5233,-2.5091,-2.5023,-2.5023,-2.5023,-2.5023,-2.5023,-2.4948,-2.486,-2.4792,-2.4636,-2.444,-2.4229,-2.3999,-2.3802,-2.3646,-2.3436,-2.3327,-2.3255,-2.3259,-2.3219,-2.3219,-2.3219,-2.313,-2.2995,-2.292,-2.2744,-2.2603,-2.2466,-2.2201,-2.1341,-1.7777,-1.4093,-1.0256,-0.6509,-0.4164,-0.2421,-0.0539,0.0,0.0,0.0,0.0,0.0,0.0,0.0,0.0,0.0,0.0,0.0,0.0,0.0,0.0,0.0,0.0,0.0,0.0,0.0,0.0,0.0,0.0,0.0,0.0,0.0,0.0,0.0,0.0,0.0,0.0,0.0,0.0,0.0,0.0,0.0,0.0,0.0,0.0,0.0,0.0,0.0,0.0,0.0,0.0,-2.3137,-2.3219,-2.3171,-2.2961,-2.2269,-2.1299,-2.0064,-1.9291,-1.8498,-1.7236,-1.7263,-1.7352,-1.7087,-1.7717,-1.8498,-1.9094,-1.9976,-2.1231,-2.3025,-2.3646,-2.4297,-2.5498,-2.5742,-2.5817,-2.585,-2.5694,-2.5586,-2.5586,-2.5335,-2.5179,-2.5179,-2.507,-2.5023,-2.5023,-2.5023,-2.5023,-2.5023,-2.486,-2.4772,-2.4738,-2.4596,-2.4372,-2.4066,-2.391,-2.37,-2.3377,-2.3293,-2.3219,-2.3219,-2.3219,-2.3219,-2.3219,-2.3219,-2.3117,-2.294,-2.2832,-2.2656,-2.25,-2.2378,-2.216,-2.1916,-2.1903,-1.9237,-1.5072,-0.9386,-0.7175,-0.5971,-0.3092,-0.1749,-0.1144,-0.1146,-0.061,0.0,0.0,0.0,0.0,0.0,0.0,0.0,0.0,0.0,0.0,0.0,0.0,0.0,0.0,0.0,0.0,0.0,0.0,0.0,0.0,0.0,0.0,0.0,0.0,0.0,0.0,0.0,0.0,0.0,0.0,0.0,0.0,0.0,0.0,0.0,0.0,0.0,0.0,0.0,0.0,-2.3137,-2.3219,-2.3117,-2.2767,-2.2025,-2.1102,-1.9718,-1.8905,-1.8111,-1.7175,-1.7012,-1.7066,-1.7154,-1.7365,-1.7894,-1.9027,-1.9624,-2.0682,-2.2764,-2.3436,-2.4141,-2.5342,-2.5498,-2.5552,-2.5694,-2.5443,-2.5267,-2.5267,-2.5125,-2.5036,-2.5036,-2.5023,-2.5023,-2.5023,-2.5023,-2.5023,-2.5023,-2.486,-2.4724,-2.4658,-2.444,-2.4209,-2.391,-2.3768,-2.3612,-2.3377,-2.3293,-2.3219,-2.3219,-2.3219,-2.3219,-2.3219,-2.3219,-2.3049,-2.2798,-2.2784,-2.2608,-2.2288,-2.2337,-2.2235,-2.2072,-2.1937,-1.9237,-1.6004,-1.5343,-1.2799,-1.0119,-0.9785,-0.7375,-0.4907,-0.4872,-0.2445,0.0,0.0,0.0,0.0,0.0,0.0,0.0,0.0,0.0,0.0,0.0,0.0,0.0,0.0,0.0,0.0,0.0,0.0,0.0,0.0,0.0,0.0,0.0,0.0,0.0,0.0,0.0,0.0,0.0,0.0,0.0,0.0,0.0,0.0,0.0,0.0,0.0,0.0,0.0,0.0,-2.2798,-2.3029,-2.2995,-2.2534,-2.1652,-2.0614,-1.9535,-1.8528,-1.7683,-1.7107,-1.6978,-1.6998,-1.7053,-1.7114,-1.7426,-1.8267,-1.8477,-1.9203,-2.1123,-2.1774,-2.2642,-2.4209,-2.4704,-2.5091,-2.5518,-2.5443,-2.5335,-2.5233,-2.5111,-2.4982,-2.488,-2.488,-2.4935,-2.5023,-2.4847,-2.4792,-2.488,-2.465,-2.4453,-2.4297,-2.4141,-2.391,-2.3626,-2.3571,-2.3449,-2.3307,-2.3187,-2.3219,-2.3219,-2.3219,-2.3219,-2.3219,-2.3219,-2.3049,-2.2784,-2.2784,-2.2588,-2.2268,-2.2268,-2.2235,-2.2093,-2.2038,-2.0921,-1.9169,-1.6931,-1.5225,-1.3606,-1.1454,-0.9878,-0.8351,-0.6039,-0.2725,0.0,0.0,0.0,0.0,0.0,0.0,0.0,0.0,0.0,0.0,0.0,0.0,0.0,0.0,0.0,0.0,0.0,0.0,0.0,0.0,0.0,0.0,0.0,0.0,0.0,0.0,0.0,0.0,0.0,0.0,0.0,0.0,0.0,0.0,0.0,0.0,0.0,0.0,0.0,0.0,-2.2255,-2.2588,-2.2642,-2.2235,-2.1299,-2.0178,-1.9345,-1.8319,-1.7467,-1.7073,-1.6978,-1.6978,-1.6978,-1.6978,-1.7148,-1.765,-1.7792,-1.8366,-2.0036,-2.079,-2.1726,-2.3347,-2.391,-2.4419,-2.5077,-2.5213,-2.5213,-2.5111,-2.4969,-2.4847,-2.4724,-2.4684,-2.4738,-2.488,-2.467,-2.4616,-2.4724,-2.444,-2.4243,-2.4189,-2.3944,-2.3714,-2.3524,-2.3397,-2.3361,-2.3219,-2.3219,-2.3219,-2.3219,-2.3219,-2.3219,-2.3219,-2.3219,-2.3049,-2.2784,-2.2784,-2.2588,-2.2268,-2.2268,-2.2269,-2.216,-2.2127,-2.2038,-2.1448,-1.8763,-1.7959,-1.7399,-1.4858,-1.3506,-1.1642,-0.6676,-0.3564,-0.1383,-0.0278,0.0,0.0,0.0,0.0,0.0,0.0,0.0,0.0,0.0,0.0,0.0,0.0,-0.0913,-0.1259,-0.0139,-0.0971,-0.1242,-0.0136,0.0,0.0,0.0,0.0,0.0,0.0,0.0,0.0,0.0,0.0,0.0,0.0,0.0,0.0,0.0,0.0,0.0,0.0,0.0,0.0,-2.1475,-2.1903,-2.2038,-2.176,-2.1001,-2.0098,-1.9203,-1.8244,-1.7467,-1.7073,-1.6978,-1.6978,-1.6978,-1.6978,-1.708,-1.7378,-1.7879,-1.8776,-2.0139,-2.0902,-2.1882,-2.3083,-2.3239,-2.3465,-2.4202,-2.4629,-2.4792,-2.4792,-2.465,-2.4562,-2.4562,-2.444,-2.4419,-2.4562,-2.4562,-2.4562,-2.4562,-2.4277,-2.4189,-2.4276,-2.389,-2.368,-2.368,-2.3524,-2.3361,-2.3219,-2.3219,-2.3219,-2.3219,-2.3219,-2.3219,-2.3219,-2.3219,-2.3049,-2.2784,-2.2784,-2.2588,-2.2268,-2.2268,-2.2268,-2.2303,-2.216,-2.2113,-2.2079,-2.1869,-2.1774,-2.1639,-2.1774,-1.9241,-1.4752,-0.7339,-0.5467,-0.4617,-0.0911,0.0,0.0,0.0,0.0,0.0,0.0,0.0,0.0,0.0,0.0,0.0,0.0,-0.3164,-0.4187,-0.0486,-0.3256,-0.4135,-0.0409,0.0,0.0,0.0,0.0,0.0,0.0,0.0,0.0,0.0,0.0,0.0,0.0,0.0,0.0,0.0,0.0,0.0,0.0,0.0,0.0,-2.0153,-2.0594,-2.077,-2.0261,-1.9563,-1.8952,-1.8355,-1.7758,-1.727,-1.7032,-1.6978,-1.6978,-1.6978,-1.6978,-1.7243,-1.8057,-1.8335,-1.8864,-2.001,-2.0912,-2.1774,-2.2656,-2.3768,-2.4541,-2.4792,-2.4792,-2.4792,-2.4792,-2.465,-2.4528,-2.4419,-2.4365,-2.4419,-2.4562,-2.4372,-2.4317,-2.4419,-2.4229,-2.4087,-2.4033,-2.3788,-2.3626,-2.3524,-2.3361,-2.3273,-2.3219,-2.3219,-2.3219,-2.3219,-2.3219,-2.3171,-2.3083,-2.3083,-2.2886,-2.2692,-2.2692,-2.25,-2.2268,-2.2268,-2.2268,-2.2268,-2.222,-2.2269,-2.2249,-2.2215,-2.2025,-2.1828,-2.1862,-1.9172,-1.5127,-1.0396,-0.7311,-0.4519,-0.0905,0.0,0.0,0.0,-0.2031,-0.3853,-0.3941,-0.3862,-0.3862,-0.3978,-0.1771,-0.0848,-0.3464,-0.4865,-0.6107,-0.7455,-0.6478,-0.5141,-0.3928,-0.151,0.0,0.0,0.0,0.0,0.0,0.0,0.0,0.0,0.0,0.0,0.0,0.0,0.0,0.0,0.0,0.0,0.0,0.0,0.0,-1.8959,-1.9481,-1.9732,-1.9359,-1.885,-1.8355,-1.8004,-1.7514,-1.7154,-1.7012,-1.6978,-1.6978,-1.6978,-1.6978,-1.7195,-1.7846,-1.8179,-1.8687,-1.9624,-2.0627,-2.1638,-2.2608,-2.3843,-2.4596,-2.4596,-2.467,-2.4684,-2.4629,-2.4473,-2.4351,-2.4263,-2.4188,-2.4297,-2.4385,-2.4209,-2.4175,-2.4188,-2.4053,-2.3931,-2.389,-2.3626,-2.3483,-2.3377,-2.3293,-2.3219,-2.3219,-2.3219,-2.3219,0.0,-2.3171,-2.3117,-2.3083,-2.2974,-2.2798,-2.2642,-2.2644,-2.2466,-2.2268,-2.2268,-2.2268,-2.2268,-2.2268,-2.2303,-2.2249,-2.2249,-2.216,-2.2004,-2.1774,-2.0162,-1.7579,-1.3885,-1.136,-0.8742,-0.507,-0.4253,-0.4197,-0.4197,-0.6083,-0.7771,-0.7891,-0.7877,-0.7814,-0.7899,-0.5888,-0.5088,-0.7337,-0.8865,-1.0099,-1.1101,-1.0401,-0.8707,-0.5887,-0.352,-0.151,-0.0136,0.0,0.0,0.0,0.0,0.0,0.0,0.0,0.0,0.0,0.0,0.0,0.0,0.0,0.0,0.0,0.0,0.0,0.0,-1.8498,-1.885,-1.8816,-1.8498,-1.8124,-1.7846,-1.7453,0.0,-1.6992,-1.6958,-1.6965,-1.7005,-1.6985,-1.7005,-1.7121,-1.7724,-1.843,-1.9183,-2.0349,-2.1618,-2.294,-2.3592,-2.3944,-2.3944,-2.4317,-2.4494,-2.429,-2.4209,-2.4121,-2.4121,-2.4121,-2.4121,-2.4121,-2.4121,-2.4121,-2.41,-2.3843,-2.3768,-2.3877,-2.3449,-2.3255,-2.3377,-2.3293,-2.3219,-2.3219,-2.3219,-2.3219,-2.3205,-2.3083,-2.3097,-2.3171,-2.2886,-2.2764,-2.273,-2.2588,-2.2445,-2.2268,-2.2268,-2.2268,-2.2268,-2.2323,-2.2235,-2.2127,-2.2093,-2.2201,-2.2132,-2.1564,-2.1815,-2.1334,-1.7361,-1.656,-1.5818,-1.2068,-1.1233,-1.1233,-1.1233,-1.1445,-1.1602,-1.1754,-1.1764,-1.1793,-1.1803,-1.1542,-1.142,-1.156,-1.4501,-1.5559,-1.2416,-1.4717,-1.4049,-0.713,-0.5883,-0.4283,-0.11,-0.034,0.0,0.0,0.0,0.0,0.0,0.0,0.0,0.0,0.0,0.0,0.0,0.0,0.0,0.0,0.0,0.0,-1.6327,0.0,-1.7399,-1.7161,-1.7019,-1.6958,0.0,-1.6836,-1.67,-1.6736,-1.6714,-1.6768,-1.7229,-1.7039,-1.7216,-1.8477,-1.883,-1.9237,-2.0098,-2.1462,-2.273,-2.3734,-2.4175,-2.4406,-2.4406,-2.4406,-2.4385,-2.4276,-2.4209,-2.4121,-2.4121,-2.4121,-2.4121,-2.4121,-2.4121,-2.4066,-2.3944,-2.3999,-2.3924,-2.3734,-2.3626,-2.3524,-2.3377,-2.3293,-2.3219,-2.3219,-2.3219,-2.3219,-2.3219,-2.3185,-2.3063,-2.2873,-2.2818,-2.2642,-2.2376,-2.2411,-2.2308,-2.2268,-2.2268,-2.2268,-2.2254,-2.2201,-2.2215,-2.2235,-2.2004,-2.195,-2.195,-2.1815,-2.1882,-2.1161,-1.7414,-1.6507,-1.5662,-1.2057,-1.1233,-1.1233,-1.1233,-1.3389,-1.5444,-1.5683,-1.5575,-1.5575,-1.5698,-1.3232,-1.2189,-1.508,-1.6177,-1.7394,-1.9406,-1.7917,-1.6031,-1.4261,-0.9013,-0.6427,-0.8415,-0.3292,0.0,0.0,0.0,0.0,0.0,0.0,0.0,0.0,0.0,0.0,0.0,0.0,0.0,0.0,0.0,0.0,-1.5628,-1.63,-1.6937,-1.6775,-1.6781,-1.6849,-1.6931,-1.6727,-1.6473,-1.6493,-1.653,-1.6619,-1.6951,-1.7039,-1.7392,-1.8423,-1.8938,-1.9657,-2.0967,-2.2147,-2.3185,-2.4012,-2.4331,-2.446,-2.446,-2.433,-2.4235,-2.4243,-2.41,-2.4012,-2.4012,-2.4012,-2.4012,-2.4012,-2.4087,-2.4053,-2.389,-2.3978,-2.3877,-2.3571,-2.3571,-2.3483,-2.3347,-2.3259,-2.3219,-2.3219,-2.3219,-2.3219,-2.3205,-2.3083,-2.2974,-2.2873,-2.2656,-2.252,-2.2432,-2.2357,-2.2268,-2.2268,-2.2268,-2.2268,-2.2323,-2.2235,-2.2269,-2.2303,-2.2147,-2.2093,-2.2059,-2.1916,-2.1991,-2.1621,-1.961,-1.9115,-1.8679,-1.6719,-1.6363,-1.6442,-1.6338,-1.7961,-1.9425,-1.9571,-1.953,-1.9454,-1.9595,-1.779,-1.7117,-1.9157,-1.9326,-2.0051,-2.2161,-2.0557,-1.8626,-1.6872,-1.314,-1.0815,-1.1058,-0.7304,-0.5011,-0.5117,-0.5112,-0.5096,-0.4995,-0.5075,-0.4347,-0.2591,-0.2541,-0.1661,0.0,0.0,0.0,0.0,0.0,0.0,-1.5486,-1.6246,-1.6985,-1.687,-1.7005,-1.7154,-1.7127,-1.6795,-1.6463,-1.6361,-1.6422,-1.653,-1.6615,-1.7107,-1.7609,-1.8113,-1.8884,-2.0051,-2.1726,-2.2534,-2.3239,-2.3965,-2.4175,-2.4188,-2.4235,-2.4222,-2.4229,-2.41,-2.3965,-2.389,-2.389,-2.3877,-2.3877,-2.3931,-2.4033,-2.4012,-2.3856,-2.3877,-2.3748,-2.3377,-2.3377,-2.3361,-2.3219,-2.3219,-2.3219,-2.3219,-2.3219,-2.3219,-2.3205,-2.292,-2.2886,-2.294,-2.2534,-2.2432,-2.25,-2.2391,-2.2268,-2.2268,-2.2268,-2.2323,-2.2303,-2.2303,-2.2303,-2.2303,-2.2303,-2.2254,-2.222,-2.2025,-2.2147,-2.2303,-2.2181,-2.2235,-2.2268,-2.2268,-2.2432,-2.2479,-2.2357,-2.2432,-2.252,-2.252,-2.252,-2.252,-2.252,-2.252,-2.252,-2.252,-2.2411,-2.2378,-2.25,-2.2411,-2.1079,-1.7917,-1.7086,-1.565,-1.2857,-1.2092,-1.2054,-1.2795,-1.1753,-1.1037,-1.0901,-1.103,-0.9387,-0.5665,-0.5463,-0.3609,0.0,-0.0557,-0.0836,-0.084,-0.1463,-0.1741,-1.5839,-1.6558,-1.7012,-1.6374,-1.6619,-1.6978,-1.6797,-1.6571,-1.6368,-1.6469,-1.6408,-1.6571,-1.7284,-1.75,-1.8002,-1.9242,-2.0139,-2.1089,-2.2127,-2.2588,-2.3049,-2.368,-2.3768,-2.3877,-2.4141,-2.4033,-2.3944,-2.3931,-2.391,-2.389,-2.389,-2.3788,-2.3822,-2.4087,-2.3978,-2.3856,-2.3714,-2.3843,-2.3748,-2.3377,-2.3377,-2.3361,-2.3219,-2.3219,-2.3219,-2.3219,-2.3219,-2.3219,-2.3205,-2.3042,-2.2907,-2.2798,-2.2608,-2.2466,-2.2308,-2.2337,-2.2268,-2.2268,-2.2268,-2.2249,-2.2147,-2.2147,-2.2147,-2.2147,-2.2147,-2.2235,-2.2323,-2.222,-2.2303,-2.2268,-2.2303,-2.2254,-2.2268,-2.2268,-2.2288,-2.2308,-2.2337,-2.2288,-2.2378,-2.2378,-2.2378,-2.2378,-2.2378,-2.2378,-2.2378,-2.2378,-2.2288,-2.2337,-2.2308,-2.2288,-2.2054,-2.1501,-1.8626,-1.7735,-2.0177,-1.7468,-1.6941,-2.0034,-1.4277,-1.084,-1.0901,-1.0908,-0.9252,-0.5694,-0.5493,-0.3643,0.0,-0.3199,-0.4738,-0.4785,-0.8002,-0.9484,-1.552,-1.6198,-1.6768,-1.6561,-1.7141,-1.7772,-1.7575,-1.725,-1.7005,-1.6904,-1.6829,-1.6937,-1.7379,-1.7914,-1.8742,-2.0261,-2.1197,-2.1896,-2.2391,-2.2784,-2.3185,-2.3626,-2.368,-2.3802,-2.4087,-2.391,-2.3802,-2.389,-2.3748,-2.3646,-2.3646,-2.3666,-2.37,-2.3748,-2.3843,-2.3822,-2.368,-2.366,-2.3537,-2.3255,-2.3343,-2.3361,-2.3219,-2.3219,-2.3219,-2.3219,-2.3219,-2.3185,-2.3097,-2.294,-2.2798,-2.2712,-2.25,-2.2391,-2.2323,-2.2249,-2.2215,-2.2201,-2.2127,-2.2038,-2.2004,-2.2079,-2.2113,-2.2127,-2.2215,-2.222,-2.2268,-2.2268,-2.2268,-2.2268,-2.2268,-2.2268,-2.2268,-2.2268,-2.2391,-2.2432,-2.2288,-2.2391,-2.2432,-2.2288,-2.2268,-2.2268,-2.2268,-2.2268,-2.2357,-2.2445,-2.2445,-2.2445,-2.2445,-2.2445,-2.2432,-2.2337,-2.079,-2.0357,-2.1868,-2.0393,-2.0102,-2.1815,-1.8611,-1.6669,-1.6862,-1.6684,-1.4946,-1.1416,-1.1348,-0.9524,-0.5923,-0.7755,-0.8616,-0.8686,-1.0413,-1.1188,-1.5398,-1.5947,-1.653,-1.684,-1.7541,-1.8247,-1.8389,-1.7967,-1.7575,-1.7575,-1.7561,-1.7595,-1.7717,-1.8552,-1.9698,-2.1089,-2.195,-2.25,-2.2642,-2.2995,-2.3327,-2.3592,-2.3592,-2.37,-2.3999,-2.3788,-2.368,-2.3788,-2.3571,-2.3377,-2.3377,-2.3524,-2.3558,-2.3503,-2.37,-2.3734,-2.3626,-2.3503,-2.3323,-2.3273,-2.3289,-2.3327,-2.3219,-2.3219,-2.3205,-2.3171,-2.3171,-2.3097,-2.294,-2.2798,-2.2656,-2.2603,-2.2391,-2.2268,-2.2323,-2.2146,-2.216,-2.2147,-2.2025,-2.1971,-2.195,-2.2113,-2.2147,-2.2147,-2.2289,-2.2268,-2.2268,-2.2268,-2.2268,-2.2268,-2.2268,-2.2268,-2.2268,-2.2268,-2.2432,-2.2479,-2.2357,-2.2432,-2.2466,-2.2357,-2.2268,-2.2268,-2.2268,-2.2268,-2.2378,-2.2479,-2.25,-2.25,-2.25,-2.25,-2.2466,-2.2288,-2.2303,-2.216,-2.1862,-2.1828,-2.1828,-2.1828,-2.1794,-2.174,-2.1882,-2.1638,-1.9846,-1.6367,-1.6319,-1.4529,-1.0893,-1.1961,-1.2489,-1.2489,-1.3388,-1.3816,-1.6035,-1.6279,-1.6463,-1.7019,-1.7222,-1.7541,-1.8518,-1.8158,-1.7791,-1.8518,-1.8654,-1.8711,-1.8711,-1.9793,-2.0909,-2.153,-2.2269,-2.2798,-2.2961,-2.3117,-2.3273,-2.3377,-2.3347,-2.3381,-2.368,-2.3558,-2.3397,-2.3411,-2.3397,-2.3377,-2.3377,-2.3327,-2.3381,-2.3666,-2.3537,-2.3411,-2.3397,-2.3377,-2.3377,-2.3356,-2.3235,-2.3239,-2.3219,-2.3219,-2.3151,-2.3029,-2.3029,-2.294,-2.2784,-2.2642,-2.2644,-2.2603,-2.2391,-2.2268,-2.2268,-2.2323,-2.2323,-2.2254,-2.2303,-2.2215,-2.2127,-2.2269,-2.2235,-2.2147,-2.2289,-2.2268,-2.2268,-2.2268,-2.2268,-2.2268,-2.2268,-2.2268,-2.2268,-2.2268,-2.2337,-2.2288,-2.2268,-2.2337,-2.2288,-2.2268,-2.2268,-2.2268,-2.2268,-2.2268,-2.2268,-2.2288,-2.2288,-2.2288,-2.2288,-2.2288,-2.2288,-2.2268,-2.2215,-2.2004,-2.1706,-2.1686,-2.1686,-2.1686,-2.1739,-2.174,-2.1882,-2.174,-1.9963,-1.6384,-1.6284,-1.4493,-1.0884,-1.4609,-1.6382,-1.6382,-1.9872,-2.1488,-1.5506,-1.6015,-1.6544,-1.6958,-1.7412,-1.7948,-1.8728,-1.8905,-1.9061,-1.9624,-1.9657,-1.9624,-1.9712,-2.0526,-2.1353,-2.1862,-2.25,-2.2974,-2.3117,-2.3185,-2.3273,-2.3356,-2.3307,-2.3347,-2.3646,-2.3449,-2.3347,-2.3377,-2.3289,-2.3307,-2.3307,-2.3347,-2.3309,-2.3395,-2.3436,-2.3323,-2.3307,-2.3307,-2.3307,-2.3307,-2.3187,-2.3219,-2.3219,-2.3219,-2.3151,-2.3008,-2.3008,-2.2873,-2.2642,-2.2644,-2.25,-2.2411,-2.2357,-2.2268,-2.2254,-2.2127,-2.2059,-2.2038,-2.195,-2.1882,-2.1882,-2.2113,-2.216,-2.2147,-2.2289,-2.2268,-2.2268,-2.2268,-2.2268,-2.2268,-2.2268,-2.2268,-2.2268,-2.2268,-2.2268,-2.2268,-2.2268,-2.2268,-2.2268,-2.2268,-2.2268,-2.2268,-2.2268,-2.2268,-2.2308,-2.2466,-2.2466,-2.2466,-2.2466,-2.2466,-2.2445,-2.2288,-2.2201,-2.2059,-2.195,-2.1862,-2.1794,-2.1794,-2.1726,-2.174,-2.1882,-2.174,-2.1049,-1.9688,-1.9763,-1.9078,-1.7772,-1.9408,-2.0243,-2.0224,-2.1626,-2.2268,-1.5418,-1.5913,-1.6551,-1.6951,-1.7541,-1.8233,-1.9081,-1.9501,-1.9888,-2.0492,-2.0451,-2.0363,-2.0573,-2.1021,-2.153,-2.2025,-2.2567,-2.3008,-2.3185,-2.3219,-2.3259,-2.3361,-2.3293,-2.3307,-2.3524,-2.3347,-2.3259,-2.3361,-2.3273,-2.3219,-2.3219,-2.3255,-2.3255,-2.3219,-2.3255,-2.3255,-2.3219,-2.3219,-2.3219,-2.3219,-2.3219,-2.3219,-2.3219,-2.3219,-2.3117,-2.294,-2.294,-2.2764,-2.2479,-2.2479,-2.2432,-2.2268,-2.2268,-2.2268,-2.2303,-2.2059,-2.1991,-2.2004,-2.1862,-2.1848,-2.1916,-2.2113,-2.2181,-2.2201,-2.2303,-2.2268,-2.2268,-2.2268,-2.2268,-2.2268,-2.2268,-2.2268,-2.2268,-2.2268,-2.2268,-2.2268,-2.2268,-2.2268,-2.2268,-2.2268,-2.2268,-2.2268,-2.2268,-2.2268,-2.2378,-2.2466,-2.2479,-2.2479,-2.2479,-2.2479,-2.2432,-2.2289,-2.2215,-2.2147,-2.2038,-2.1991,-2.195,-2.195,-2.1815,-2.1774,-2.1882,-2.1794,-2.174,-2.174,-2.1882,-2.195,-2.195,-2.2215,-2.2268,-2.2268,-2.2268,-2.2357,-1.5901,-1.6076,-1.6456,-1.7046,-1.7541,-1.8289,-1.9576,-1.9936,-2.0139,-2.1034,-2.098,-2.0878,-2.1157,-2.1211,-2.1421,-2.2025,-2.2479,-2.2886,-2.3185,-2.3219,-2.3219,-2.3219,-2.3219,-2.3219,-2.3219,-2.3219,-2.3219,-2.3219,-2.3219,-2.3219,-2.3219,-2.3219,-2.3219,-2.3219,-2.3219,-2.3219,-2.3219,-2.3219,-2.3219,-2.3219,-2.3219,-2.3219,-2.3219,-2.3219,-2.3063,-2.2784,-2.2784,-2.2608,-2.2268,-2.2268,-2.2268,-2.2268,-2.2268,-2.2268,-2.2254,-2.216,-2.2201,-2.2254,-2.216,-2.2215,-2.2268,-2.2268,-2.2268,-2.2268,-2.2268,-2.2268,-2.2268,-2.2268,-2.2268,-2.2268,-2.2268,-2.2268,-2.2268,-2.2268,-2.2268,-2.2268,-2.2268,-2.2268,-2.2268,-2.2268,-2.2268,-2.2268,-2.2268,-2.2268,-2.2268,-2.2268,-2.2268,-2.2268,-2.2268,-2.2268,-2.222,-2.2127,-2.2249,-2.2215,-2.1916,-2.2025,-2.2113,-2.2113,-2.1971,-2.1882,-2.1882,-2.1882,-2.1882,-2.1882,-2.2038,-2.2113,-2.2113,-2.22,-2.2268,-2.2268,-2.2268,-2.2411,-1.554,-1.5988,-1.6605,-1.7202,-1.8253,-1.9371,-2.0031,-2.0349,-2.0756,-2.1652,-2.1774,-2.1672,-2.1564,-2.1618,-2.1815,-2.2146,-2.2554,-2.2886,-2.3185,-2.3219,-2.3219,-2.3219,-2.3219,-2.3219,-2.3219,-2.3219,-2.3219,-2.3219,-2.3219,-2.3219,-2.3219,-2.3219,-2.3219,-2.3219,-2.3219,-2.3219,-2.3219,-2.3219,-2.3219,-2.3219,-2.3219,-2.3219,-2.3219,-2.3117,-2.2974,-2.2784,-2.2676,-2.252,-2.2268,-2.2268,-2.2268,-2.2268,-2.2268,-2.2268,-2.2303,-2.2038,-2.2038,-2.216,-2.2004,-2.2059,-2.2201,-2.2303,-2.2268,-2.2268,-2.2268,-2.2268,-2.2268,-2.2268,-2.2268,-2.2268,-2.2268,-2.2268,-2.2268,-2.2268,-2.2268,-2.2268,-2.2268,-2.2268,-2.2268,-2.2268,-2.2268,-2.2268,-2.2268,-2.2268,-2.2378,-2.2479,-2.2411,-2.2268,-2.2268,-2.2268,-2.2254,-2.2269,-2.2303,-2.2303,-2.2215,-2.2249,-2.2235,-2.2113,-2.216,-2.2201,-2.2201,-2.2004,-2.1937,-2.2038,-2.2093,-2.2113,-2.2113,-2.22,-2.2268,-2.2268,-2.2268,-2.2357,-1.5967,-1.6578,-1.7317,-1.8036,-1.9027,-2.0031,-2.077,-2.1089,-2.1408,-2.2059,-2.2113,-2.2004,-2.195,-2.1903,-2.2004,-2.2357,-2.2567,-2.2798,-2.3097,-2.3083,-2.3097,-2.3205,-2.3171,-2.3151,-2.3219,-2.3219,-2.3219,-2.3219,-2.3219,-2.3219,-2.3219,-2.3219,-2.3219,-2.3219,-2.3219,-2.3219,-2.3219,-2.3219,-2.3185,-2.313,-2.313,-2.3097,-2.3049,-2.3029,-2.2886,-2.2676,-2.2534,-2.2411,-2.2268,-2.2268,-2.2268,-2.2268,-2.2268,-2.2268,-2.2303,-2.2059,-2.2072,-2.216,-2.195,-2.1991,-2.2127,-2.2215,-2.2249,-2.2249,-2.2254,-2.2268,-2.2268,-2.2268,-2.2268,-2.2268,-2.2268,-2.2268,-2.2268,-2.2268,-2.2268,-2.2268,-2.2268,-2.2268,-2.2268,-2.2268,-2.2268,-2.2268,-2.2268,-2.2268,-2.2308,-2.2466,-2.2391,-2.2268,-2.2268,-2.2268,-2.2268,-2.2268,-2.2268,-2.2268,-2.2268,-2.2268,-2.2303,-2.2201,-2.2235,-2.2269,-2.2268,-2.216,-2.2113,-2.2201,-2.2201,-2.2201,-2.2201,-2.2289,-2.2268,-2.2268,-2.2268,-2.2308,-1.6781,-1.748,-1.8287,-1.9217,-1.9834,-2.0526,-2.1652,-2.1903,-2.1971,-2.2269,-2.2127,-2.2025,-2.2289,-2.2113,-2.2059,-2.2556,-2.2624,-2.2656,-2.294,-2.2873,-2.2886,-2.3151,-2.3063,-2.3042,-2.3171,-2.3185,-2.3185,-2.3205,-2.3205,-2.3205,-2.3219,-2.3219,-2.3219,-2.3219,-2.3219,-2.3219,-2.3219,-2.3205,-2.313,-2.3008,-2.2995,-2.2907,-2.2764,-2.2907,-2.2818,-2.259,-2.2391,-2.2268,-2.2254,-2.2268,-2.2323,-2.2303,-2.2323,-2.2268,-2.2303,-2.216,-2.2201,-2.2269,-2.1991,-2.1971,-2.2093,-2.2093,-2.2093,-2.2127,-2.2269,-2.2323,-2.2268,-2.2268,-2.2268,-2.2268,-2.2268,-2.2268,-2.2268,-2.2268,-2.2268,-2.2268,-2.2268,-2.2268,-2.2268,-2.2268,-2.2268,-2.2268,-2.2268,-2.2268,-2.2268,-2.2268,-2.2268,-2.2268,-2.2268,-2.2268,-2.2268,-2.2268,-2.2268,-2.2268,-2.2268,-2.2268,-2.2268,-2.2268,-2.2215,-2.2201,-2.2268,-2.2323,-2.2323,-2.2268,-2.2268,-2.2268,-2.2268,-2.2268,-2.2268,-2.2268,-2.2268,-2.2411,-1.649,-1.7168,-1.8036,-1.9291,-2.0383,-2.1253,-2.1916,-2.1971,-2.1971,-2.2269,-2.2378,-2.2391,-2.2337,-2.222,-2.2303,-2.259,-2.2624,-2.2692,-2.2798,-2.2798,-2.2798,-2.2873,-2.2852,-2.2832,-2.2873,-2.2873,-2.292,-2.3049,-2.3063,-2.3097,-2.3219,-2.3219,-2.3219,-2.3219,-2.3219,-2.3219,-2.3219,-2.3117,-2.3042,-2.3008,-2.2886,-2.2744,-2.2608,-2.2642,-2.2554,-2.2378,-2.2288,-2.2269,-2.216,-2.2289,-2.2201,-2.2004,-2.2249,-2.2269,-2.216,-2.2127,-2.2127,-2.2127,-2.195,-2.1903,-2.1937,-2.1937,-2.2004,-2.2113,-2.2147,-2.2249,-2.2268,-2.2268,-2.2268,-2.2268,-2.2268,-2.2268,-2.2268,-2.2268,-2.2268,-2.2268,-2.2268,-2.2268,-2.2268,-2.2268,-2.2268,-2.2268,-2.2268,-2.2268,-2.2268,-2.2268,-2.2268,-2.2268,-2.2268,-2.2268,-2.2268,-2.2268,-2.2268,-2.2268,-2.2268,-2.2268,-2.2268,-2.2268,-2.2303,-2.2303,-2.2268,-2.2215,-2.2215,-2.2268,-2.2268,-2.2268,-2.2268,-2.2268,-2.2268,-2.2268,-2.2268,-2.2288,-1.6625,-1.7446,-1.8443,-2.001,-2.098,-2.1652,-2.2025,-2.2038,-2.2059,-2.2289,-2.2344,-2.2357,-2.2432,-2.2391,-2.2391,-2.2534,-2.25,-2.25,-2.2656,-2.2608,-2.2622,-2.2764,-2.271,-2.2767,-2.2784,-2.2784,-2.2818,-2.2886,-2.2907,-2.294,-2.3008,-2.3083,-2.3117,-2.3117,-2.3185,-2.3185,-2.3117,-2.3042,-2.294,-2.2784,-2.271,-2.2588,-2.2445,-2.2445,-2.2411,-2.2268,-2.2268,-2.2249,-2.2113,-2.2201,-2.2127,-2.2004,-2.2093,-2.216,-2.2201,-2.2059,-2.2038,-2.2079,-2.1862,-2.1774,-2.1794,-2.1862,-2.1937,-2.2025,-2.2181,-2.2269,-2.2268,-2.2268,-2.2268,-2.2268,-2.2268,-2.2391,-2.2432,-2.2288,-2.2268,-2.2268,-2.2268,-2.2268,-2.2268,-2.2268,-2.2268,-2.2268,-2.2268,-2.2268,-2.2268,-2.2268,-2.2268,-2.2268,-2.2268,-2.2268,-2.2268,-2.2268,-2.2269,-2.2249,-2.2268,-2.2201,-2.2181,-2.2323,-2.2269,-2.22,-2.2268,-2.22,-2.2249,-2.2268,-2.2268,-2.2268,-2.2268,-2.2268,-2.2268,-2.2268,-2.2268,-2.2268,-1.6666,-1.7792,-1.904,-2.0716,-2.1374,-2.1672,-2.1971,-2.2025,-2.2059,-2.2249,-2.2215,-2.2215,-2.2501,-2.2391,-2.2378,-2.2466,-2.2391,-2.2378,-2.25,-2.2411,-2.2425,-2.2676,-2.2588,-2.2567,-2.2696,-2.271,-2.271,-2.2744,-2.2744,-2.2744,-2.2784,-2.2907,-2.2974,-2.2974,-2.3083,-2.3083,-2.2974,-2.294,-2.2798,-2.2624,-2.2534,-2.2445,-2.2268,-2.2268,-2.2268,-2.2268,-2.2268,-2.2249,-2.2113,-2.2113,-2.2093,-2.2059,-2.195,-2.2079,-2.2269,-2.2025,-2.1991,-2.2038,-2.176,-2.1652,-2.1652,-2.1794,-2.1862,-2.1937,-2.2215,-2.2254,-2.2268,-2.2268,-2.2268,-2.2268,-2.2268,-2.2432,-2.2479,-2.2308,-2.2268,-2.2268,-2.2268,-2.2268,-2.2268,-2.2268,-2.2268,-2.2268,-2.2268,-2.2268,-2.2268,-2.2268,-2.2254,-2.2303,-2.2268,-2.2289,-2.2269,-2.2234,-2.216,-2.2127,-2.2249,-2.2025,-2.1991,-2.2249,-2.216,-2.216,-2.2289,-2.2323,-2.2268,-2.2268,-2.2268,-2.2268,-2.2268,-2.2268,-2.2268,-2.2268,-2.2268,-2.2268,-1.5901,-1.7541,-1.9393,-2.0539,-2.1055,-2.1353,-2.1652,-2.1618,-2.1585,-2.2059,-2.2235,-2.222,-2.2181,-2.2269,-2.2303,-2.2181,-2.2269,-2.2337,-2.2357,-2.2288,-2.2288,-2.2391,-2.2378,-2.2378,-2.2391,-2.2391,-2.2445,-2.2644,-2.2658,-2.2712,-2.2784,-2.2798,-2.2818,-2.2818,-2.2832,-2.2832,-2.2818,-2.2676,-2.2658,-2.2624,-2.2432,-2.2357,-2.2268,-2.2268,-2.2268,-2.2268,-2.2268,-2.2249,-2.2113,-2.2113,-2.2038,-2.1916,-2.2038,-2.2113,-2.2127,-2.2093,-2.2004,-2.1882,-2.1726,-2.1584,-2.1496,-2.1652,-2.1781,-2.1916,-2.2093,-2.2235,-2.2268,-2.2268,-2.2268,-2.2268,-2.2268,-2.2288,-2.2357,-2.2337,-2.2268,-2.2268,-2.2268,-2.2268,-2.2268,-2.2268,-2.2268,-2.2268,-2.2268,-2.2268,-2.2268,-2.2268,-2.2235,-2.2181,-2.2323,-2.2113,-2.1991,-2.2127,-2.2004,-2.1916,-2.1937,-2.1903,-2.1903,-2.1937,-2.2038,-2.2127,-2.2147,-2.2269,-2.2268,-2.2268,-2.2268,-2.2268,-2.2268,-2.2268,-2.2268,-2.2268,-2.2268,-2.2268,-1.6361,-1.7704,-1.9006,-2.0227,-2.0682,-2.0902,-2.1441,-2.1496,-2.1477,-2.1903,-2.2038,-2.2093,-2.2113,-2.216,-2.2181,-2.2127,-2.2235,-2.2268,-2.2268,-2.2269,-2.2215,-2.2215,-2.2215,-2.2215,-2.2215,-2.2215,-2.2235,-2.2303,-2.2303,-2.2344,-2.2411,-2.2567,-2.2656,-2.2656,-2.273,-2.2744,-2.2656,-2.2658,-2.252,-2.2432,-2.2308,-2.2268,-2.2268,-2.2268,-2.2268,-2.2268,-2.2268,-2.2249,-2.2113,-2.2113,-2.2079,-2.2004,-2.1991,-2.2093,-2.2146,-2.195,-2.1862,-2.1848,-2.1618,-2.155,-2.1597,-2.174,-2.1882,-2.2038,-2.2201,-2.222,-2.2268,-2.2268,-2.2268,-2.2268,-2.2268,-2.2391,-2.2445,-2.2357,-2.2391,-2.2432,-2.2288,-2.2268,-2.2268,-2.2268,-2.2268,-2.2268,-2.2268,-2.2268,-2.2303,-2.2215,-2.2147,-2.2113,-2.2093,-2.1971,-2.1903,-2.1971,-2.1848,-2.1794,-2.1882,-2.1726,-2.1706,-2.1862,-2.1862,-2.1903,-2.1991,-2.2038,-2.2079,-2.2079,-2.2249,-2.2268,-2.2268,-2.2268,-2.2268,-2.2268,-2.2268,-2.2268,-1.6456,-1.7378,-1.8179,-1.9481,-2.0098,-2.0462,-2.1023,-2.1265,-2.1408,-2.1706,-2.174,-2.1774,-2.1971,-2.2025,-2.2038,-2.2004,-2.2127,-2.2215,-2.2215,-2.2127,-2.2059,-2.2059,-2.2059,-2.2059,-2.2059,-2.2059,-2.2059,-2.2059,-2.2059,-2.2072,-2.2113,-2.2323,-2.2466,-2.25,-2.2608,-2.2622,-2.25,-2.25,-2.2445,-2.2268,-2.2268,-2.2268,-2.2268,-2.2268,-2.2268,-2.2268,-2.2268,-2.2269,-2.216,-2.2127,-2.2127,-2.2147,-2.195,-2.2038,-2.2235,-2.1828,-2.174,-2.1794,-2.1584,-2.1584,-2.1692,-2.1828,-2.1991,-2.2127,-2.2249,-2.2303,-2.2268,-2.2289,-2.2303,-2.2323,-2.2289,-2.2391,-2.2466,-2.2357,-2.2425,-2.2466,-2.2357,-2.2268,-2.2268,-2.2268,-2.2268,-2.2268,-2.2268,-2.2268,-2.222,-2.2127,-2.2079,-2.2004,-2.1903,-2.1815,-2.1774,-2.1828,-2.1706,-2.1652,-2.176,-2.1564,-2.153,-2.176,-2.1706,-2.1726,-2.1828,-2.1903,-2.1916,-2.1882,-2.2147,-2.222,-2.222,-2.2254,-2.2254,-2.222,-2.222,-2.222,-1.5255,-1.6056,-1.6904,-1.8124,-1.9169,-2.0031,-2.0422,-2.0804,-2.1109,-2.1341,-2.1353,-2.1333,-2.1638,-2.1815,-2.1848,-2.1726,-2.1815,-2.1903,-2.1903,-2.1903,-2.1903,-2.1903,-2.1903,-2.1903,-2.1903,-2.1903,-2.1903,-2.1903,-2.1903,-2.195,-2.2113,-2.2127,-2.2201,-2.2337,-2.2288,-2.2288,-2.2288,-2.2288,-2.2337,-2.2268,-2.2268,-2.2268,-2.2268,-2.2268,-2.2268,-2.2268,-2.2268,-2.2268,-2.2254,-2.216,-2.2201,-2.2234,-2.2004,-2.1991,-2.2093,-2.1774,-2.1672,-2.1739,-2.1672,-2.1672,-2.1692,-2.1828,-2.1991,-2.2113,-2.2127,-2.2215,-2.2303,-2.216,-2.2235,-2.2303,-2.216,-2.2235,-2.2288,-2.2268,-2.2337,-2.2288,-2.2268,-2.2268,-2.2268,-2.2268,-2.2268,-2.2268,-2.2268,-2.2268,-2.222,-2.2127,-2.1991,-2.1903,-2.1882,-2.1638,-2.1509,-2.1672,-2.155,-2.1389,-2.1455,-2.1389,-2.1441,-2.1389,-2.1597,-2.1672,-2.1686,-2.195,-2.2025,-2.1882,-2.2038,-2.2127,-2.2127,-2.2269,-2.22,-2.2127,-2.2127,-2.2127,-1.5045,-1.5533,-1.6117,-1.7419,-1.8321,-1.904,-1.9678,-2.0275,-2.077,-2.0967,-2.1055,-2.1109,-2.1211,-2.1516,-2.1794,-2.1739,-2.1794,-2.1882,-2.1882,-2.1815,-2.174,-2.174,-2.174,-2.174,-2.174,-2.174,-2.174,-2.174,-2.1828,-2.1903,-2.195,-2.2147,-2.222,-2.2268,-2.2268,-2.2268,-2.2268,-2.2268,-2.2268,-2.2268,-2.2268,-2.2268,-2.2268,-2.2268,-2.2268,-2.2268,-2.2268,-2.2268,-2.2268,-2.222,-2.2289,-2.2254,-2.2113,-2.2059,-2.2093,-2.1882,-2.1815,-2.1815,-2.1815,-2.1862,-2.1971,-2.2004,-2.2127,-2.2235,-2.2147,-2.2215,-2.222,-2.2038,-2.2147,-2.2303,-2.2147,-2.2215,-2.2268,-2.2268,-2.2268,-2.2268,-2.2268,-2.2268,-2.2268,-2.2268,-2.2249,-2.2215,-2.2323,-2.2181,-2.2059,-2.2113,-2.1903,-2.174,-2.174,-2.1564,-2.1455,-2.1509,-2.1409,-2.1375,-2.1375,-2.1375,-2.1375,-2.1375,-2.1496,-2.153,-2.153,-2.1618,-2.1652,-2.1597,-2.176,-2.1916,-2.2113,-2.216,-2.216,-2.2113,-2.2113,-2.2059,-1.4584,-1.4991,-1.556,-1.6809,-1.746,-1.807,-1.9115,-1.9698,-2.0139,-2.0539,-2.0736,-2.0878,-2.098,-2.1245,-2.1462,-2.1509,-2.1597,-2.1672,-2.1726,-2.1652,-2.1597,-2.1597,-2.1597,-2.1597,-2.1597,-2.1597,-2.1597,-2.1597,-2.1726,-2.1828,-2.1882,-2.2127,-2.222,-2.2268,-2.2268,-2.2268,-2.2268,-2.2289,-2.22,-2.22,-2.2215,-2.2215,-2.22,-2.22,-2.2289,-2.2268,-2.2268,-2.2268,-2.2268,-2.2268,-2.2268,-2.2323,-2.216,-2.2113,-2.2093,-2.1882,-2.1848,-2.1882,-2.1882,-2.1991,-2.2113,-2.2113,-2.2215,-2.2303,-2.2093,-2.2147,-2.2201,-2.1903,-2.2025,-2.2235,-2.2079,-2.2181,-2.2268,-2.2268,-2.2268,-2.2268,-2.2268,-2.2234,-2.22,-2.22,-2.2147,-2.2059,-2.216,-2.2025,-2.1903,-2.195,-2.1794,-2.1652,-2.1597,-2.1509,-2.1455,-2.1509,-2.1409,-2.1455,-2.1509,-2.1409,-2.1375,-2.1375,-2.1375,-2.1375,-2.1375,-2.1496,-2.1496,-2.1375,-2.1597,-2.176,-2.1971,-2.2004,-2.2038,-2.2038,-2.1991,-2.1937,0.0,0.0,0.0,-1.6212,-1.6592,-1.7194,-1.8762,-1.9027,-1.9203,-2.0098,-2.0397,-2.053,-2.0912,-2.098,-2.1034,-2.1177,-2.1197,-2.1265,-2.1408,-2.1421,-2.1421,-2.1375,-2.1375,-2.1375,-2.1375,-2.1375,-2.1375,-2.1375,-2.1584,-2.174,-2.1882,-2.2038,-2.2181,-2.2268,-2.2268,-2.2268,-2.2268,-2.2201,-2.2113,-2.2113,-2.195,-2.1971,-2.2113,-2.2113,-2.2201,-2.2268,-2.2268,-2.2268,-2.2268,-2.2268,-2.2268,-2.2323,-2.216,-2.2113,-2.2079,-2.1794,-2.1774,-2.1882,-2.1903,-2.1991,-2.2113,-2.2113,-2.2215,-2.222,-2.1971,-2.1991,-2.2038,-2.174,-2.1882,-2.2079,-2.1937,-2.2113,-2.2268,-2.2268,-2.2268,-2.2268,-2.2323,-2.2201,-2.2093,-2.2113,-2.1991,-2.1882,-2.1882,-2.1882,-2.1828,-2.1692,-2.1672,-2.1618,-2.1455,-2.1441,-2.1509,-2.1652,-2.153,-2.1509,-2.1652,-2.153,-2.1375,-2.1375,-2.1441,-2.1441,-2.1441,-2.1597,-2.1597,-2.1389,-2.1584,-2.1672,-2.1672,-2.1815,-2.1882,-2.1862,-2.1726,-2.174,-1.3788,0.0,0.0,0.0,0.0,0.0,-1.706,-1.7568,-1.8145,-1.9149,-1.9393,-1.961,-2.0241,-2.0438,-2.056,-2.0702,-2.0912,-2.1109,-2.1245,-2.119,-2.1197,-2.1355,-2.1333,-2.1319,-2.1421,-2.1375,-2.1375,-2.1375,-2.1584,-2.174,-2.1882,-2.2127,-2.2234,-2.2268,-2.2268,-2.2268,-2.2268,-2.2234,-2.2215,-2.2113,-2.2072,-2.2004,-2.195,-2.2059,-2.2127,-2.2181,-2.2289,-2.2268,-2.2268,-2.2268,-2.2268,-2.2323,-2.216,-2.2113,-2.2093,-2.2025,-2.2004,-2.2059,-2.2181,-2.2235,-2.2269,-2.2269,-2.2303,-2.222,-2.1971,-2.1991,-2.2025,-2.1618,-2.1794,-2.2127,-2.2201,-2.2269,-2.2303,-2.2201,-2.2181,-2.2147,-2.2038,-2.1903,-2.1862,-2.2072,-2.1991,-2.1882,-2.1882,-2.1706,-2.1618,-2.1794,-2.1638,-2.153,-2.1597,-2.1597,-2.1618,-2.1672,-2.1638,-2.1618,-2.1672,-2.153,-2.1375,-2.1375,-2.155,-2.1597,-2.1597,-2.1652,-2.1652,-2.1597,-2.155,-2.1509,-2.1509,-2.1652,-2.1794,-2.1726,-2.1584,-2.1584,-1.3973,-1.4204,-1.4539,-1.4965,0.0,0.0,-1.6585,-1.6924,-1.7378,-1.8552,-1.885,-1.9061,-1.9624,-1.9908,-2.0098,-2.0241,-2.0526,-2.0804,-2.1089,-2.1055,-2.1068,-2.1231,-2.1177,-2.1177,-2.1267,-2.1353,-2.1367,-2.1375,-2.1584,-2.176,-2.1971,-2.2146,-2.2268,-2.2268,-2.2268,-2.2268,-2.2268,-2.2269,-2.216,-2.2025,-2.195,-2.1916,-2.1882,-2.1916,-2.1991,-2.2113,-2.2201,-2.2249,-2.2249,-2.2254,-2.2268,-2.2323,-2.2235,-2.2201,-2.2201,-2.2127,-2.2147,-2.2215,-2.2235,-2.222,-2.2268,-2.2268,-2.2268,-2.2289,-2.2059,-2.2038,-2.2038,-2.172,-2.1862,-2.2147,-2.2303,-2.2289,-2.2215,-2.2127,-2.2059,-2.1991,-2.1903,-2.1815,-2.1794,-2.1903,-2.1815,-2.1706,-2.1706,-2.155,-2.1496,-2.1672,-2.1597,-2.155,-2.1564,-2.1638,-2.1692,-2.176,-2.1706,-2.1692,-2.176,-2.1618,-2.1509,-2.1441,-2.1584,-2.1638,-2.1584,-2.1686,-2.1706,-2.1584,-2.155,-2.1509,-2.1375,-2.153,-2.1597,-2.1672,-2.1706,-2.1774,-1.4299,-1.4536,-1.4931,-1.5397,-1.5343,0.0,-1.6646,-1.6673,-1.6795,-1.7981,-1.8409,-1.862,-1.8972,-1.9291,-1.9556,-1.9664,-1.9997,-2.0417,-2.0912,-2.0967,-2.0967,-2.1001,-2.098,-2.1034,-2.1177,-2.1197,-2.1265,-2.1341,-2.1584,-2.1815,-2.2079,-2.2249,-2.2268,-2.2268,-2.2268,-2.2268,-2.2254,-2.2181,-2.2025,-2.1862,-2.174,-2.174,-2.1828,-2.174,-2.1828,-2.2059,-2.2079,-2.2093,-2.2127,-2.2249,-2.2254,-2.2254,-2.2268,-2.2323,-2.2303,-2.2181,-2.2215,-2.2254,-2.216,-2.2215,-2.2268,-2.2303,-2.2303,-2.2303,-2.2113,-2.2079,-2.2059,-2.1916,-2.1991,-2.2147,-2.2303,-2.2235,-2.2113,-2.2093,-2.1971,-2.1848,-2.1828,-2.1828,-2.1794,-2.1672,-2.155,-2.1455,-2.1375,-2.1375,-2.1375,-2.1375,-2.1564,-2.1597,-2.1389,-2.1584,-2.174,-2.1862,-2.1781,-2.1774,-2.1903,-2.176,-2.1618,-2.1409,-2.1597,-2.1618,-2.1496,-2.174,-2.176,-2.1496,-2.1597,-2.1584,-2.1375,-2.1389,-2.153,-2.1739,-2.195,-2.2093,-1.5228,-1.5384,-1.5595,-1.5194,-1.5581,0.0,-1.5296,-1.5615,-1.613,-1.6639,-1.6856,-1.7161,-1.7771,-1.8244,-1.8552,-1.8464,-1.9203,-2.0031,-2.0716,-2.0702,-2.0716,-2.0967,-2.0892,-2.0878,-2.1034,-2.1143,-2.1231,-2.1245,-2.1618,-2.1862,-2.1916,-2.2181,-2.2268,-2.2268,-2.2268,-2.222,-2.216,-2.2127,-2.1971,-2.1706,-2.1794,-2.1726,-2.153,-2.174,-2.1815,-2.176,-2.1882,-2.2004,-2.2113,-2.2147,-2.216,-2.216,-2.2289,-2.22,-2.216,-2.22,-2.2254,-2.2254,-2.216,-2.2215,-2.2234,-2.2059,-2.2147,-2.22,-2.1882,-2.1828,-2.1916,-2.1882,-2.1991,-2.2147,-2.2303,-2.2235,-2.2079,-2.195,-2.1815,-2.1672,-2.155,-2.153,-2.1509,-2.1496,-2.1564,-2.1584,-2.1455,-2.1375,-2.1375,-2.1375,-2.1455,-2.1409,-2.1441,-2.1672,-2.1848,-2.1882,-2.1971,-2.2038,-2.2059,-2.1828,-2.1652,-2.1638,-2.1652,-2.1706,-2.1794,-2.1848,-2.1848,-2.1794,-2.1597,-2.1409,-2.1375,-2.1564,-2.1638,-2.1672,-2.1848,-2.1991,-1.5791,-1.5798,-1.5962,-1.5696,-1.5811,0.0,0.0,-1.5628,-1.5825,-1.6503,-1.6463,-1.651,-1.7188,-1.75,-1.7704,-1.7846,-1.862,-1.9405,-1.9773,-2.0207,-2.053,-2.075,-2.0702,-2.0716,-2.0878,-2.0946,-2.1055,-2.1197,-2.1496,-2.1726,-2.1882,-2.2093,-2.2235,-2.2235,-2.2303,-2.2235,-2.2004,-2.2079,-2.1971,-2.1672,-2.174,-2.174,-2.1652,-2.1672,-2.1706,-2.1774,-2.1774,-2.1862,-2.2004,-2.2079,-2.2059,-2.2025,-2.2249,-2.2289,-2.2235,-2.2303,-2.2289,-2.2235,-2.2215,-2.2215,-2.2215,-2.2127,-2.2215,-2.222,-2.1991,-2.1882,-2.1882,-2.1882,-2.1937,-2.2025,-2.2093,-2.2004,-2.1862,-2.1794,-2.1672,-2.153,-2.1389,-2.1375,-2.1375,-2.1375,-2.1509,-2.153,-2.1389,-2.1375,-2.1375,-2.1375,-2.1509,-2.155,-2.155,-2.174,-2.1916,-2.1991,-2.2059,-2.2113,-2.2113,-2.1903,-2.174,-2.1672,-2.1672,-2.1672,-2.1672,-2.1815,-2.1848,-2.1774,-2.155,-2.1375,-2.1375,-2.1597,-2.1706,-2.1774,-2.2004,-2.2147,-1.6432,-1.6307,-1.6435,-1.63,-1.6164,-1.604,0.0,0.0,0.0,-1.6449,-1.6252,-1.611,-1.6625,-1.6748,-1.689,-1.723,-1.8002,-1.8555,-1.8555,-1.9481,-2.0158,-2.0212,-2.0329,-2.0438,-2.0627,-2.0614,-2.0756,-2.1143,-2.1231,-2.1421,-2.1774,-2.1971,-2.2059,-2.2059,-2.2181,-2.2113,-2.1848,-2.1971,-2.1903,-2.1638,-2.1652,-2.1794,-2.1828,-2.1618,-2.1652,-2.1882,-2.176,-2.1774,-2.1903,-2.2025,-2.1991,-2.1916,-2.2181,-2.22,-2.2215,-2.2235,-2.2181,-2.2093,-2.2215,-2.2181,-2.2127,-2.2181,-2.2132,-2.2078,-2.2059,-2.1937,-2.1848,-2.1848,-2.1862,-2.1882,-2.1882,-2.1774,-2.1672,-2.1672,-2.155,-2.1375,-2.1375,-2.1375,-2.1375,-2.1375,-2.1375,-2.1389,-2.1475,-2.1496,-2.1496,-2.1463,-2.1638,-2.1706,-2.1706,-2.1828,-2.1971,-2.2059,-2.2093,-2.2093,-2.2072,-2.1937,-2.1794,-2.1739,-2.1638,-2.1584,-2.1496,-2.1706,-2.1794,-2.1672,-2.1509,-2.1375,-2.1375,-2.1597,-2.174,-2.1882,-2.216,-2.2289,-1.7412,-1.7548,-1.7582,-1.6402,-1.6863,-1.7141,-1.5303,0.0,-1.5852,-1.5357,0.0,-1.5547,-1.5702,0.0,0.0,-1.6232,-1.6998,-1.7575,-1.7575,-1.8375,-1.9061,-1.9325,-1.959,-1.9875,-2.0153,-2.0051,-2.0261,-2.0967,-2.079,-2.0827,-2.1455,-2.176,-2.1903,-2.1903,-2.1916,-2.1862,-2.1692,-2.1706,-2.1638,-2.1409,-2.1597,-2.1739,-2.1706,-2.1794,-2.1848,-2.1882,-2.1862,-2.1862,-2.1882,-2.1903,-2.1903,-2.1903,-2.2072,-2.1971,-2.176,-2.1882,-2.1916,-2.1916,-2.1937,-2.2004,-2.2072,-2.1828,-2.1652,-2.1497,-2.1686,-2.1706,-2.1692,-2.1692,-2.1781,-2.1882,-2.1882,-2.1774,-2.1672,-2.1672,-2.155,-2.1375,-2.1375,-2.1375,-2.1375,-2.1375,-2.1375,-2.1475,-2.1618,-2.1652,-2.1686,-2.1815,-2.1848,-2.1862,-2.1862,-2.1991,-2.2038,-2.1916,-2.2025,-2.2059,-2.1916,-2.1774,-2.1692,-2.1672,-2.155,-2.1509,-2.1638,-2.1672,-2.1692,-2.1672,-2.1509,-2.1375,-2.1375,-2.1597,-2.174,-2.1882,-2.2059,-2.2127,-1.7582,-1.7758,-1.788,-1.6951,-1.7039,-1.7053,-1.5913,-1.5601,-1.5595,-1.5541,0.0,0.0,0.0,0.0,0.0,0.0,-1.6429,-1.687,-1.6788,-1.7473,-1.8213,-1.8871,-1.9061,-1.9257,-1.9556,-1.9522,-1.9766,-2.0438,-2.0275,-2.0492,-2.1265,-2.1509,-2.1672,-2.176,-2.1848,-2.1774,-2.155,-2.1618,-2.1597,-2.1375,-2.1597,-2.1706,-2.1794,-2.1848,-2.1937,-2.2004,-2.1828,-2.1815,-2.1882,-2.1794,-2.176,-2.1774,-2.1916,-2.1903,-2.1794,-2.1862,-2.1828,-2.1774,-2.1848,-2.1862,-2.1848,-2.1815,-2.1686,-2.1584,-2.1652,-2.1597,-2.153,-2.153,-2.1584,-2.1618,-2.1618,-2.1584,-2.153,-2.153,-2.1496,-2.1375,-2.1375,-2.1375,-2.1375,-2.1375,-2.1375,-2.1496,-2.1705,-2.1597,-2.1564,-2.1618,-2.1618,-2.1652,-2.174,-2.1815,-2.1862,-2.1882,-2.1937,-2.195,-2.1882,-2.176,-2.1672,-2.1672,-2.153,-2.1409,-2.153,-2.153,-2.153,-2.153,-2.1409,-2.1375,-2.1375,-2.1509,-2.1618,-2.176,-2.1916,-2.1971,-1.786,-1.8002,-1.8124,-1.7229,-1.6992,-1.6809,-1.6151,-1.5737,-1.5547,-1.575,-1.5615,0.0,0.0,0.0,-1.5499,-1.5723,0.0,-1.6368,-1.6259,-1.6714,-1.7372,-1.8233,-1.8518,-1.8728,-1.8938,-1.8884,-1.9483,-2.1128,-2.1023,-2.1327,-2.2248,-2.2515,-2.2306,-2.1617,-2.1686,-2.1652,-2.1375,-2.1597,-2.1597,-2.1375,-2.1597,-2.174,-2.1882,-2.1848,-2.1937,-2.2093,-2.1882,-2.1828,-2.1882,-2.1774,-2.1706,-2.1672,-2.174,-2.176,-2.176,-2.1815,-2.174,-2.1638,-2.1774,-2.176,-2.1692,-2.1794,-2.1726,-2.1597,-2.1597,-2.153,-2.1375,-2.1375,-2.1375,-2.1375,-2.1375,-2.1375,-2.1375,-2.1375,-2.1375,-2.1375,-2.1375,-2.1375,-2.1375,-2.1375,-2.1375,-2.1475,-2.1584,-2.155,-2.1509,-2.1497,-2.1564,-2.1597,-2.1706,-2.1726,-2.176,-2.1815,-2.1828,-2.1815,-2.176,-2.1672,-2.1597,-2.1597,-2.1496,-2.1375,-2.1375,-2.1375,-2.1375,-2.1375,-2.1375,-2.1375,-2.1375,-2.1375,-2.1496,-2.1618,-2.176,-2.1828,-1.8531,-1.862,-1.8565,-1.6951,-1.6761,-1.6673,-1.5486,-1.5764,-1.6157,-1.5681,-1.6155,-1.656,-1.6341,-1.6157,-1.6056,0.0,-1.6083,0.0,0.0,-1.611,-1.6402,-1.7154,-1.7894,-1.8335,-1.8355,-1.8077,-1.9665,-2.3783,-2.3615,-2.3885,-2.5098,-2.5467,-2.4287,-2.1283,-2.1367,-2.1389,-2.1375,-2.1597,-2.1597,-2.1375,-2.1597,-2.174,-2.1882,-2.174,-2.1828,-2.2113,-2.2093,-2.2025,-2.1882,-2.1882,-2.1794,-2.1652,-2.1509,-2.1389,-2.1409,-2.1618,-2.1584,-2.1409,-2.1618,-2.1672,-2.1672,-2.1739,-2.1584,-2.1441,-2.1441,-2.1441,-2.1375,-2.1375,-2.1375,-2.1375,-2.1375,-2.1375,-2.1375,-2.1375,-2.1375,-2.1375,-2.1375,-2.1375,-2.1375,-2.1375,-2.1375,-2.1375,-2.1441,-2.1564,-2.1706,-2.1848,-2.1862,-2.1862,-2.1882,-2.1882,-2.1828,-2.1692,-2.1739,-2.1618,-2.1409,-2.1389,-2.1441,-2.1441,-2.1375,-2.1375,-2.1375,-2.1375,-2.1375,-2.1375,-2.1375,-2.1375,-2.1375,-2.1375,-2.1375,-2.1389,-2.1597,-2.1739,-1.8993,-1.9237,-1.9223,-1.7772,-1.7412,-1.708,-1.5778,-1.5913,-1.6151,-1.5601,-1.6246,-1.6754,-1.6252,-1.6117,-1.6049,0.0,-1.6064,-1.6015,0.0,-1.5872,-1.6112,-1.6415,-1.7032,-1.7514,-1.7704,-1.7717,-1.8517,-2.0474,-2.2618,-2.4282,-2.5271,-2.5693,-2.5483,-2.4566,-2.2461,-2.1375,-2.1375,-2.1496,-2.1496,-2.1375,-2.1597,-2.1692,-2.174,-2.1794,-2.1862,-2.195,-2.1862,-2.1794,-2.174,-2.1638,-2.1564,-2.153,-2.1584,-2.153,-2.1441,-2.1496,-2.1496,-2.1441,-2.1496,-2.1509,-2.1509,-2.1509,-2.1475,-2.1375,-2.1375,-2.1375,-2.1375,-2.1375,-2.1375,-2.1375,-2.1375,-2.1375,-2.1375,-2.1375,-2.1375,-2.1375,-2.1375,-2.1375,-2.1375,-2.1375,-2.1375,-2.1375,-2.1375,-2.1475,-2.153,-2.1584,-2.1584,-2.1584,-2.1584,-2.1584,-2.1564,-2.153,-2.1509,-2.1496,-2.1441,-2.1375,-2.1475,-2.1584,-2.1496,-2.1496,-2.1584,-2.1496,-2.1375,-2.1375,-2.1375,-2.1375,-2.1375,-2.1375,-2.1375,-2.1375,-2.1496,-2.1509,-1.9413,-1.961,-1.959,-1.8389,-1.8036,-1.7575,-1.6395,-1.6544,-1.6775,-1.6171,-1.6673,-1.7148,-1.6917,-1.6571,-1.6286,0.0,0.0,-1.5879,0.0,-1.5649,-1.5832,-1.603,-1.6483,-1.691,-1.7101,-1.7216,-1.8065,-1.9999,-2.231,-2.4007,-2.496,-2.5428,-2.5245,-2.4415,-2.2382,-2.1321,-2.1375,-2.1496,-2.1496,-2.1375,-2.1597,-2.1672,-2.1672,-2.1706,-2.176,-2.1794,-2.1706,-2.1706,-2.174,-2.1584,-2.155,-2.1597,-2.1597,-2.153,-2.1441,-2.1496,-2.1496,-2.1375,-2.1375,-2.1375,-2.1375,-2.1375,-2.1375,-2.1375,-2.1375,-2.1375,-2.1375,-2.1375,-2.1375,-2.1375,-2.1375,-2.1375,-2.1375,-2.1375,-2.1375,-2.1375,-2.1375,-2.1375,-2.1766,-2.3009,-2.3266,-2.3266,-2.3266,-2.3266,-2.2804,-2.156,-2.1375,-2.1375,-2.1375,-2.1375,-2.1375,-2.1375,-2.1375,-2.1375,-2.1375,-2.1375,-2.1509,-2.1719,-2.153,-2.1509,-2.1672,-2.153,-2.1455,-2.153,-2.1409,-2.1409,-2.153,-2.153,-2.1496,-2.1375,-2.1543,-2.1564]},{"header":{"parameterUnit":"m.s-1","parameterCategory":1,"la1":30.6,"la2":29.2853,"lo1":-89.7004,"lo2":-87.6739,"dy":0.0162,"dx":0.0183,"nx":112,"ny":82,"refTime":"2024-06-18T12:00:00:Z","depth":0,"parameterNumber":3,"parameterNumberName":"V-component_of_WINDS"},"data":[0.0,0.0,0.0,0.0,0.0,0.0,0.0,0.0,0.0,0.0,0.0,0.0,0.0,0.0,0.0,0.0,0.0,0.0,0.0,0.0,0.0,0.0,0.0,0.0,0.0,0.0,0.0,0.0,0.0,0.0,0.0,0.0,0.0,0.0,0.0,0.0,0.0,0.0,0.0,0.0,0.0,0.0,0.0,0.0,0.0,0.0,0.0,0.0,0.0,0.0,0.0,0.0,0.0,0.0,0.0,0.0,0.0,0.0,0.0,0.0,0.0,0.0,0.0,0.0,0.0,0.0,0.0,0.0,0.0,0.0,0.0,0.0,0.0,0.0,0.0,0.0,0.0,0.0,0.0,0.0,0.0,0.0,0.0,0.0,0.0,0.0,0.0,0.0,0.0,0.0,8.1708,8.6748,9.271,9.5365,9.3095,9.1595,8.6748,7.7207,0.0,0.0,0.0,0.0,0.0,0.0,0.0,0.0,0.0,0.0,0.0,0.0,0.0,0.0,0.0,0.0,0.0,0.0,0.0,0.0,0.0,0.0,0.0,0.0,0.0,0.0,0.0,0.0,0.0,0.0,0.0,0.0,0.0,0.0,0.0,0.0,0.0,0.0,0.0,0.0,0.0,0.0,0.0,0.0,0.0,0.0,0.0,0.0,0.0,0.0,0.0,0.0,0.0,0.0,0.0,0.0,0.0,0.0,0.0,0.0,0.0,0.0,0.0,0.0,0.0,0.0,0.0,0.0,0.0,0.0,0.0,0.0,0.0,0.0,0.0,0.0,0.0,0.0,0.0,0.0,0.0,0.0,0.0,0.0,0.0,0.0,0.0,0.0,0.0,0.0,0.0,0.0,0.0,0.0,0.0,0.0,0.0,0.0,0.0,0.0,0.0,0.0,0.0,0.0,8.3054,9.1633,9.4788,9.5826,9.472,9.1219,8.6247,7.9623,0.0,0.0,0.0,0.0,0.0,0.0,0.0,0.0,0.0,0.0,0.0,0.0,0.0,0.0,0.0,0.0,0.0,0.0,0.0,0.0,0.0,0.0,0.0,0.0,0.0,0.0,0.0,0.0,0.0,0.0,0.0,0.0,0.0,0.0,0.0,0.0,0.0,0.0,0.0,0.0,0.0,0.0,0.0,0.0,0.0,0.0,0.0,0.0,0.0,0.0,0.0,0.0,0.0,0.0,0.0,0.0,0.0,0.0,0.0,0.0,0.0,0.0,0.0,0.0,0.0,0.0,0.0,0.0,0.0,0.0,0.0,0.0,0.0,0.0,0.0,0.0,0.0,0.0,0.0,0.0,0.0,0.0,0.0,0.0,0.0,0.0,0.0,0.0,0.0,0.0,0.0,0.0,0.0,0.0,0.0,0.0,0.0,0.0,0.0,0.0,0.0,0.0,0.0,8.3324,8.7132,9.5557,9.6749,9.6403,9.5104,9.1142,8.5948,7.9515,7.4707,0.0,0.0,0.0,0.0,0.0,0.0,0.0,0.0,0.0,0.0,0.0,0.0,0.0,0.0,0.0,0.0,0.0,0.0,0.0,0.0,0.0,0.0,0.0,0.0,0.0,0.0,0.0,0.0,0.0,0.0,0.0,0.0,0.0,0.0,0.0,0.0,0.0,0.0,0.0,0.0,0.0,0.0,0.0,0.0,0.0,0.0,0.0,0.0,0.0,0.0,0.0,0.0,0.0,0.0,0.0,0.0,0.0,0.0,0.0,0.0,0.0,0.0,0.0,0.0,0.0,0.0,0.0,0.0,0.0,0.0,0.0,0.0,0.0,0.0,0.0,0.0,0.0,0.0,0.0,0.0,0.0,0.0,0.0,0.0,0.0,0.0,0.0,0.0,0.0,0.0,0.0,0.0,0.0,0.0,0.0,0.0,0.0,0.0,0.0,0.0,0.0,0.0,8.9594,9.1825,9.7865,9.7904,9.6826,9.5143,9.0372,8.4909,7.8869,7.2976,0.0,0.0,0.0,0.0,0.0,0.0,0.0,0.0,0.0,0.0,0.0,0.0,0.0,0.0,0.0,0.0,0.0,0.0,0.0,0.0,0.0,0.0,0.0,0.0,0.0,0.0,0.0,0.0,0.0,0.0,0.0,0.0,0.0,0.0,0.0,0.0,0.0,0.0,0.0,0.0,0.0,0.0,0.0,0.0,0.0,0.0,0.0,0.0,0.0,0.0,0.0,0.0,0.0,0.0,0.0,0.0,0.0,0.0,0.0,0.0,0.0,0.0,0.0,0.0,0.0,0.0,0.0,0.0,0.0,0.0,0.0,0.0,0.0,0.0,0.0,0.0,0.0,0.0,0.0,0.0,0.0,0.0,0.0,0.0,0.0,0.0,0.0,0.0,0.0,0.0,0.0,0.0,0.0,0.0,0.0,0.0,0.0,0.0,0.0,0.0,0.0,0.0,9.1402,9.6172,9.7442,9.7557,9.6826,9.5143,8.8218,8.2408,7.8715,7.079,0.0,0.0,0.0,0.0,0.0,0.0,0.0,0.0,0.0,0.0,0.0,0.0,0.0,0.0,0.0,0.0,0.0,0.0,0.0,0.0,0.0,0.0,0.0,0.0,0.0,0.0,0.0,0.0,0.0,0.0,0.0,0.0,0.0,0.0,0.0,0.0,0.0,0.0,0.0,0.0,0.0,0.0,0.0,0.0,0.0,0.0,0.0,0.0,0.0,0.0,0.0,0.0,0.0,0.0,0.0,0.0,0.0,0.0,0.0,0.0,0.0,0.0,0.0,0.0,0.0,0.0,0.0,0.0,0.0,0.0,0.0,0.0,0.0,0.0,0.0,0.0,0.0,0.0,0.0,0.0,0.0,0.0,0.0,0.0,0.0,0.0,0.0,0.0,0.0,0.0,0.0,0.0,0.0,0.0,0.0,0.0,0.0,0.0,0.0,0.0,0.0,0.0,9.0825,9.5249,9.875,9.8634,9.7403,9.5181,8.9949,8.4217,7.8138,0.0,0.0,0.0,0.0,0.0,0.0,0.0,0.0,0.0,0.0,0.0,0.0,0.0,0.0,0.0,0.0,0.0,0.0,0.0,0.0,0.0,0.0,0.0,0.0,0.0,0.0,0.0,0.0,0.0,0.0,0.0,0.0,0.0,0.0,0.0,0.0,0.0,0.0,0.0,0.0,0.0,0.0,0.0,0.0,0.0,0.0,0.0,0.0,0.0,0.0,0.0,0.0,0.0,0.0,0.0,0.0,0.0,0.0,0.0,0.0,0.0,0.0,0.0,0.0,0.0,0.0,0.0,0.0,0.0,0.0,0.0,0.0,0.0,0.0,0.0,0.0,0.0,0.0,0.0,0.0,0.0,0.0,0.0,0.0,0.0,0.0,0.0,0.0,0.0,0.0,0.0,0.0,0.0,0.0,0.0,0.0,0.0,0.0,0.0,0.0,0.0,0.0,8.644,9.1556,9.5826,9.9336,9.9183,9.7759,9.522,9.0141,8.4294,7.7715,0.0,0.0,0.0,0.0,0.0,0.0,0.0,0.0,0.0,0.0,0.0,0.0,0.0,0.0,0.0,0.0,0.0,0.0,0.0,0.0,0.0,0.0,0.0,0.0,0.0,0.0,0.0,0.0,0.0,0.0,0.0,0.0,0.0,0.0,0.0,0.0,0.0,0.0,0.0,0.0,0.0,0.0,0.0,0.0,0.0,0.0,0.0,0.0,0.0,0.0,0.0,0.0,0.0,0.0,0.0,0.0,0.0,0.0,0.0,0.0,0.0,0.0,0.0,0.0,0.0,0.0,0.0,0.0,0.0,0.0,0.0,0.0,0.0,0.0,0.0,0.0,0.0,0.0,0.0,0.0,0.0,0.0,0.0,0.0,0.0,0.0,0.0,0.0,0.0,0.0,0.0,0.0,0.0,0.0,0.0,0.0,0.0,0.0,0.0,0.0,0.0,0.0,8.6786,9.4095,9.8788,9.8827,9.8788,9.7759,9.522,8.8025,8.1831,0.0,0.0,0.0,0.0,0.0,0.0,0.0,0.0,0.0,0.0,0.0,0.0,0.0,0.0,0.0,0.0,0.0,0.0,0.0,0.0,0.0,0.0,0.0,0.0,0.0,0.0,0.0,0.0,0.0,0.0,0.0,0.0,0.0,0.0,0.0,0.0,0.0,0.0,0.0,0.0,0.0,0.0,0.0,0.0,0.0,0.0,0.0,0.0,0.0,0.0,0.0,0.0,0.0,0.0,0.0,0.0,0.0,0.0,0.0,0.0,0.0,0.0,0.0,0.0,0.0,0.0,0.0,0.0,0.0,0.0,0.0,0.0,0.0,0.0,0.0,0.0,0.0,0.0,0.0,0.0,0.0,0.0,0.0,0.0,0.0,0.0,0.0,0.0,0.0,0.0,0.0,0.0,0.0,0.0,0.0,0.0,0.0,0.0,0.0,0.0,0.0,0.0,0.0,8.8432,9.4788,9.925,10.0404,9.9519,9.8019,9.6095,9.0565,8.4371,7.7715,0.0,0.0,0.0,0.0,0.0,0.0,0.0,0.0,0.0,0.0,0.0,0.0,0.0,0.0,0.0,0.0,0.0,0.0,0.0,0.0,0.0,0.0,0.0,0.0,0.0,0.0,0.0,0.0,0.0,0.0,0.0,0.0,0.0,0.0,0.0,0.0,0.0,0.0,0.0,0.0,0.0,0.0,0.0,0.0,0.0,0.0,0.0,0.0,0.0,0.0,0.0,0.0,0.0,0.0,0.0,0.0,0.0,0.0,0.0,0.0,0.0,0.0,0.0,0.0,0.0,0.0,0.0,0.0,0.0,0.0,0.0,0.0,0.0,0.0,0.0,0.0,0.0,0.0,0.0,0.0,0.0,0.0,0.0,0.0,0.0,0.0,0.0,0.0,0.0,0.0,0.0,0.0,0.0,0.0,0.0,0.0,0.0,0.0,0.0,0.0,0.0,0.0,8.9624,9.5326,9.9442,10.1087,10.0096,9.8634,9.6903,9.2749,8.7102,7.9754,0.0,0.0,0.0,0.0,0.0,0.0,0.0,0.0,0.0,0.0,0.0,0.0,0.0,0.0,0.0,0.0,0.0,0.0,0.0,0.0,0.0,0.0,0.0,0.0,0.0,0.0,0.0,0.0,0.0,0.0,0.0,0.0,0.0,0.0,0.0,0.0,0.0,0.0,0.0,0.0,0.0,0.0,0.0,0.0,0.0,0.0,0.0,0.0,0.0,0.0,0.0,0.0,0.0,0.0,0.0,0.0,0.0,0.0,0.0,0.0,0.0,0.0,0.0,0.0,0.0,0.0,0.0,0.0,0.0,0.0,0.0,0.0,0.0,0.0,0.0,0.0,0.0,0.0,0.0,0.0,0.0,0.0,0.0,0.0,0.0,0.0,0.0,0.0,0.0,0.0,0.0,0.0,0.0,0.0,0.0,0.0,0.0,0.0,0.0,0.0,0.0,0.0,9.0479,9.5788,9.9596,10.1404,10.0712,9.9452,9.7865,9.4595,8.9748,8.3054,0.0,0.0,0.0,0.0,0.0,0.0,0.0,0.0,0.0,0.0,0.0,0.0,0.0,0.0,0.0,0.0,0.0,0.0,0.0,0.0,0.0,0.0,0.0,0.0,0.0,0.0,0.0,0.0,0.0,0.0,0.0,0.0,0.0,0.0,0.0,0.0,0.0,0.0,0.0,0.0,0.0,0.0,0.0,0.0,0.0,0.0,0.0,0.0,0.0,0.0,0.0,0.0,0.0,0.0,0.0,0.0,0.0,0.0,0.0,0.0,8.3093,7.9631,0.0,0.0,0.0,0.0,0.0,0.0,0.0,0.0,0.0,0.0,0.0,0.0,0.0,0.0,0.0,0.0,0.0,0.0,0.0,0.0,0.0,0.0,0.0,0.0,0.0,0.0,0.0,0.0,0.0,0.0,0.0,0.0,0.0,0.0,0.0,0.0,0.0,0.0,0.0,0.0,9.1441,9.6673,10.0712,10.3097,10.1414,9.9952,9.9567,9.5797,9.1095,8.5632,8.0362,0.0,0.0,0.0,0.0,0.0,0.0,0.0,0.0,0.0,0.0,0.0,0.0,0.0,0.0,0.0,0.0,0.0,0.0,0.0,0.0,0.0,0.0,0.0,0.0,0.0,0.0,0.0,0.0,0.0,0.0,0.0,0.0,0.0,0.0,0.0,0.0,0.0,0.0,0.0,0.0,0.0,0.0,0.0,0.0,0.0,0.0,0.0,0.0,0.0,0.0,0.0,0.0,0.0,0.0,0.0,0.0,0.0,0.0,0.0,9.1864,8.7786,0.0,0.0,0.0,0.0,0.0,0.0,0.0,0.0,0.0,0.0,0.0,0.0,0.0,0.0,0.0,0.0,0.0,0.0,0.0,0.0,0.0,0.0,0.0,0.0,0.0,0.0,0.0,0.0,0.0,0.0,0.0,0.0,0.0,0.0,0.0,0.0,0.0,0.0,0.0,0.0,9.2835,9.7451,10.1106,10.3597,10.1981,10.0481,10.0106,9.7682,9.4134,8.9479,8.4747,0.0,0.0,0.0,0.0,0.0,0.0,0.0,0.0,0.0,0.0,0.0,0.0,0.0,0.0,0.0,0.0,0.0,0.0,0.0,0.0,0.0,0.0,0.0,0.0,0.0,0.0,0.0,0.0,0.0,0.0,0.0,0.0,0.0,0.0,0.0,0.0,0.0,0.0,0.0,0.0,0.0,0.0,0.0,0.0,0.0,0.0,0.0,0.0,0.0,0.0,0.0,0.0,0.0,10.2404,10.3482,10.7405,10.3905,10.4597,10.829,10.1779,9.798,9.5951,9.0979,0.0,0.0,0.0,0.0,0.0,0.0,0.0,0.0,0.0,0.0,0.0,0.0,0.0,0.0,0.0,0.0,0.0,0.0,0.0,0.0,0.0,0.0,9.3086,9.5172,9.6788,9.5288,8.6017,0.0,0.0,0.0,0.0,0.0,0.0,0.0,0.0,0.0,0.0,0.0,9.4527,9.8567,10.1606,10.3712,10.252,10.1212,10.0414,9.9529,9.7403,9.3595,8.9517,8.5132,0.0,0.0,0.0,0.0,0.0,0.0,0.0,0.0,0.0,0.0,0.0,0.0,0.0,0.0,0.0,0.0,0.0,0.0,0.0,0.0,0.0,0.0,0.0,0.0,0.0,0.0,0.0,0.0,0.0,0.0,0.0,0.0,8.644,8.8355,0.0,0.0,0.0,0.0,0.0,0.0,0.0,0.0,0.0,0.0,0.0,0.0,0.0,10.5905,10.8482,11.0791,11.2483,11.3599,11.5407,11.6599,11.7215,11.6715,11.6792,11.7292,11.5599,0.0,10.1289,9.6903,0.0,0.0,0.0,0.0,0.0,0.0,0.0,0.0,0.0,0.0,0.0,0.0,0.0,0.0,0.0,0.0,0.0,0.0,0.0,0.0,0.0,0.0,10.3212,10.3491,10.3799,10.3289,10.1212,9.2749,8.517,8.3662,8.0477,7.7561,0.0,0.0,0.0,0.0,0.0,0.0,9.648,10.0789,10.3482,10.3915,10.2981,10.2097,10.1212,10.0404,9.9067,9.698,9.3595,9.0364,8.7487,8.2054,0.0,0.0,0.0,0.0,0.0,0.0,0.0,0.0,0.0,0.0,0.0,0.0,0.0,0.0,0.0,0.0,0.0,0.0,0.0,0.0,0.0,0.0,0.0,0.0,0.0,0.0,0.0,0.0,0.0,8.7017,9.1056,9.1325,9.2326,9.1938,0.0,0.0,0.0,0.0,0.0,0.0,0.0,0.0,0.0,11.1889,11.2981,11.4887,11.7619,11.9203,12.0514,12.1603,12.2719,12.3486,12.3913,12.3409,12.3215,12.309,12.1811,11.8105,11.2615,10.5609,10.0404,9.6586,0.0,0.0,0.0,0.0,9.5172,9.5643,9.9327,9.9173,9.7173,9.6019,0.0,0.0,0.0,0.0,0.0,0.0,0.0,9.6134,9.9673,10.3212,10.6405,10.879,10.8983,10.8713,10.879,10.3289,9.6865,9.221,8.9787,8.6863,8.1716,8.0939,0.0,0.0,0.0,9.4249,9.8442,10.2212,10.4607,10.4607,10.3405,10.2404,10.2097,10.1289,10.0019,9.8327,9.6403,9.3941,9.0941,8.7401,8.3585,0.0,0.0,0.0,0.0,0.0,0.0,0.0,0.0,0.0,0.0,0.0,0.0,0.0,0.0,0.0,0.0,0.0,0.0,0.0,0.0,0.0,0.0,0.0,0.0,0.0,0.0,0.0,0.0,9.272,9.6035,9.4775,9.7657,9.7982,0.0,0.0,0.0,0.0,0.0,0.0,11.1602,11.3513,11.6487,12.12,12.1886,12.3415,12.5779,12.6205,12.6787,12.7718,12.7484,12.7712,12.8296,12.7712,12.7401,12.7317,12.5805,12.4209,12.1911,11.3404,10.7615,10.3907,10.1297,9.9829,9.9442,10.2207,10.2902,10.322,10.7906,10.8099,10.5984,10.4177,10.1482,9.8322,9.4087,0.0,0.0,0.0,0.0,10.0808,10.4992,10.7288,10.9405,11.2695,11.3011,11.2701,11.3285,11.1214,10.729,10.0519,9.8173,9.5172,8.8641,8.7478,0.0,8.8363,9.3095,9.7827,10.1299,10.4097,10.5713,10.5482,10.4097,10.3097,10.2597,10.202,10.0904,9.9259,9.8327,9.6596,9.3903,9.1902,8.8902,8.467,0.0,0.0,0.0,0.0,0.0,0.0,0.0,0.0,0.0,0.0,0.0,0.0,0.0,0.0,0.0,0.0,0.0,0.0,0.0,0.0,0.0,0.0,0.0,0.0,0.0,0.0,0.0,0.0,0.0,10.0684,10.5593,0.0,0.0,0.0,0.0,10.7793,11.1913,11.6188,12.0502,12.308,12.6016,12.9502,13.0412,13.1301,13.2319,13.1496,13.1191,13.1203,13.038,12.999,13.0107,12.999,12.999,12.999,12.8991,12.7706,12.5604,11.8593,11.4189,11.1582,10.8994,10.7481,10.6892,10.7899,10.8712,10.948,11.0598,11.0409,10.9908,11.2183,11.0097,10.6386,10.4479,10.2111,0.0,0.0,10.4619,10.7202,11.0988,11.3189,11.4698,11.5406,11.5501,11.541,11.518,11.4407,11.2406,10.7982,10.3212,9.9529,9.825,0.0,9.5297,9.775,9.975,10.2202,10.5587,10.7021,10.729,10.6395,10.5482,10.4289,10.2712,10.2597,10.1789,10.0106,9.9221,9.8288,9.7288,9.4826,9.2633,9.0787,8.5055,0.0,0.0,0.0,0.0,0.0,0.0,0.0,0.0,0.0,0.0,0.0,0.0,0.0,0.0,0.0,0.0,0.0,0.0,0.0,0.0,0.0,0.0,0.0,0.0,0.0,0.0,0.0,0.0,10.8284,11.3088,0.0,11.0587,11.2793,11.5291,11.7188,12.1291,12.539,12.9215,13.1118,13.2802,13.4592,13.5291,13.5213,13.4397,13.4709,13.4485,13.3891,13.3618,13.3501,13.3501,13.3501,13.2986,13.2109,13.1797,13.0499,12.8381,12.5381,12.15,11.7218,11.6289,11.5082,11.3914,11.4215,11.4405,11.4711,11.5012,11.4584,11.3888,11.3694,11.2186,11.0488,10.9788,10.8982,10.8416,10.9685,11.0989,11.2514,11.4401,11.5702,11.6602,11.6714,11.6805,11.6804,11.6708,11.5987,11.4978,11.3519,11.0084,10.629,10.2712,10.2212,10.2097,10.1404,10.4097,10.679,10.8598,10.9598,10.979,10.8906,10.7098,10.5482,10.4289,10.2712,10.1019,9.9375,9.8442,9.7596,9.6749,9.5865,9.4326,9.2095,8.9402,8.5286,0.0,0.0,0.0,0.0,0.0,0.0,0.0,0.0,0.0,0.0,0.0,0.0,0.0,0.0,0.0,0.0,0.0,0.0,0.0,0.0,0.0,0.0,0.0,0.0,0.0,10.9319,11.438,11.4387,11.9494,12.1603,11.8008,12.1101,12.4007,12.6015,12.9492,13.289,13.5781,13.6813,13.7681,13.8618,13.8916,13.8615,13.7382,13.7296,13.6908,13.6309,13.5614,13.5316,13.5316,13.5316,13.4717,13.3616,13.3616,13.2605,13.0703,12.9804,12.6887,12.2789,12.1615,12.0289,11.9002,11.8683,11.8605,11.8484,11.8204,11.7619,11.6687,11.5602,11.4786,11.4283,11.401,11.3885,11.3884,11.4613,11.5085,11.5707,11.6707,11.7303,11.7713,11.7599,11.758,11.7518,11.7381,11.7014,11.6586,11.6586,11.4212,11.0979,10.7693,10.7811,10.7786,10.6503,10.8685,11.0803,11.1692,11.2001,11.1693,11.0893,10.8903,10.6982,10.5213,10.3289,10.1289,9.9375,9.8134,9.7134,9.6326,9.5749,9.4634,9.2941,9.1286,8.7989,8.2919,0.0,0.0,0.0,0.0,0.0,0.0,0.0,0.0,0.0,0.0,0.0,0.0,0.0,0.0,0.0,0.0,0.0,0.0,0.0,0.0,0.0,0.0,0.0,10.8187,11.5619,12.0507,11.8906,12.4687,12.7187,12.3008,12.8008,13.2109,13.3789,13.6289,13.8398,14.0195,14.0312,14.0703,14.1484,14.1601,14.1484,14.1484,13.9512,13.8501,13.8412,13.6415,13.54,13.54,13.54,13.5107,13.4513,13.4513,13.3815,13.25,13.1601,13.0195,12.8281,12.4883,12.3086,12.2187,12.1289,12.0898,12.0781,11.9883,11.8984,11.8281,11.8281,11.8281,11.8086,11.7304,11.6892,11.6686,11.6989,11.6891,11.6884,11.8005,11.8281,11.82,11.8011,11.7903,11.7784,11.7488,11.7391,11.7391,11.7391,11.5198,11.3395,11.3606,11.2815,11.2379,11.3495,11.3694,0.0,11.4895,11.3992,11.3018,11.2088,11.1017,10.8891,10.5504,10.4378,10.28,10.0307,9.8451,9.7142,9.6411,9.4717,9.3841,9.3841,9.0759,8.8375,8.6737,0.0,0.0,0.0,0.0,0.0,0.0,0.0,0.0,0.0,0.0,0.0,0.0,0.0,0.0,0.0,0.0,0.0,0.0,0.0,0.0,0.0,11.0911,11.5807,11.4792,12.0696,12.5711,12.7117,13.0809,13.3008,13.25,13.4492,13.6289,13.7382,13.8711,14.0195,14.1992,14.2109,14.2187,14.2382,14.3007,14.261,14.1106,14.1105,14.0385,13.8902,13.8306,13.7709,13.7087,13.7087,13.652,13.5414,13.5414,13.4713,13.3398,13.25,13.1484,13.0195,12.7383,12.539,12.3984,12.3086,12.1992,12.0781,11.9883,11.9414,11.9101,11.8515,11.8281,11.8281,11.8008,11.7889,11.7807,11.789,11.7889,11.7885,11.8203,11.8281,11.8281,11.8197,11.8194,11.8191,11.8095,11.8091,11.8091,11.8091,11.7292,11.6391,11.5606,11.5206,11.5098,11.5385,11.5512,11.5785,11.6591,11.59,11.5307,11.499,11.301,11.0815,10.8686,10.6,10.3399,10.0791,9.8411,9.7324,9.7718,9.667,9.6398,9.7031,9.4382,9.2768,0.0,0.0,0.0,0.0,0.0,0.0,0.0,0.0,0.0,0.0,0.0,0.0,0.0,0.0,0.0,0.0,0.0,0.0,0.0,0.0,0.0,0.0,11.719,12.2205,12.2816,12.6187,12.9692,13.2481,13.4594,13.6393,13.7812,13.8711,13.9609,14.0507,14.1289,14.2382,14.3789,14.3789,14.3789,14.3789,14.4297,14.3785,14.2183,14.2212,14.1614,14.0415,13.9894,13.9201,13.83,13.83,13.7422,13.5805,13.5805,13.4989,13.3711,13.289,13.1992,13.1015,0.0,0.0,0.0,0.0,12.3203,12.1914,12.1015,12.0195,11.9492,11.8984,11.8593,11.8281,11.8281,11.8281,11.8281,11.8281,11.8281,11.8281,11.8281,11.8281,11.8281,11.8281,11.8281,11.8281,11.8281,11.8281,11.8281,11.8281,11.8192,0.0,11.7214,11.7015,11.6988,11.7111,11.7082,11.7199,11.77,11.7284,11.6802,11.6408,11.4918,11.2988,11.0497,10.7894,0.0,0.0,0.0,9.8388,9.7774,9.7264,0.0,0.0,0.0,0.0,0.0,9.9651,0.0,0.0,9.745,9.8354,0.0,0.0,0.0,0.0,0.0,0.0,0.0,0.0,0.0,0.0,0.0,0.0,0.0,0.0,0.0,0.0,12.3385,12.7999,13.041,13.1512,13.302,13.5716,13.6813,13.8092,14.0116,14.1211,14.2109,14.289,14.3711,14.4492,14.539,14.539,0.0,0.0,0.0,14.4882,14.3984,14.2886,14.2399,14.2282,14.1196,14.0215,13.9196,13.9196,13.8004,13.591,13.591,13.5115,13.3711,13.3008,13.2109,13.1211,12.9297,12.8086,12.7109,12.5586,12.4492,12.3515,12.2617,0.0,0.0,11.9687,11.9101,11.8398,11.8281,11.8281,11.8281,11.8281,11.8281,11.8281,11.8281,11.8281,11.8281,11.8281,11.8281,11.8281,11.8281,11.8281,11.8281,11.8281,11.8281,11.8281,11.8281,11.8098,11.7995,11.8319,11.8281,11.8281,11.8281,11.8095,11.7609,11.6911,11.6505,0.0,11.1913,10.9888,10.8213,10.6503,10.3309,10.0508,9.8062,9.8143,9.8572,9.9238,10.1216,10.3296,10.5597,10.8313,10.9687,10.9687,10.3105,10.2687,0.0,0.0,0.0,0.0,0.0,0.0,0.0,0.0,0.0,0.0,0.0,0.0,0.0,0.0,0.0,12.039,12.5904,13.041,13.2307,13.4393,13.6182,13.741,13.7898,13.8993,14.1015,14.2617,14.3593,14.3789,14.4609,14.539,14.6289,14.5703,14.5312,14.5312,14.5312,14.4882,14.3984,14.3787,14.3315,14.269,14.2408,0.0,14.0019,14.0019,13.8581,13.6205,13.6205,13.531,13.3789,13.3593,13.3008,13.1992,12.9609,12.8086,12.7304,12.6914,12.5898,12.4414,12.3593,12.2617,12.1484,12.0117,11.9492,11.9218,11.8515,11.8281,0.0,11.8281,11.8281,11.8281,11.8281,11.8281,11.8281,11.8281,11.8281,11.8281,11.8281,11.8281,11.8281,11.8281,11.8281,11.8281,11.8281,11.8319,11.82,11.8281,11.8281,11.8281,11.8281,11.8319,11.8199,11.8004,11.7294,11.6312,11.4985,11.2603,11.0494,10.8814,10.6705,10.5105,10.3895,10.5184,10.5613,10.5106,10.6791,10.8005,10.8512,11.039,11.2109,11.3398,11.1285,11.0894,0.0,0.0,0.0,0.0,0.0,0.0,0.0,0.0,0.0,0.0,0.0,10.9713,11.3304,0.0,12.2884,12.5608,12.9307,13.2295,13.3987,13.568,13.7184,13.8099,13.9292,14.0693,14.2299,14.3783,14.4687,14.4687,14.5507,14.6289,14.7187,14.6797,14.6406,14.6015,14.6015,14.5312,14.3984,14.3984,14.3789,14.3398,14.3398,14.2695,14.1484,14.1015,13.9687,13.7617,13.6718,13.5586,13.4297,13.3515,13.289,13.2383,13.1093,12.9804,12.8515,12.7617,12.6797,12.5898,12.4609,12.3593,12.2617,12.1289,12.0312,11.9492,11.9101,11.8593,11.8281,11.8281,11.8281,11.8281,11.8281,11.8281,11.8398,11.8789,11.8593,11.8398,11.8906,11.8593,11.8281,11.8281,11.8281,11.8281,11.8281,11.8281,11.8281,11.8281,11.8281,11.8281,11.8281,11.8281,11.8281,11.8281,11.789,11.7304,11.6484,11.4414,11.25,11.0703,10.9804,10.8906,10.8086,10.8906,10.9297,10.9297,11.0586,11.1484,11.1914,11.3593,11.4883,11.5781,11.6211,11.5898,0.0,0.0,0.0,0.0,0.0,0.0,0.0,10.0912,10.4094,10.9303,11.2984,11.6815,12.1303,12.4895,12.8006,13.06,13.241,13.4,13.5295,13.6411,13.7399,13.8412,14.0312,14.2004,14.2986,14.4307,14.5213,14.5291,14.6084,14.6987,14.8002,14.7811,14.7382,14.6914,14.6718,14.5781,14.4297,14.4297,14.4218,14.3984,14.3984,14.3593,14.2812,14.1914,14.0507,13.8789,13.6914,13.5586,13.4687,13.3281,13.2812,13.2695,13.2383,13.1406,13.0,12.8593,12.7695,12.7109,12.5586,12.4492,12.3593,12.25,12.1211,12.0,11.9687,11.9101,11.8515,11.8281,11.8281,11.8281,11.8281,11.8281,11.8515,11.9414,11.9101,11.8711,11.9414,11.8984,11.8515,11.8281,11.8281,11.8281,11.8281,11.8281,11.8281,11.8281,11.8281,11.8281,11.8281,11.8281,11.8281,11.8281,11.8281,11.789,11.7109,11.5781,11.4297,11.2695,11.2617,11.2304,11.1601,11.1601,11.1914,11.2617,11.3515,11.4297,11.5,11.6484,11.7304,11.7304,11.8906,11.8789,8.9526,9.1934,9.4916,9.9289,10.0904,10.3881,0.0,11.4903,11.5715,12.0917,12.439,12.6817,12.739,13.0103,13.2293,13.2692,13.4103,13.5295,13.5488,13.6911,13.7989,13.8106,13.9876,14.1381,14.1913,14.3384,14.461,14.5383,14.5889,14.6807,14.8404,14.7407,14.7109,14.7695,14.6992,14.6093,14.5195,14.5195,14.4804,14.3984,14.3984,14.3593,14.2812,14.1914,14.0507,13.8789,13.6211,13.4687,13.3906,13.3711,13.3711,13.3515,13.1992,13.1211,13.1015,13.0781,12.9297,12.7187,12.6211,12.5312,12.4414,12.2695,12.2109,12.1601,12.0117,11.9492,11.9297,11.8515,11.8281,11.8281,11.8281,11.8281,11.8515,11.9414,11.9492,11.9492,11.9609,11.9492,11.9218,11.8515,11.8281,11.8281,11.8281,11.8281,11.8281,11.8281,11.8281,11.8281,11.8281,11.8281,11.8281,11.8281,11.8281,11.789,11.7109,11.6797,11.6289,11.5312,11.5312,11.5195,11.5117,11.5195,11.5312,11.539,11.6211,11.6601,11.6718,11.7695,11.8203,11.8203,11.9101,11.9492,9.69,9.9387,10.1589,10.4408,10.8218,11.2394,11.6903,11.9087,12.1212,12.5302,12.7989,12.9881,13.0884,13.2495,13.4103,13.5116,13.5411,13.5911,13.6911,13.718,13.6988,13.5988,13.7487,13.9285,14.1208,14.2699,14.38,14.4688,14.5413,14.611,14.6806,14.6716,14.669,14.6495,14.6788,14.6397,14.4989,14.5189,14.4882,14.3984,14.3806,14.3507,14.3193,14.1587,13.9489,13.6986,13.5893,13.4788,13.3789,13.3789,13.3789,13.3711,13.3008,13.2109,13.1093,13.0117,12.8984,12.789,12.6484,12.5781,12.5195,12.3515,12.2617,12.2109,12.1289,12.0781,12.0312,11.9883,11.9804,11.9804,11.9804,11.9804,12.0,12.0898,12.0703,12.0508,12.1015,12.0703,12.0117,11.9218,11.9101,11.8906,11.8398,11.8281,11.8281,11.8281,11.8281,11.8281,11.8281,11.8281,11.8281,11.8281,11.8281,11.8203,11.7812,11.7812,11.7617,11.7187,11.7187,11.7187,11.7187,11.7187,11.7304,11.7304,11.7617,11.8008,11.8515,11.8906,11.9297,11.9804,12.0703,12.1093,10.1502,10.4305,10.6807,10.9489,11.4484,11.91,11.9985,12.2485,12.5409,12.8102,12.9987,13.1602,13.2808,13.391,13.5103,13.6603,13.6296,13.6296,13.7617,13.6796,13.568,13.4411,13.518,13.6808,13.9313,14.1002,14.2412,14.3491,14.451,14.5087,14.5312,14.6001,14.6284,14.5895,14.67,14.6487,14.5,14.5185,14.4802,14.3708,14.3482,14.341,14.3284,14.1294,13.8813,13.5996,13.5801,13.4985,13.3788,13.3594,13.3516,13.3516,13.3282,13.2319,13.0889,12.9404,12.8707,12.8398,12.6601,12.6015,12.5703,12.3984,12.3086,12.25,12.2304,12.1797,12.1211,12.1015,12.0898,12.0898,12.0898,12.0898,12.1093,12.1992,12.1718,12.1406,12.2109,12.1484,12.0703,12.0117,11.9609,11.9101,11.8711,11.8515,11.8281,11.8281,11.8281,11.8281,11.8281,11.8281,11.8281,11.8281,11.8281,11.8281,11.8281,11.8281,11.8281,11.8281,11.8281,11.8281,11.8281,11.8281,11.8281,11.8281,11.8281,11.8711,11.9609,11.9609,12.0,12.0898,12.1797,12.2187,10.121,10.4386,10.9003,11.4802,11.8919,12.242,12.569,12.7794,12.9294,13.0217,13.1807,13.2923,13.3,13.4295,13.5795,13.668,13.6796,13.6796,13.6796,13.5411,13.4411,13.4295,13.3603,13.3808,13.5514,13.7887,14.0094,14.1787,14.309,14.411,14.5001,14.5287,14.5895,14.6719,14.679,14.6401,14.5519,14.5487,14.4715,14.3003,14.2989,14.2989,14.2989,14.1186,13.9,13.6516,13.5705,13.4816,13.3889,13.3116,13.2688,13.2688,13.1904,13.1218,13.0582,12.9684,12.8983,12.8398,12.6601,12.6015,12.5703,12.3984,12.3515,12.3281,12.25,12.2187,12.1992,12.1093,12.0898,12.0898,12.0898,12.0898,12.1093,12.1992,12.2187,12.2187,12.2187,12.1484,12.0898,12.0898,11.9492,11.8593,11.9414,11.8906,11.8281,11.8281,11.8281,11.8281,11.8281,11.8281,11.8281,11.8281,11.8281,11.8281,11.8281,11.8281,11.8281,11.8281,11.8281,11.8281,11.8281,11.8281,11.8281,11.8281,11.8281,11.8711,11.9609,11.9609,12.0,12.0898,12.1797,12.2187,10.6099,11.0291,11.4714,11.9485,12.3293,12.6409,12.8679,13.0102,13.0794,13.0487,13.091,13.1179,13.0602,13.1795,13.3603,13.5603,13.5911,13.6296,13.7488,13.668,13.5103,13.2795,13.3295,13.3603,13.2987,13.5295,13.7719,13.9989,14.0597,14.1622,14.3589,14.4403,14.5216,14.5989,14.6785,14.6612,14.5099,14.5405,14.4681,14.3008,14.2696,14.2213,14.1389,14.0191,13.8411,13.6206,13.5314,13.4284,13.3085,13.2813,13.2696,13.2696,13.2385,13.1511,13.0315,13.0003,12.9182,12.8081,12.6481,12.6015,12.5703,12.3984,12.3515,12.3398,12.3203,12.3086,12.3008,12.2695,12.2617,12.2617,12.2617,12.2617,12.2695,12.3008,12.3086,12.3086,12.3086,12.2812,12.25,12.1914,12.1289,12.0586,11.9687,11.9804,11.9804,11.9218,11.8711,11.8281,11.8281,11.8281,11.8281,11.8281,11.8281,11.8281,11.8281,11.8281,11.8281,11.8281,11.8281,11.8281,11.8281,11.8281,11.8281,11.8281,11.8281,11.8984,12.0508,12.0508,12.1211,12.2617,12.289,12.3086,11.0791,11.511,11.8985,12.3909,12.6986,12.9217,13.0602,13.1102,13.091,12.9794,12.9102,12.8409,12.7486,12.8294,13.0102,13.3603,13.4411,13.5411,13.7809,13.6796,13.518,13.3295,13.3218,13.318,13.2679,13.3795,13.568,13.8219,13.9296,14.0489,14.2104,14.3605,14.472,14.522,14.6288,14.6185,14.4705,14.4711,14.3985,14.258,14.2317,14.1491,14.0104,13.9604,13.7977,13.5818,13.5007,13.3901,13.2814,13.2504,13.231,13.231,13.231,13.1587,13.039,13.0087,12.9296,12.8199,12.6792,12.6206,12.5781,12.4414,12.3984,12.3906,12.3593,12.3711,12.3906,12.3593,12.3515,12.3515,12.3515,12.3515,12.3515,12.3515,12.3515,12.3515,12.3515,12.3281,12.3008,12.2695,12.2187,12.1484,12.0703,12.0703,12.0703,12.0117,11.9609,11.8984,11.8398,11.8281,11.8281,11.8281,11.8281,11.8281,11.8281,11.8281,11.8281,11.8281,11.8281,11.8281,11.8281,11.8281,11.8281,11.8281,11.8593,11.9492,12.0898,12.1211,12.2109,12.3515,12.3515,12.3515,11.5187,11.8715,12.21,12.7794,12.991,13.0794,13.1487,13.0987,12.9794,12.8012,12.6294,12.4793,12.3793,12.3793,12.5601,13.0602,13.2423,13.4308,13.7617,13.6103,13.4911,13.5488,13.3487,13.2679,13.4295,13.368,13.4308,13.668,13.9104,14.0489,14.0719,14.2989,14.4412,14.4412,14.522,14.522,14.4283,14.3489,14.2681,14.1912,14.1912,14.0989,13.9412,13.9296,13.7911,13.5488,13.4718,13.3795,13.2923,13.2102,13.1679,13.1679,13.1679,13.1386,13.0806,12.9993,12.9403,12.8694,12.7283,12.6511,12.5781,12.5117,12.4804,12.4609,12.3789,12.4101,12.4609,12.3711,12.3515,12.3515,12.3515,12.3515,12.3515,12.3515,12.3515,12.3515,12.3515,12.289,12.25,12.3281,12.2109,12.1211,12.2109,12.1484,12.1015,12.1015,12.1015,12.0312,11.8593,11.8398,11.8398,11.8398,11.8398,11.8398,11.8398,11.8398,11.8281,11.8281,11.8281,11.8281,11.8281,11.8281,11.8281,11.8398,11.9218,12.0117,12.1015,12.1797,12.2617,12.3515,12.3515,12.3515,11.8985,12.3485,12.7486,12.9602,13.0794,13.1295,13.091,12.9602,12.7705,12.4793,12.2293,11.9908,11.71,12.0216,12.3985,12.6601,13.141,13.5603,13.7809,13.8604,13.8411,13.668,13.6988,13.6988,13.618,13.6488,13.7296,13.8604,13.8104,13.9104,14.2297,14.3105,14.372,14.4412,14.4605,14.4297,14.3412,14.2604,14.2104,14.1912,14.1181,14.0719,14.0219,13.8988,13.768,13.6411,13.4911,13.3795,13.2923,13.2102,13.1679,13.1679,13.1679,13.1279,13.0614,13.0383,12.9513,12.8492,12.8093,12.7011,12.5609,12.4997,12.4414,12.3789,12.3593,12.3711,12.3789,12.3593,12.3515,12.3515,12.3515,12.3515,12.3515,12.3515,12.3515,12.3515,12.3515,12.3281,12.3203,12.3515,12.2617,12.2109,12.3008,12.2383,12.1914,12.1914,12.1914,12.1211,11.9492,11.9804,12.0,11.9297,11.9297,11.9297,11.9297,11.9297,11.8984,11.8281,11.8906,11.8984,11.8281,11.8281,11.8593,11.9297,11.9492,12.0312,12.1914,12.2109,12.2617,12.3515,12.3515,12.3515,12.3216,12.6986,12.9987,13.0794,13.0794,12.9987,12.7717,12.6101,12.3601,11.8407,11.6484,11.4714,11.1291,11.5215,11.9908,12.2716,12.9179,13.4988,13.8181,13.9796,14.0296,13.9604,13.9719,13.9719,13.9104,13.8796,13.9296,14.0796,13.9412,13.9681,14.2412,14.2912,14.3297,14.3797,14.3797,14.3412,14.2604,14.2104,14.1912,14.1912,14.1412,14.0796,13.9989,13.8681,13.718,13.5603,13.4295,13.318,13.241,13.191,13.1679,13.1679,13.1679,13.141,13.091,13.0217,12.9396,12.8716,12.799,12.6688,12.5186,12.5204,12.4585,12.381,12.3593,12.3789,12.3984,12.3593,12.3515,12.3515,12.3515,12.3515,12.3515,12.3515,12.3515,12.3515,12.3515,12.3515,12.3515,12.3515,12.3086,12.289,12.3398,12.3086,12.2812,12.2812,12.3086,12.2695,12.1015,12.0781,12.0703,12.0195,12.0195,12.0195,12.0195,12.0195,12.0,11.9492,11.9492,11.9414,11.8906,11.8515,11.8711,11.9609,12.0,12.0781,12.2187,12.2617,12.3203,12.4101,12.3711,12.3711,12.7217,12.941,13.0794,13.141,13.0294,12.7909,12.3524,12.16,11.8688,11.1214,11.0098,10.9511,10.628,11.0021,11.4907,11.9292,12.6294,13.3103,13.8488,14.0104,14.1296,14.3105,14.1989,14.1412,14.2181,14.0796,14.0796,14.3105,14.1681,14.1104,14.1989,14.2604,14.2912,14.2912,14.2912,14.2604,14.1912,14.1912,14.1797,14.1681,14.1604,14.0681,13.9104,13.8181,13.6488,13.4411,13.341,13.2615,13.191,13.1679,13.1679,13.1679,13.1679,13.1602,13.141,12.991,12.9217,12.8906,12.758,12.5997,12.4603,12.5284,12.4901,12.4008,12.3582,12.3983,12.4492,12.3711,12.3515,12.3515,12.3515,12.3515,12.3515,12.3515,12.3593,12.3711,12.3711,12.3711,12.3593,12.3515,12.3515,12.3515,12.3711,12.3711,12.3711,12.3789,12.4492,12.4414,12.2812,12.1914,12.1289,12.1093,12.1093,12.1093,12.1093,12.1093,12.1015,12.0898,12.0195,11.9804,11.9804,11.8789,11.8789,11.9883,12.0586,12.1406,12.2383,12.3086,12.3906,12.4804,12.3984,12.4101,12.9487,13.0794,13.141,13.0794,12.941,12.6781,12.1908,11.8484,11.4599,10.829,10.6097,10.4597,10.2587,10.6905,11.2483,11.7407,12.4012,13.1102,13.8296,14.0104,14.1489,14.3912,14.3912,14.3797,14.3989,14.2989,14.2912,14.4105,14.2604,14.1989,14.2797,14.2412,14.2104,14.2104,14.2104,14.1989,14.1912,14.1912,14.1489,14.0796,14.0104,13.9219,13.8309,13.668,13.5719,13.5218,13.368,13.2923,13.2692,13.1987,13.1679,13.1679,13.1679,13.1295,13.0679,13.041,12.941,12.8114,12.7799,12.6179,12.4299,12.5013,12.4321,12.3206,12.3116,12.3415,12.3711,12.3515,12.3515,12.3515,12.3515,12.3515,12.3515,12.3515,12.4101,12.4609,12.4609,12.4609,12.4414,12.3593,12.3515,12.3711,12.4492,12.4609,12.4804,12.5508,12.5703,12.539,12.4492,12.4218,12.3593,12.2109,12.1992,12.1992,12.1992,12.1992,12.1718,12.0898,12.0781,12.0703,12.0703,11.9101,11.9414,12.1718,12.1211,12.1718,12.3281,12.3398,12.3906,12.4804,12.4609,12.5,13.0679,13.141,13.1487,13.0679,12.7909,12.3704,11.7715,11.3791,10.9406,10.2597,10.1597,10.1299,9.9096,10.3482,10.879,11.2599,11.8523,12.5794,13.4795,13.7103,13.9719,14.4489,14.5413,14.572,14.572,14.4913,14.4605,14.499,14.3489,14.2681,14.3105,14.2297,14.1912,14.1912,14.1912,14.1912,14.1912,14.1489,14.0989,14.0604,13.9719,13.8604,13.7411,13.6103,13.4988,13.4103,13.291,13.2295,13.2307,13.191,13.1679,13.1679,13.1679,13.1179,13.041,12.9987,12.8986,12.7782,12.7409,12.5909,12.4195,12.4518,12.3692,12.2618,12.2913,12.3093,12.3296,12.3514,12.3515,12.3515,12.3515,12.3789,12.4101,12.3593,12.4218,12.4804,12.4804,12.5117,12.5195,12.4297,12.4492,12.4883,12.539,12.539,12.5586,12.5898,12.6406,12.6211,12.5,12.5195,12.4804,12.3086,12.289,12.289,12.289,12.3281,12.3203,12.2304,12.2304,12.1992,12.1601,12.0312,12.0508,12.2187,12.1797,12.2187,12.3515,12.3515,12.4218,12.539,12.5,12.5508,13.1218,13.1679,13.141,13.0217,12.6294,12.0793,11.3791,10.9406,10.4905,9.775,9.7904,9.8721,9.6903,10.0481,10.4905,10.829,11.3291,12.0408,13.0999,13.4103,13.7796,14.4605,14.599,14.6413,14.6605,14.572,14.5105,14.5105,14.3682,14.2797,14.2797,14.2181,14.1912,14.1912,14.1912,14.1912,14.1912,14.0989,14.0489,14.0296,13.9488,13.8219,13.6488,13.5603,13.4411,13.3,13.2102,13.1679,13.1679,13.1679,13.1679,13.1679,13.1679,13.1102,13.0102,12.9487,12.8486,12.7602,12.6909,12.5678,12.4293,12.4216,12.3194,12.2199,12.2688,12.2798,12.2902,12.3203,12.3308,12.3393,12.3588,12.4217,12.4687,12.4414,12.4804,12.5312,12.5312,12.5781,12.6015,12.5195,12.5586,12.6093,12.6211,12.6289,12.6289,12.6484,12.7109,12.6992,12.5312,12.5586,12.539,12.3711,12.3515,12.3515,12.3515,12.4101,12.4218,12.3515,12.3281,12.3008,12.25,12.1484,12.1406,12.25,12.2304,12.2617,12.3515,12.3711,12.4492,12.6015,12.5508,12.6093,13.1218,13.1679,13.1102,12.8705,12.4909,11.9677,11.2186,10.7213,10.2712,9.7403,9.648,9.6788,9.7288,9.8481,10.1481,10.7905,11.1291,11.7292,12.9102,13.291,13.6911,14.372,14.4605,14.4913,14.572,14.4297,14.3297,14.3297,14.2489,14.1989,14.1989,14.1912,14.1912,14.1912,14.1912,14.1912,14.1912,14.0989,14.0219,13.9398,13.8604,13.7296,13.5603,13.4795,13.391,13.3,13.2102,13.1679,13.1679,13.1679,13.1679,13.1679,13.1679,13.0718,12.9294,12.9217,12.8217,12.6806,12.6678,12.6101,12.5178,12.4409,12.3194,12.208,12.2204,12.2418,12.2591,12.2618,12.2786,12.3183,12.4006,12.4507,12.5195,12.6601,12.6992,12.7109,12.7109,12.7109,12.6914,12.6093,12.5898,12.6289,12.6992,12.7187,12.7383,12.8203,12.8398,12.789,12.6093,12.6015,12.539,12.3711,12.3515,12.3515,12.3515,12.3593,12.3593,12.3515,12.2812,12.2617,12.3398,12.1797,12.1718,12.3281,12.2617,12.2617,12.3515,12.4297,12.5117,12.6015,12.6718,12.7617,12.9294,13.0602,13.041,12.7794,12.2793,11.6907,11.0791,10.5415,10.0606,9.7019,9.6288,9.6403,9.6711,9.7057,9.8827,10.3597,10.4789,10.8906,11.9792,12.3485,12.8409,13.7296,14.0104,14.2297,14.472,14.4297,14.3682,14.3105,14.2412,14.1681,14.1104,14.1104,14.1412,14.1912,14.0912,14.0604,14.1104,13.9796,13.8681,13.7796,13.6911,13.5603,13.3987,13.368,13.2987,13.2179,13.1923,13.1679,13.1679,13.1679,13.1679,13.1679,13.1679,13.0718,12.9217,12.9217,12.8102,12.669,12.669,12.6101,12.5293,12.4986,12.4187,12.3205,12.2901,12.2888,12.2999,12.3179,12.3786,12.429,12.4306,12.4892,12.5781,12.6992,12.7304,12.7304,12.7304,12.7695,12.7812,12.6992,12.7187,12.7695,12.8008,12.8086,12.8203,12.8515,12.8593,12.8203,12.6914,12.6797,12.6093,12.4492,12.3789,12.3515,12.3515,12.4414,12.4609,12.3593,12.4101,12.4218,12.3515,12.2812,12.2812,12.3515,12.3711,12.3906,12.4297,12.5117,12.6015,12.6797,12.7109,12.7812,12.6217,12.8102,12.8409,12.6101,12.0793,11.4802,10.9713,10.4222,9.9375,9.6826,9.6288,9.6288,9.6288,9.6288,9.725,10.0096,10.0904,10.4492,11.3994,11.7907,12.3216,13.241,13.5603,13.8488,14.222,14.2989,14.2989,14.2412,14.1604,14.0912,14.0219,13.9989,14.0296,14.1104,13.9912,13.9604,14.0219,13.8604,13.7488,13.718,13.5795,13.4487,13.341,13.3115,13.2487,13.1679,13.1679,13.1679,13.1679,13.1679,13.1679,13.1679,13.1679,13.0718,12.9217,12.9217,12.8102,12.669,12.669,12.6294,12.5678,12.5486,12.4986,12.4414,12.3702,12.3387,12.331,12.3799,12.4582,12.5202,12.4782,12.5613,12.6789,12.7499,12.7695,12.7695,12.7695,12.8203,12.8398,12.7812,12.8203,12.8711,12.8906,12.8789,12.8711,12.8906,12.8707,12.8197,12.7382,12.7183,12.6517,12.5,12.4297,12.3789,12.3515,12.4609,12.4804,12.3593,12.4609,12.4687,12.3515,12.3515,12.3515,12.3515,12.4414,12.4804,12.4804,12.5898,12.6718,12.7304,12.7617,12.8008,12.1793,12.4216,12.4986,12.3408,11.91,11.3984,10.8906,10.3799,9.9375,9.6826,9.6288,9.6288,9.6288,9.6288,9.6865,9.8557,10.1722,10.6482,11.4214,11.8919,12.4101,13.091,13.1795,13.35,13.7694,13.9681,14.0604,14.0604,13.9796,13.9296,13.9296,13.8604,13.8488,13.9296,13.9296,13.9296,13.9296,13.768,13.718,13.8117,13.5488,13.4295,13.4295,13.341,13.2487,13.1679,13.1679,13.1679,13.1679,13.1679,13.1679,13.1679,13.1679,13.0718,12.9217,12.9217,12.8102,12.669,12.669,12.669,12.6486,12.5678,12.5409,12.5216,12.4421,12.3485,12.3113,12.3882,12.5012,12.5817,12.5606,12.6796,12.8198,12.8512,12.8593,12.8593,12.8593,12.8593,12.8593,12.8593,12.8593,12.8906,12.9687,12.9218,12.8906,12.9804,12.8906,12.79,12.7382,12.6989,12.6299,12.4882,12.4804,12.4414,12.3593,12.3515,12.3515,12.3515,12.3515,12.3515,12.3515,12.3515,12.3515,12.3515,12.4414,12.4804,12.4804,12.6484,12.7304,12.7304,12.8203,12.8593,11.4291,11.6792,11.7792,11.4907,11.1301,10.7482,10.4097,10.0712,9.7942,9.6596,9.6288,9.6288,9.6288,9.6288,9.7788,10.2404,10.3982,10.6982,11.3483,11.86,12.3485,12.8486,13.4795,13.9181,14.0604,14.0604,14.0604,14.0604,13.9796,13.9104,13.8488,13.8181,13.8488,13.9296,13.8219,13.7911,13.8488,13.7411,13.6603,13.6296,13.4911,13.3987,13.341,13.2487,13.1987,13.1679,13.1679,13.1679,13.1679,13.1679,13.141,13.091,13.091,12.9794,12.8282,12.8282,12.7602,12.669,12.669,12.669,12.669,12.6421,12.6294,12.6178,12.5986,12.4909,12.3793,12.3985,12.4114,12.4317,12.5115,12.6312,12.742,12.7614,12.8203,12.8593,12.8593,12.8382,12.8418,12.9002,12.8692,12.8692,13.0212,12.9909,12.9489,12.9602,12.9205,12.8605,12.7595,12.7609,12.7318,12.6306,12.5811,12.5,12.3593,12.3984,12.4101,12.3515,12.4101,12.4101,12.3515,12.3515,12.3515,12.3515,12.4883,12.5586,12.5586,12.7304,12.8203,12.8203,12.8515,12.8593,10.7521,11.0483,11.1906,10.979,10.6905,10.4097,10.1779,9.9327,9.7288,9.648,9.6288,9.6288,9.6288,9.6288,9.7519,10.1212,10.3097,10.5982,11.1291,11.6984,12.2716,12.8217,13.5218,13.9488,13.9488,13.9912,13.9989,13.9681,13.8796,13.8104,13.7603,13.7617,13.7796,13.8296,13.7296,13.7103,13.7617,13.6411,13.5719,13.5488,13.3987,13.318,13.3,13.2102,13.1679,13.1679,13.1679,13.1679,0.0,13.141,13.1102,13.091,13.0294,12.9294,12.8409,12.8012,12.7409,12.669,12.669,12.669,12.669,12.669,12.6486,12.6178,12.6178,12.5678,12.4793,12.3485,12.3798,12.4586,12.4894,12.5894,12.7004,12.7282,12.7781,12.8212,12.8212,12.8098,12.8202,12.9016,12.8782,12.8904,13.0307,12.9984,12.9509,12.9206,12.8797,12.8314,12.7682,12.7702,12.7515,12.6894,12.6513,12.5811,12.4492,12.4414,12.4101,12.3515,12.3984,12.4101,12.3515,12.3515,12.3711,12.3984,12.5312,12.6211,12.6484,12.789,12.8593,12.8593,12.8593,12.8593,0.0,10.4905,10.6905,10.6713,10.4905,10.2789,10.1212,9.8981,0.0,9.6365,9.6172,9.6211,9.6442,9.6326,9.6442,9.7096,10.0519,10.452,10.879,11.5407,12.2601,13.0102,13.3795,13.5795,13.5795,13.7911,13.8911,13.8194,13.7296,13.6796,13.6796,13.6796,13.6796,13.6796,13.6796,13.6796,13.668,13.5218,13.4795,13.5411,13.2987,13.2307,13.3,13.2102,13.1679,13.1679,13.1679,13.1679,13.1602,13.091,13.0987,13.141,12.9794,12.9102,12.8909,12.8102,12.7294,12.669,12.669,12.669,12.669,12.6601,12.6101,12.5486,12.5293,12.5909,12.5921,12.2689,12.4113,12.6217,12.5011,12.5789,12.7105,12.7516,12.7592,12.7592,12.7592,12.7612,12.7794,12.8683,12.8799,12.9111,13.0012,12.9486,12.8909,12.8896,12.7891,12.7295,12.7482,12.7316,12.6998,12.6792,12.6816,12.6607,12.6089,12.4609,12.3711,12.3593,12.3593,12.3593,12.3515,12.3515,12.3906,12.4687,12.5586,12.6406,12.7304,12.8203,12.8593,12.8515,12.8593,12.8593,9.2595,0.0,9.8673,9.7326,9.6519,9.6172,0.0,9.548,9.4711,9.522,9.4788,9.5095,9.7711,9.6634,9.7634,10.4789,10.679,10.9098,11.3984,12.1716,12.8909,13.4603,13.7103,13.8411,13.8411,13.8411,13.8296,13.8117,13.7296,13.6796,13.6796,13.6796,13.6796,13.6796,13.6796,13.6488,13.5795,13.6103,13.568,13.4603,13.3987,13.341,13.3,13.2102,13.1679,13.1679,13.1679,13.1679,13.1679,13.1487,13.0794,12.9717,12.941,12.8409,12.7306,12.7101,12.6921,12.669,12.669,12.669,12.6614,12.5909,12.5986,12.6101,12.4793,12.4486,12.4486,12.3716,12.4101,12.4781,12.5398,12.5914,12.6416,12.7399,12.7592,12.7592,12.7592,12.7384,12.7505,12.8303,12.8001,12.8001,12.9599,12.9285,12.8799,12.8611,12.8281,12.7806,12.7002,12.6984,12.7118,12.7014,12.6907,12.6594,12.6282,12.5699,12.5117,12.4492,12.4492,12.4218,12.3515,12.3515,12.3593,12.3789,12.5312,12.6406,12.7304,12.8203,12.8281,12.7617,12.8281,12.8593,8.8632,9.2441,9.6057,9.5134,9.5172,9.5557,9.6019,9.4864,9.3719,9.3835,9.3749,9.4249,9.6134,9.6634,9.8634,10.4482,10.7405,11.1483,11.8908,12.5601,13.1487,13.618,13.7988,13.8719,13.8719,13.8425,13.7886,13.7488,13.668,13.618,13.618,13.618,13.618,13.618,13.6603,13.6411,13.5488,13.5988,13.5411,13.368,13.368,13.318,13.241,13.191,13.1679,13.1679,13.1679,13.1679,13.1602,13.091,13.0294,12.9717,12.8486,12.7717,12.7217,12.6794,12.669,12.669,12.669,12.669,12.6601,12.6101,12.6294,12.6486,12.5601,12.5293,12.5101,12.4293,12.4716,12.5415,12.5587,12.6019,12.64,12.699,12.7509,12.7577,12.7315,12.7294,12.7592,12.8083,12.7813,12.7785,12.8712,12.8619,12.8395,12.8185,12.7884,12.7495,12.7304,12.7098,12.7,12.7088,12.7017,12.6805,12.6392,12.6195,12.5798,12.5012,12.4895,12.4505,12.3688,12.3997,12.4494,12.5012,12.5912,12.6903,12.789,12.8008,12.8008,12.789,12.8008,12.8203,8.7825,9.2133,9.6326,9.5672,9.6442,9.7288,9.7134,9.5249,9.3364,9.2787,9.3133,9.3749,9.4527,9.7019,9.9865,10.2395,10.7098,11.3714,12.3216,12.7794,13.1795,13.5911,13.7103,13.7617,13.7886,13.7809,13.7411,13.668,13.5911,13.5488,13.5488,13.5411,13.5411,13.5719,13.6296,13.618,13.5295,13.5411,13.468,13.3,13.3,13.2487,13.1679,13.1679,13.1679,13.1679,13.1679,13.1679,13.1602,12.9987,12.9794,13.0102,12.7794,12.7217,12.7602,12.6986,12.669,12.669,12.669,12.6601,12.6486,12.6486,12.6486,12.6486,12.6486,12.6614,12.6421,12.4909,12.5601,12.6486,12.5794,12.6101,12.669,12.669,12.7217,12.7486,12.6794,12.7217,12.7717,12.7717,12.7717,12.7717,12.7717,12.7717,12.7717,12.7717,12.7101,12.6909,12.7602,12.7101,12.6814,12.6984,12.7099,12.689,12.63,12.6297,12.5908,12.5011,12.4917,12.459,12.3818,12.4512,12.5391,12.6592,12.6718,12.7214,12.8203,12.7694,12.7692,12.8317,12.7687,12.7683,8.9825,9.3903,9.648,9.2864,9.4249,9.6288,9.5566,9.398,9.2826,9.3403,9.3056,9.398,9.8336,9.9567,10.2097,10.878,11.4214,11.96,12.5486,12.8102,13.0718,13.4295,13.4795,13.5411,13.6911,13.6296,13.5795,13.5719,13.5603,13.5488,13.5488,13.4911,13.5103,13.6603,13.5988,13.5295,13.4487,13.5218,13.468,13.3,13.3,13.2487,13.1679,13.1679,13.1679,13.1679,13.1679,13.1679,13.1602,13.0679,12.991,12.9294,12.8217,12.7409,12.6921,12.6678,12.669,12.669,12.669,12.6178,12.5601,12.5601,12.5601,12.5601,12.5601,12.6101,12.6601,12.6421,12.6486,12.669,12.6486,12.6614,12.669,12.669,12.6806,12.6921,12.6678,12.6806,12.6909,12.6909,12.6909,12.6909,12.6909,12.6909,12.6909,12.6909,12.6806,12.6678,12.6921,12.6806,12.6688,12.6783,12.7,12.6694,12.5616,12.5785,12.5502,12.4294,12.4103,12.3901,12.3818,12.3896,12.45,12.5691,12.5817,12.6002,12.6406,12.7499,12.7685,12.7097,12.7405,12.7617,8.8017,9.1864,9.5095,9.3624,9.7211,10.0789,9.999,9.8144,9.6442,9.5865,9.5441,9.6057,9.8875,10.1597,10.629,11.4907,12.0216,12.4178,12.6986,12.9217,13.1487,13.3987,13.4295,13.4988,13.6603,13.5603,13.4988,13.5488,13.468,13.4103,13.4103,13.4218,13.4411,13.468,13.5218,13.5103,13.4295,13.418,13.3487,13.2307,13.2808,13.2487,13.1679,13.1679,13.1679,13.1679,13.1679,13.1487,13.0987,13.0102,12.9294,12.8397,12.7602,12.6986,12.6601,12.6178,12.5986,12.5909,12.5486,12.4986,12.4793,12.5216,12.5409,12.5486,12.5986,12.6421,12.669,12.669,12.669,12.669,12.669,12.669,12.669,12.669,12.6986,12.7217,12.6806,12.6986,12.7217,12.6806,12.669,12.669,12.669,12.669,12.6794,12.7294,12.7294,12.7294,12.7294,12.7294,12.7217,12.6678,12.6783,12.6299,12.4817,12.479,12.4718,12.4113,12.3606,12.3489,12.3897,12.3093,12.3395,12.4987,12.4993,12.5381,12.6189,12.6794,12.7208,12.7204,12.6995,12.7086,8.7325,9.0441,9.3749,9.5202,9.9481,10.3482,10.4289,10.2222,9.999,9.9673,9.9596,9.9788,10.0481,10.5213,11.1714,11.96,12.4486,12.7602,12.8409,13.041,13.2295,13.3795,13.3795,13.4411,13.6103,13.4911,13.4295,13.4911,13.368,13.3,13.3,13.341,13.3603,13.3295,13.4411,13.4603,13.3987,13.3295,13.2692,13.1987,13.25,13.2295,13.1679,13.1679,13.1602,13.141,13.141,13.0987,13.0102,12.9294,12.8486,12.7782,12.6986,12.669,12.6601,12.5998,12.5678,12.5601,12.4909,12.4601,12.4486,12.5409,12.5601,12.5601,12.6409,12.669,12.669,12.669,12.669,12.669,12.669,12.669,12.669,12.669,12.7217,12.7486,12.6794,12.7217,12.7409,12.6794,12.669,12.669,12.669,12.669,12.6909,12.7486,12.7602,12.7602,12.7602,12.7602,12.7409,12.6806,12.6486,12.5678,12.3985,12.3793,12.3793,12.3793,12.3204,12.3293,12.4101,12.2716,12.2702,12.4318,12.4481,12.5096,12.6093,12.6388,12.6808,12.7515,12.6716,12.6788,9.0941,9.2326,9.3364,9.6519,9.7673,9.9481,10.502,10.2981,10.1222,10.502,10.579,10.5779,10.5779,11.1895,11.8204,12.21,12.6294,12.9294,13.0217,13.1102,13.1987,13.3,13.241,13.2603,13.4295,13.3603,13.3115,13.3192,13.3115,13.3,13.3,13.2295,13.2603,13.4218,13.3487,13.3192,13.3115,13.3,13.3,13.2885,13.2192,13.1795,13.1679,13.1679,13.1295,13.0602,13.0602,13.0102,12.9217,12.8409,12.8012,12.7782,12.6986,12.669,12.669,12.6601,12.6601,12.6614,12.6486,12.5986,12.5486,12.6294,12.6101,12.5601,12.6409,12.669,12.669,12.669,12.669,12.669,12.669,12.669,12.669,12.669,12.6678,12.6806,12.669,12.6678,12.6806,12.669,12.669,12.669,12.669,12.669,12.669,12.6806,12.6806,12.6806,12.6806,12.6806,12.6806,12.669,12.5986,12.4793,12.3101,12.2985,12.2985,12.2985,12.2897,12.3293,12.4101,12.3293,12.3,12.3409,12.421,12.4786,12.5192,12.6385,12.7112,12.7112,12.6811,12.6706,8.794,9.0825,9.3826,9.6172,9.875,10.1789,10.6213,10.7213,10.8098,11.1291,11.1483,11.1291,11.1791,11.6407,12.11,12.3985,12.7602,13.0294,13.1102,13.1487,13.1987,13.2885,13.2179,13.241,13.4103,13.2987,13.241,13.3,13.25,13.2179,13.2179,13.241,13.2615,13.2679,13.291,13.2692,13.2179,13.2179,13.2179,13.2179,13.1923,13.1679,13.1679,13.1679,13.1295,13.0487,13.0487,12.9717,12.8409,12.8012,12.7602,12.7101,12.6794,12.669,12.6614,12.5486,12.5101,12.4986,12.4486,12.4101,12.4101,12.5409,12.5678,12.5601,12.6409,12.669,12.669,12.669,12.669,12.669,12.669,12.669,12.669,12.669,12.669,12.669,12.669,12.669,12.669,12.669,12.669,12.669,12.669,12.669,12.6921,12.7409,12.7409,12.7409,12.7409,12.7409,12.7294,12.6806,12.5909,12.5101,12.4486,12.3985,12.3601,12.3601,12.3216,12.3293,12.4101,12.3293,12.2898,12.3004,12.3902,12.4405,12.448,12.6093,12.6911,12.6795,12.6683,12.669,8.7162,9.0248,9.3864,9.6134,9.9481,10.3405,10.8213,11.0598,11.2791,11.6215,11.5984,11.5484,11.6676,11.9215,12.21,12.4909,12.7986,13.0487,13.1487,13.1679,13.191,13.2487,13.2102,13.2179,13.341,13.241,13.191,13.2487,13.1987,13.1679,13.1679,13.2307,13.2307,13.1679,13.2307,13.2307,13.1679,13.1679,13.1679,13.1679,13.1679,13.1679,13.1679,13.1679,13.1102,13.0102,13.0102,12.9102,12.7486,12.7486,12.7217,12.669,12.669,12.669,12.6486,12.5101,12.4716,12.4793,12.3985,12.3909,12.4293,12.5409,12.5794,12.5909,12.6486,12.669,12.669,12.669,12.669,12.669,12.669,12.669,12.669,12.669,12.669,12.669,12.669,12.669,12.669,12.669,12.669,12.669,12.669,12.669,12.6909,12.7409,12.7486,12.7486,12.7486,12.7486,12.7217,12.6409,12.5986,12.5601,12.4986,12.4716,12.4486,12.4486,12.3716,12.3485,12.4101,12.3601,12.3293,12.3293,12.4101,12.4486,12.4486,12.5986,12.669,12.669,12.669,12.6794,8.9893,9.1171,9.3326,9.6673,9.9481,10.3395,11.1021,11.2703,11.4214,11.9292,11.8985,11.8407,11.9985,12.0292,12.1485,12.4909,12.7486,12.9794,13.1487,13.1679,13.1679,13.1679,13.1679,13.1679,13.1679,13.1679,13.1679,13.1679,13.1679,13.1679,13.1679,13.1679,13.1679,13.1679,13.1679,13.1679,13.1679,13.1679,13.1679,13.1679,13.1679,13.1679,13.1679,13.1679,13.0794,12.9217,12.9217,12.8217,12.669,12.669,12.669,12.669,12.669,12.669,12.6614,12.5678,12.5909,12.6614,12.5678,12.5986,12.669,12.669,12.669,12.669,12.669,12.669,12.669,12.669,12.669,12.669,12.669,12.669,12.669,12.669,12.669,12.669,12.669,12.669,12.669,12.669,12.669,12.669,12.669,12.669,12.669,12.669,12.669,12.669,12.669,12.669,12.6421,12.5486,12.6178,12.5986,12.4293,12.4909,12.5409,12.5409,12.4601,12.4101,12.4101,12.4101,12.4101,12.4101,12.4986,12.5409,12.5409,12.6306,12.669,12.669,12.669,12.7101,8.8132,9.0671,9.4172,9.7557,10.352,10.9511,11.3599,11.5407,11.7715,12.2793,12.3485,12.2908,12.2293,12.2601,12.3716,12.5998,12.7909,12.9794,13.1487,13.1679,13.1679,13.1679,13.1679,13.1679,13.1679,13.1679,13.1679,13.1679,13.1679,13.1679,13.1679,13.1679,13.1679,13.1679,13.1679,13.1679,13.1679,13.1679,13.1679,13.1679,13.1679,13.1679,13.1679,13.1102,13.0294,12.9217,12.8602,12.7717,12.669,12.669,12.669,12.669,12.669,12.669,12.6486,12.4986,12.4986,12.5678,12.4793,12.5101,12.5909,12.6486,12.669,12.669,12.669,12.669,12.669,12.669,12.669,12.669,12.669,12.669,12.669,12.669,12.669,12.669,12.669,12.669,12.669,12.669,12.669,12.669,12.669,12.669,12.6909,12.7486,12.7101,12.669,12.669,12.669,12.6614,12.6294,12.6486,12.6486,12.5986,12.6178,12.6101,12.5409,12.5678,12.5909,12.5909,12.4793,12.4409,12.4986,12.5293,12.5409,12.5409,12.6306,12.669,12.669,12.669,12.6794,9.0556,9.4018,9.8211,10.2289,10.7905,11.3599,11.7792,11.96,12.1408,12.5101,12.5409,12.4793,12.4486,12.4216,12.4793,12.6794,12.7986,12.9294,13.0987,13.091,13.0987,13.1602,13.141,13.1295,13.1679,13.1679,13.1679,13.1679,13.1679,13.1679,13.1679,13.1679,13.1679,13.1679,13.1679,13.1679,13.1679,13.1679,13.1487,13.1179,13.1179,13.0987,13.0718,13.0602,12.9794,12.8602,12.7794,12.7101,12.669,12.669,12.669,12.669,12.669,12.669,12.6486,12.5101,12.5178,12.5678,12.4486,12.4716,12.5486,12.5986,12.6178,12.6178,12.6614,12.669,12.669,12.669,12.669,12.669,12.669,12.669,12.669,12.669,12.669,12.669,12.669,12.669,12.669,12.669,12.669,12.669,12.669,12.669,12.6921,12.7409,12.6986,12.669,12.669,12.669,12.669,12.669,12.669,12.669,12.669,12.669,12.6486,12.5909,12.6101,12.6294,12.669,12.5678,12.5409,12.5909,12.5909,12.5909,12.5909,12.6409,12.669,12.669,12.669,12.6921,9.5172,9.9135,10.3712,10.8983,11.2483,11.6407,12.2793,12.4216,12.4601,12.6294,12.5486,12.4909,12.6409,12.5409,12.5101,12.7512,12.7897,12.8486,13.0102,12.9717,12.9794,13.1295,13.0794,13.0679,13.141,13.1487,13.1487,13.1602,13.1602,13.1602,13.1679,13.1679,13.1679,13.1679,13.1679,13.1679,13.1679,13.1602,13.1179,13.0487,13.041,12.991,12.9102,12.991,12.941,12.7705,12.6986,12.669,12.6614,12.669,12.6601,12.6486,12.6601,12.669,12.6486,12.5678,12.5909,12.6294,12.4716,12.4601,12.5293,12.5293,12.5293,12.5486,12.6294,12.6601,12.669,12.669,12.669,12.669,12.669,12.669,12.669,12.669,12.669,12.669,12.669,12.669,12.669,12.669,12.669,12.669,12.669,12.669,12.669,12.669,12.669,12.669,12.669,12.669,12.669,12.669,12.669,12.669,12.669,12.669,12.669,12.669,12.5986,12.5909,12.669,12.6601,12.6601,12.669,12.669,12.669,12.669,12.669,12.669,12.669,12.669,12.7101,9.3518,9.7365,10.2289,10.9406,11.5599,12.092,12.4293,12.4601,12.4601,12.6294,12.6909,12.6986,12.6678,12.6421,12.6486,12.7705,12.7897,12.8282,12.9294,12.9294,12.9294,12.9717,12.9602,12.9487,12.9717,12.9717,12.9987,13.0718,13.0794,13.0987,13.1679,13.1679,13.1679,13.1679,13.1679,13.1679,13.1679,13.1102,13.0679,13.0487,12.9794,12.8986,12.8217,12.8409,12.7909,12.6909,12.6806,12.6294,12.5678,12.6409,12.5909,12.4793,12.6178,12.6294,12.5678,12.5486,12.5486,12.5486,12.4486,12.4216,12.4409,12.4409,12.4793,12.5409,12.5601,12.6178,12.669,12.669,12.669,12.669,12.669,12.669,12.669,12.669,12.669,12.669,12.669,12.669,12.669,12.669,12.669,12.669,12.669,12.669,12.669,12.669,12.669,12.669,12.669,12.669,12.669,12.669,12.669,12.669,12.669,12.669,12.669,12.669,12.6486,12.6486,12.669,12.5986,12.5986,12.669,12.669,12.669,12.669,12.669,12.669,12.669,12.669,12.6806,9.4287,9.8942,10.4597,11.3483,11.8985,12.2793,12.4909,12.4986,12.5101,12.6409,12.6717,12.6794,12.7217,12.6986,12.6986,12.7794,12.7602,12.7602,12.8486,12.8217,12.8294,12.9102,12.8794,12.8705,12.9217,12.9217,12.941,12.9794,12.991,13.0102,13.0487,13.091,13.1102,13.1102,13.1487,13.1487,13.1102,13.0679,13.0102,12.9217,12.8794,12.8102,12.7294,12.7294,12.7101,12.669,12.669,12.6178,12.5409,12.5909,12.5486,12.4793,12.5293,12.5678,12.5909,12.5101,12.4986,12.5216,12.3985,12.3485,12.3601,12.3985,12.4409,12.4909,12.5794,12.6294,12.669,12.669,12.669,12.669,12.669,12.6986,12.7217,12.6806,12.669,12.669,12.669,12.669,12.669,12.669,12.669,12.669,12.669,12.669,12.669,12.669,12.669,12.669,12.669,12.669,12.669,12.669,12.6294,12.6178,12.669,12.5909,12.5794,12.6601,12.6294,12.6306,12.669,12.6306,12.6178,12.669,12.669,12.669,12.669,12.669,12.669,12.669,12.669,12.669,9.4518,10.0904,10.7982,11.7484,12.1216,12.2908,12.4601,12.4909,12.5101,12.6178,12.5986,12.5986,12.7205,12.6986,12.6909,12.7409,12.6986,12.6909,12.7602,12.7101,12.7178,12.8602,12.8102,12.7986,12.8717,12.8794,12.8794,12.8986,12.8986,12.8986,12.9217,12.991,13.0294,13.0294,13.091,13.091,13.0294,13.0102,12.9294,12.7897,12.7794,12.7294,12.669,12.669,12.669,12.669,12.669,12.6178,12.5409,12.5409,12.5293,12.5101,12.4486,12.5216,12.6294,12.4909,12.4716,12.4986,12.3408,12.2793,12.2793,12.3601,12.3985,12.4409,12.5986,12.6614,12.669,12.669,12.669,12.669,12.669,12.7217,12.7486,12.6921,12.669,12.669,12.669,12.669,12.669,12.669,12.669,12.669,12.669,12.669,12.669,12.669,12.6614,12.6486,12.669,12.6409,12.6294,12.6498,12.5678,12.5486,12.6178,12.4909,12.4716,12.6178,12.5678,12.5678,12.6409,12.6601,12.669,12.669,12.669,12.669,12.669,12.669,12.669,12.669,12.669,12.669,8.9893,9.9481,10.9983,11.6484,11.9408,12.11,12.2793,12.2601,12.2805,12.5101,12.6101,12.6421,12.5794,12.6294,12.6486,12.5794,12.6294,12.6678,12.6794,12.6806,12.6806,12.6986,12.6909,12.6909,12.6986,12.6986,12.7294,12.8012,12.8089,12.8397,12.9217,12.9294,12.941,12.941,12.9487,12.9487,12.941,12.8602,12.8089,12.7897,12.7217,12.6794,12.669,12.669,12.669,12.669,12.669,12.6178,12.5409,12.5409,12.4986,12.4293,12.4986,12.5409,12.5486,12.5293,12.4793,12.4101,12.3216,12.2408,12.1908,12.2793,12.3524,12.4293,12.5293,12.6101,12.669,12.669,12.669,12.669,12.669,12.6806,12.6794,12.6678,12.669,12.669,12.669,12.669,12.669,12.669,12.669,12.669,12.669,12.669,12.669,12.669,12.6101,12.5794,12.6601,12.5409,12.4716,12.5486,12.4793,12.4293,12.4409,12.4216,12.4216,12.4409,12.4986,12.5486,12.5601,12.6294,12.669,12.669,12.669,12.669,12.669,12.669,12.669,12.669,12.669,12.669,9.2787,10.0404,10.779,11.4714,11.7292,11.8919,12.16,12.1908,12.2189,12.4216,12.4986,12.5293,12.5409,12.5678,12.5794,12.5486,12.6101,12.669,12.669,12.6294,12.5986,12.5986,12.5986,12.5986,12.5986,12.5986,12.6101,12.6486,12.6486,12.6717,12.7101,12.7986,12.8486,12.8486,12.8909,12.8986,12.8486,12.8089,12.7717,12.7217,12.6921,12.669,12.669,12.669,12.669,12.669,12.669,12.6178,12.5409,12.5409,12.5216,12.4793,12.4716,12.5293,12.5998,12.4486,12.3985,12.3909,12.2601,12.2216,12.2485,12.3293,12.4101,12.4986,12.5909,12.6421,12.669,12.669,12.669,12.669,12.669,12.6986,12.7294,12.6794,12.6986,12.7217,12.6806,12.669,12.669,12.669,12.669,12.669,12.669,12.669,12.6486,12.5986,12.5601,12.5409,12.5293,12.4601,12.4216,12.4601,12.3909,12.3601,12.4101,12.3216,12.3101,12.3985,12.3985,12.4216,12.4716,12.4986,12.5216,12.5216,12.6178,12.669,12.669,12.669,12.669,12.669,12.669,12.669,9.3326,9.8557,10.3097,11.0483,11.3984,11.6418,11.9611,12.06,12.1408,12.3101,12.3293,12.3485,12.4601,12.4909,12.4986,12.4793,12.5486,12.5986,12.5986,12.5486,12.5101,12.5101,12.5101,12.5101,12.5101,12.5101,12.5101,12.5101,12.5101,12.5178,12.5409,12.6601,12.7409,12.7602,12.8217,12.8294,12.7602,12.7602,12.7294,12.669,12.669,12.669,12.669,12.669,12.669,12.669,12.669,12.6294,12.5678,12.5486,12.5486,12.5601,12.4486,12.4986,12.6101,12.3793,12.3293,12.3601,12.2408,12.2408,12.3024,12.3793,12.4716,12.5486,12.6178,12.6486,12.669,12.6409,12.6486,12.6601,12.6409,12.6986,12.7409,12.6794,12.7178,12.7409,12.6794,12.669,12.669,12.669,12.669,12.669,12.669,12.669,12.6421,12.5486,12.5216,12.4793,12.4216,12.3716,12.3485,12.3793,12.3101,12.2793,12.3408,12.2293,12.21,12.3408,12.3101,12.3216,12.3793,12.4216,12.4293,12.4101,12.5601,12.6421,12.6421,12.6614,12.6614,12.6421,12.6421,12.6421,8.6517,9.1056,9.5865,10.2789,10.8713,11.3599,11.6187,11.7984,11.9715,12.142,12.11,12.0985,12.2716,12.3716,12.3909,12.3216,12.3716,12.4216,12.4216,12.4216,12.4216,12.4216,12.4216,12.4216,12.4216,12.4216,12.4216,12.4216,12.4216,12.4486,12.5409,12.5486,12.5909,12.6678,12.6806,12.6806,12.6806,12.6806,12.6678,12.669,12.669,12.669,12.669,12.669,12.669,12.669,12.669,12.669,12.6614,12.5678,12.5909,12.6498,12.4793,12.4716,12.5293,12.3485,12.2908,12.2897,12.2908,12.2908,12.3024,12.3793,12.4716,12.5409,12.5486,12.5986,12.6486,12.5678,12.6101,12.6486,12.5678,12.6101,12.6806,12.669,12.6678,12.6806,12.669,12.669,12.669,12.669,12.669,12.669,12.669,12.669,12.6421,12.5486,12.4716,12.4216,12.4101,12.2716,12.1985,12.2908,12.2216,12.1689,12.1677,12.1689,12.16,12.1689,12.2485,12.2908,12.2985,12.4486,12.4909,12.4101,12.4986,12.5486,12.5486,12.6294,12.6306,12.5486,12.5486,12.5486,8.5324,8.8094,9.1402,9.8788,10.3905,10.7982,11.1598,11.4984,11.7792,11.8908,11.9408,11.9715,12.0292,12.2024,12.3204,12.2897,12.3601,12.4101,12.4101,12.3716,12.3293,12.3293,12.3293,12.3293,12.3293,12.3293,12.3293,12.3293,12.3793,12.4216,12.4486,12.5601,12.6421,12.669,12.669,12.669,12.669,12.669,12.669,12.669,12.669,12.669,12.669,12.669,12.669,12.669,12.669,12.669,12.669,12.6421,12.6409,12.6614,12.5409,12.5101,12.5293,12.4101,12.3716,12.3716,12.3716,12.3985,12.4601,12.4793,12.5486,12.6101,12.5601,12.5986,12.6421,12.4986,12.5601,12.6486,12.5601,12.5986,12.669,12.669,12.669,12.669,12.669,12.669,12.669,12.669,12.6178,12.5986,12.6601,12.5794,12.5101,12.5409,12.4216,12.3293,12.3293,12.2293,12.1677,12.1985,12.1804,12.1612,12.1612,12.1612,12.1612,12.1612,12.1908,12.21,12.21,12.2601,12.2793,12.2485,12.3408,12.4293,12.5409,12.5678,12.5678,12.5409,12.5409,12.5101,8.2708,8.5016,8.8248,9.5326,9.9019,10.2481,10.8406,11.1714,11.4214,11.6484,11.76,11.8407,11.8985,12.0485,12.1716,12.1985,12.2485,12.2908,12.3216,12.2793,12.2485,12.2485,12.2485,12.2485,12.2485,12.2485,12.2485,12.2485,12.3216,12.3793,12.4101,12.5486,12.6421,12.669,12.669,12.669,12.669,12.6409,12.6306,12.6306,12.5986,12.5986,12.6306,12.6306,12.6409,12.669,12.669,12.669,12.669,12.669,12.669,12.6601,12.5678,12.5409,12.5293,12.4101,12.3909,12.4101,12.4101,12.4716,12.5409,12.5409,12.5986,12.6486,12.5293,12.5601,12.5909,12.4216,12.4909,12.6101,12.5216,12.5794,12.669,12.669,12.669,12.669,12.669,12.6498,12.6306,12.6306,12.5601,12.5101,12.5678,12.4909,12.4216,12.4486,12.3601,12.2793,12.2485,12.1985,12.1677,12.1985,12.1804,12.1677,12.1985,12.1804,12.1612,12.1612,12.1612,12.1612,12.1612,12.1908,12.1908,12.1612,12.2485,12.3408,12.4601,12.4793,12.4986,12.4986,12.4716,12.4409,0.0,0.0,0.0,9.1941,9.4095,9.7202,10.6405,10.7905,10.8906,11.3984,11.5676,11.6803,11.86,11.8985,11.9292,12.01,12.0216,12.06,12.1408,12.1485,12.1485,12.1612,12.1612,12.1612,12.1612,12.1612,12.1612,12.1612,12.2408,12.3293,12.4101,12.4986,12.5794,12.669,12.669,12.669,12.669,12.5909,12.5409,12.5409,12.4486,12.4601,12.5409,12.5409,12.5909,12.669,12.669,12.669,12.669,12.669,12.669,12.6601,12.5678,12.5409,12.5216,12.3601,12.3485,12.4101,12.4216,12.4716,12.5409,12.5409,12.5986,12.6421,12.4601,12.4716,12.4986,12.3293,12.4101,12.5216,12.4409,12.5409,12.669,12.669,12.669,12.669,12.6601,12.5909,12.5293,12.5409,12.4716,12.4101,12.4101,12.4101,12.3793,12.3024,12.2908,12.2601,12.1677,12.16,12.1985,12.2793,12.21,12.1985,12.2793,12.21,12.1612,12.1612,12.16,12.16,12.16,12.2485,12.2485,12.1689,12.2408,12.2908,12.2908,12.3716,12.4101,12.3985,12.3216,12.3293,7.8446,0.0,0.0,0.0,0.0,0.0,9.6749,9.9635,10.2904,10.8598,10.9983,11.1214,11.4791,11.5907,11.6599,11.7407,11.86,11.9715,12.0485,12.0177,12.0216,12.1497,12.0985,12.0908,12.1485,12.1612,12.1612,12.1612,12.2408,12.3293,12.4101,12.5486,12.6498,12.669,12.669,12.669,12.669,12.6498,12.5986,12.5409,12.5178,12.4793,12.4486,12.5101,12.5486,12.5794,12.6409,12.669,12.669,12.669,12.669,12.6601,12.5678,12.5409,12.5293,12.4909,12.4793,12.5101,12.5794,12.6101,12.6294,12.6294,12.6486,12.6421,12.4601,12.4716,12.4909,12.2601,12.3601,12.5486,12.5909,12.6294,12.6486,12.5909,12.5794,12.5601,12.4986,12.4216,12.3985,12.5178,12.4716,12.4101,12.4101,12.3101,12.2601,12.3601,12.2716,12.21,12.2485,12.2485,12.2601,12.2908,12.2716,12.2601,12.2908,12.21,12.1612,12.1612,12.2216,12.2485,12.2485,12.2793,12.2793,12.2485,12.2216,12.1985,12.1985,12.2793,12.3204,12.3216,12.2408,12.2408,7.9246,8.0554,8.2716,8.514,0.0,0.0,9.4057,9.598,9.8557,10.5213,10.6905,10.8098,11.1291,11.2906,11.3984,11.4791,11.6407,11.7984,11.96,11.9408,11.9485,12.0408,12.01,12.01,12.0997,12.11,12.1177,12.1612,12.2408,12.3408,12.4601,12.5998,12.669,12.669,12.669,12.669,12.669,12.6294,12.5678,12.4909,12.4486,12.4293,12.4101,12.4293,12.4716,12.5409,12.5909,12.6178,12.6178,12.6614,12.669,12.6601,12.6101,12.5909,12.5909,12.5486,12.5601,12.5986,12.6101,12.6421,12.669,12.669,12.669,12.6409,12.5101,12.4986,12.4986,12.3178,12.3985,12.5601,12.6486,12.6409,12.5986,12.5486,12.5101,12.4716,12.4216,12.3716,12.3601,12.4216,12.3716,12.3101,12.3101,12.2216,12.1908,12.2908,12.2485,12.2216,12.2293,12.2716,12.3024,12.3408,12.3101,12.3024,12.3408,12.2601,12.1985,12.16,12.2408,12.2716,12.2408,12.2985,12.3101,12.2408,12.2216,12.1985,12.1612,12.21,12.2485,12.2908,12.3101,12.3485,8.1093,8.2439,8.4948,8.7602,8.7017,0.0,9.4403,9.4557,9.5249,10.2299,10.4405,10.5597,10.7598,10.9406,11.0906,11.1522,11.3407,11.5792,11.86,11.8908,11.8908,11.91,11.8985,11.9292,12.01,12.0216,12.06,12.142,12.2408,12.3716,12.5216,12.6178,12.669,12.669,12.669,12.669,12.6614,12.5794,12.4909,12.3985,12.3293,12.3293,12.3793,12.3293,12.3793,12.5101,12.5216,12.5293,12.5486,12.6178,12.6614,12.6614,12.669,12.6601,12.6486,12.5794,12.5986,12.6614,12.5678,12.5986,12.669,12.6486,12.6486,12.6486,12.5409,12.5216,12.5101,12.4293,12.4716,12.5601,12.6486,12.6101,12.5409,12.5293,12.4601,12.3909,12.3793,12.3793,12.3601,12.2908,12.2216,12.1677,12.1612,12.1612,12.1612,12.1612,12.2293,12.2485,12.1689,12.2408,12.3293,12.3985,12.3524,12.3485,12.4216,12.3408,12.2601,12.1804,12.2485,12.2601,12.1908,12.3293,12.3408,12.1908,12.2485,12.2408,12.1612,12.1689,12.21,12.2897,12.4486,12.5293,8.6363,8.7248,8.8162,8.617,8.8363,0.0,8.7025,8.8556,9.1479,9.4364,9.5595,9.7326,10.1106,10.3799,10.5213,10.4713,10.8906,11.3599,11.7484,11.7407,11.7484,11.8908,11.8484,11.8407,11.9292,11.9908,12.0408,12.0485,12.2601,12.3985,12.4293,12.5794,12.669,12.669,12.669,12.6421,12.5678,12.5486,12.4601,12.3101,12.3601,12.3216,12.21,12.3293,12.3716,12.3408,12.4101,12.4793,12.5409,12.5601,12.5678,12.5678,12.6409,12.6306,12.5678,12.6306,12.6614,12.6614,12.5678,12.5986,12.6498,12.5101,12.5601,12.6306,12.4101,12.3793,12.4293,12.4101,12.4716,12.5601,12.6486,12.6101,12.5216,12.4486,12.3716,12.2908,12.2216,12.21,12.1985,12.1908,12.2293,12.2408,12.1677,12.1612,12.1612,12.1612,12.1677,12.1804,12.16,12.2908,12.3909,12.4101,12.4601,12.4986,12.5101,12.3793,12.2793,12.2716,12.2793,12.3101,12.3601,12.3909,12.3909,12.3601,12.2485,12.1804,12.1612,12.2293,12.2716,12.2908,12.3909,12.4716,8.9556,8.9594,9.0239,8.9017,8.9671,0.0,0.0,8.8632,8.9748,9.3595,9.3364,9.3633,9.748,9.925,10.0404,10.1212,10.5597,10.9703,11.178,11.4599,11.6803,11.7677,11.7407,11.7484,11.8407,11.8792,11.9408,12.0216,12.1908,12.3216,12.4101,12.5293,12.6101,12.6101,12.6486,12.6101,12.4793,12.5216,12.4601,12.2908,12.3293,12.3293,12.2793,12.2908,12.3101,12.3485,12.3485,12.3985,12.4793,12.5216,12.5101,12.4909,12.6178,12.6409,12.6101,12.6486,12.6409,12.6101,12.5986,12.5986,12.5986,12.5486,12.5986,12.6421,12.4716,12.4101,12.4101,12.4101,12.4409,12.4909,12.5293,12.4793,12.3985,12.3601,12.2908,12.21,12.1689,12.1612,12.1612,12.1612,12.1985,12.21,12.1689,12.1612,12.1612,12.1612,12.1985,12.2216,12.2216,12.3293,12.4293,12.4716,12.5101,12.5409,12.5409,12.4216,12.3293,12.2908,12.2908,12.2908,12.2908,12.3716,12.3909,12.3485,12.2216,12.1612,12.1612,12.2485,12.3101,12.3485,12.4793,12.5601,9.2894,9.2479,9.321,9.2441,9.1672,9.1257,0.0,0.0,0.0,9.3287,9.2172,9.1364,9.4287,9.498,9.5788,9.8028,10.2097,10.4895,10.4895,11.0483,11.4687,11.4995,11.5291,11.5907,11.6984,11.6907,11.7715,11.9908,12.0408,12.1485,12.3485,12.4601,12.5101,12.5101,12.5794,12.5409,12.3909,12.4601,12.4216,12.2716,12.2793,12.3204,12.3793,12.2601,12.2793,12.4101,12.3408,12.3485,12.4216,12.4909,12.4716,12.4293,12.5794,12.6306,12.5986,12.6101,12.5794,12.5293,12.5986,12.5794,12.5486,12.5794,12.5921,12.5613,12.5101,12.4409,12.3909,12.3909,12.3985,12.4101,12.4101,12.3485,12.2908,12.2908,12.2216,12.1612,12.1612,12.1612,12.1612,12.1612,12.1612,12.1689,12.1793,12.1908,12.1908,12.2112,12.2716,12.3101,12.3101,12.3793,12.4601,12.5101,12.5293,12.5293,12.5178,12.4409,12.3601,12.2897,12.2716,12.2408,12.1908,12.3101,12.3601,12.2908,12.1985,12.1612,12.1612,12.2485,12.3293,12.4101,12.5678,12.6409,9.875,9.9519,9.9712,9.3018,9.5634,9.7211,8.7064,0.0,8.9902,8.6816,0.0,8.8171,8.9334,0.0,0.0,9.2056,9.6403,9.9673,9.9673,10.4212,10.8098,10.9598,11.1098,11.2714,11.4291,11.3714,11.4907,11.8908,11.7907,11.8496,12.1677,12.3408,12.4216,12.4216,12.4293,12.3985,12.3024,12.3101,12.2716,12.1804,12.2485,12.2897,12.3101,12.3601,12.3909,12.4101,12.3985,12.3985,12.4101,12.4216,12.4216,12.4216,12.5178,12.4601,12.3408,12.4101,12.4293,12.4293,12.4409,12.4793,12.5178,12.3793,12.2793,12.2305,12.2985,12.3101,12.3024,12.3024,12.3524,12.4101,12.4101,12.3485,12.2908,12.2908,12.2216,12.1612,12.1612,12.1612,12.1612,12.1612,12.1612,12.1793,12.2601,12.2793,12.2985,12.3716,12.3909,12.3985,12.3985,12.4716,12.4986,12.4293,12.4909,12.5101,12.4293,12.3485,12.3024,12.2908,12.2216,12.1985,12.2716,12.2908,12.3024,12.2908,12.1985,12.1612,12.1612,12.2485,12.3293,12.4101,12.5101,12.5486,9.9712,10.0712,10.1404,9.6134,9.6634,9.6711,9.0248,8.8479,8.8162,8.7855,0.0,0.0,0.0,0.0,0.0,0.0,9.3172,9.5672,9.5211,9.9096,10.3289,10.7021,10.8098,10.9213,11.0906,11.0714,11.2099,11.5907,11.4984,11.6215,12.06,12.1985,12.2908,12.3408,12.3909,12.3485,12.2216,12.2601,12.2485,12.1612,12.2485,12.3101,12.3601,12.3909,12.4409,12.4793,12.3793,12.3716,12.4101,12.3601,12.3408,12.3485,12.4293,12.4216,12.3601,12.3985,12.3793,12.3485,12.3909,12.3985,12.3909,12.3716,12.2985,12.2408,12.2793,12.2485,12.21,12.21,12.2408,12.2601,12.2601,12.2408,12.21,12.21,12.1908,12.1612,12.1612,12.1612,12.1612,12.1612,12.1612,12.1908,12.2704,12.2485,12.2293,12.2601,12.2601,12.2793,12.3293,12.3716,12.3985,12.4101,12.4409,12.4486,12.4101,12.3408,12.2908,12.2908,12.21,12.1804,12.21,12.21,12.21,12.21,12.1804,12.1612,12.1612,12.1985,12.2601,12.3408,12.4293,12.4601,10.1289,10.2097,10.2789,9.7711,9.6365,9.5326,9.1595,8.9248,8.8171,8.9325,8.8556,0.0,0.0,0.0,8.7902,8.9171,0.0,9.2826,9.221,9.4788,9.8519,10.3405,10.502,10.6213,10.7405,10.7098,10.8419,11.2287,11.1393,11.3005,11.8595,12.0016,12.1087,12.2204,12.2985,12.2793,12.1612,12.2485,12.2485,12.1612,12.2485,12.3293,12.4101,12.3909,12.4409,12.5293,12.4101,12.3793,12.4101,12.3485,12.3101,12.2908,12.3293,12.3408,12.3408,12.3716,12.3293,12.2716,12.3485,12.3408,12.3024,12.3601,12.3216,12.2485,12.2485,12.21,12.1612,12.1612,12.1612,12.1612,12.1612,12.1612,12.1612,12.1612,12.1612,12.1612,12.1612,12.1612,12.1612,12.1612,12.1612,12.1793,12.2408,12.2216,12.1985,12.2305,12.2293,12.2485,12.3101,12.3216,12.3408,12.3716,12.3793,12.3716,12.3408,12.2908,12.2485,12.2485,12.1908,12.1612,12.1612,12.1612,12.1612,12.1612,12.1612,12.1612,12.1612,12.1612,12.1908,12.2601,12.3408,12.3793,10.5097,10.5597,10.529,9.6134,9.5057,9.4557,8.7825,8.9402,9.1633,8.9218,9.1911,9.422,9.2672,9.1633,9.1056,0.0,9.121,0.0,0.0,9.1364,9.3018,9.7288,10.1481,10.3982,10.4097,10.252,10.3579,10.8678,10.6795,10.8296,11.4988,11.6986,11.8713,12.0319,12.1177,12.1689,12.1612,12.2485,12.2485,12.1612,12.2485,12.3293,12.4101,12.3293,12.3793,12.5409,12.5293,12.4909,12.4101,12.4101,12.3601,12.2793,12.1985,12.1689,12.1804,12.2601,12.2408,12.1804,12.2601,12.2908,12.2908,12.2897,12.2408,12.16,12.16,12.16,12.1612,12.1612,12.1612,12.1612,12.1612,12.1612,12.1612,12.1612,12.1612,12.1612,12.1612,12.1612,12.1612,12.1612,12.1612,12.1612,12.16,12.2293,12.3101,12.3909,12.3985,12.3985,12.4101,12.4101,12.3793,12.3024,12.2897,12.2601,12.1804,12.1689,12.16,12.16,12.1612,12.1612,12.1612,12.1612,12.1612,12.1612,12.1612,12.1612,12.1612,12.1612,12.1612,12.1689,12.2485,12.2897,10.7713,10.9098,10.9021,10.0789,9.875,9.6865,8.9479,9.0248,9.1595,8.8479,9.2133,9.5018,9.2172,9.1402,9.1018,0.0,9.0816,9.0825,0.0,9.0017,9.1086,9.3095,9.6596,9.9327,10.0404,10.0481,10.2401,10.6885,10.6412,10.8407,11.399,11.6497,11.8302,11.9413,12.082,12.1612,12.1612,12.1908,12.1908,12.1612,12.2485,12.3024,12.3293,12.3601,12.3985,12.4486,12.3985,12.3601,12.3293,12.2716,12.2293,12.21,12.2408,12.21,12.16,12.1908,12.1908,12.16,12.1908,12.1985,12.1985,12.1985,12.1793,12.1612,12.1612,12.1612,12.1612,12.1612,12.1612,12.1612,12.1612,12.1612,12.1612,12.1612,12.1612,12.1612,12.1612,12.1612,12.1612,12.1612,12.1612,12.1612,12.1612,12.1793,12.21,12.2408,12.2408,12.2408,12.2408,12.2408,12.2293,12.21,12.1985,12.1908,12.16,12.1612,12.1793,12.2408,12.1908,12.1908,12.2408,12.1908,12.1612,12.1612,12.1612,12.1612,12.1612,12.1612,12.1612,12.1612,12.1908,12.1985,11.0098,11.1214,11.1098,10.4289,10.2289,9.999,9.2979,9.3826,9.5134,9.171,9.4557,9.725,9.5942,9.398,9.2364,0.0,0.0,9.0056,0.0,8.8748,8.9787,9.0624,9.348,9.5903,9.7297,9.7951,9.9903,10.3794,10.44,10.6908,11.2298,11.4995,11.7194,11.9005,12.0398,12.1304,12.1612,12.1908,12.1908,12.1612,12.2485,12.2908,12.2908,12.3101,12.3408,12.3601,12.3101,12.3101,12.3293,12.2408,12.2216,12.2485,12.2485,12.21,12.16,12.1908,12.1908,12.1612,12.1612,12.1612,12.1612,12.1612,12.1612,12.1612,12.1612,12.1612,12.1612,12.1612,12.1612,12.1612,12.1612,12.1612,12.1612,12.1612,12.1612,12.1612,12.1612,12.1612,12.1503,12.1194,12.1105,12.1105,12.1105,12.1105,12.1193,12.15,12.1612,12.1612,12.1612,12.1612,12.1612,12.1612,12.1612,12.1612,12.1612,12.1612,12.1985,12.2781,12.21,12.1985,12.2908,12.21,12.1677,12.21,12.1804,12.1804,12.21,12.21,12.1908,12.1612,12.2177,12.2293]}]]